     2              OBSERVATION DATA    G (GPS)             RINEX VERSION / TYPE
ASRINEXO V2.9.9 LH AIUB 01-FEB- 1 16:27                     PGM / RUN BY / DATE
BERN ASHTECH Z-12                                           COMMENT
BIT 2 OF LLI (+4) FLAGS DATA COLLECTED UNDER "AS" CONDITION COMMENT
USNB                                                        MARKER NAME
                                                            OBSERVER / AGENCY
? ASHTECH Z-XII3 1D15                                       REC # / TYPE / VERS
? CHOKE RING                                                ANT # / TYPE
  1112155.2200 -4842848.3200  3985517.5000                  APPROX POSITION XYZ
        0.0000        0.0000        0.0000                  ANTENNA: DELTA H/E/N
     1     1                                                WAVELENGTH FACT L1/2
     5    C1    L1    L2    P1    P2                        # / TYPES OF OBSERV
  2000     4    23     0     0   30.000000                  TIME OF FIRST OBS
                                                            END OF HEADER
 00  4 23  0  0 30.0000000  0  6 06 17 26 23 09 10
  22018297.971   -14970610.037 8 -11643316.93647  22018298.199    22018310.4424
  20835267.833   -21195401.327 9 -16496053.46548  20835270.213    20835280.7194
  19983824.542   -24347271.999 9 -18940095.07948  19983827.504    19983837.2554
  23018369.407    -9958646.379 8  -7742168.22046  23018374.053    23018386.7904
  24245472.443    -1206643.202 7   -916816.06745  24245474.028    24245492.3124
  23218516.154    -9224489.742 8  -7162336.56446  23218516.947    23218528.6304
 00  4 23  0  1  0.0000000  0  6 06 17 26 23 09 10
  22032107.956   -14898012.325 8 -11586747.38947  22032113.131    22032125.4084
  20823690.664   -21256242.268 9 -16543461.93248  20823692.333    20823702.9944
  19987139.519   -24329856.567 9 -18926524.59848  19987141.933    19987151.4134
  23007125.499   -10017749.170 8  -7788222.22946  23007126.980    23007140.3344
  24225591.226    -1311076.957 7   -998192.60045  24225598.714    24225618.5494
  23232843.834    -9149207.965 8  -7103675.48146  23232842.069    23232855.2394
 00  4 23  0  1 30.0000000  0  6 06 17 26 23 09 10
  22046001.703   -14825011.834 8 -11529863.98247  22046004.901    22046016.8924
  20812179.348   -21316721.195 9 -16590588.31748  20812183.367    20812194.2234
  19990568.051   -24311835.131 9 -18912481.90948  19990571.249    19990580.7774
  22995901.879   -10076721.416 8  -7834174.49546  22995903.800    22995917.6734
  24205720.166    -1415526.848 7  -1079581.78245  24205723.335    24205742.4704
  23247181.188    -9073864.708 8  -7044966.52946  23247179.896    23247193.1944
 00  4 23  0  2  0.0000000  0  6 06 17 26 23 09 10
  22059973.212   -14751592.879 8 -11472654.49547  22059975.612    22059988.5884
  20800738.349   -21376856.705 9 -16637447.10948  20800739.808    20800751.0524
  19994111.051   -24293216.525 9 -18897973.90048  19994114.278    19994123.7534
  22984704.367   -10135570.985 8  -7880031.19046  22984705.197    22984719.2894
  24185842.079    -1519989.595 7  -1160980.94045  24185844.148    24185863.1124
  23261522.756    -8998453.745 8  -6986204.81546  23261529.541    23261543.3894
 00  4 23  0  2 30.0000000  0  6 06 17 26 23 09 10
  22074018.644   -14677767.734 8 -11415128.51247  22074023.253    22074036.7404
  20789356.006   -21436660.876 9 -16684047.71148  20789359.466    20789370.2474
  19997765.273   -24274004.322 9 -18883003.33948  19997770.207    19997779.6664
  22973527.947   -10194305.325 8  -7925798.11146  22973528.381    22973541.2384
  24165963.783    -1624468.312 7  -1242392.56845  24165961.847    24165980.2104
  23275886.457    -8922987.615 8  -6927400.14546  23275890.104    23275904.0894
 00  4 23  0  3  0.0000000  0  6 06 17 26 23 09 10
  22088144.783   -14603548.527 8 -11357295.46647  22088146.913    22088160.1854
  20778035.940   -21496146.261 9 -16730399.91848  20778039.730    20778050.5114
  20001533.792   -24254216.959 9 -18867584.61248  20001535.993    20001545.3054
  22962370.888   -10252931.324 8  -7971480.60246  22962371.999    22962385.0754
  24146087.200    -1728945.629 8  -1323803.07645  24146081.240    24146098.3204
  23290260.486    -8847465.368 8  -6868551.70146  23290262.392    23290274.8464
 00  4 23  0  3 30.0000000  0  6 06 17 26 23 09 10
  22102341.783   -14528941.569 8 -11299160.28447  22102345.086    22102356.8134
  20766777.674   -21555307.130 9 -16776499.24548  20766781.889    20766792.6804
  20005406.117   -24233861.681 9 -18851723.34548  20005409.347    20005419.0374
  22951228.345   -10311460.849 8  -8017087.93646  22951234.087    22951248.2494
  24126203.396    -1833411.838 8  -1405204.98445  24126201.834    24126219.4444
  23304642.954    -8771891.627 8  -6809663.10946  23304643.438    23304656.3384
 00  4 23  0  4  0.0000000  0  6 06 17 26 23 09 10
  22116607.168   -14453972.119 8 -11240742.62047  22116611.777    22116623.5304
  20755584.603   -21614137.542 9 -16822341.09348  20755587.466    20755597.2394
  20009386.134   -24212940.311 9 -18835420.97148  20009390.436    20009399.8934
  22940114.037   -10369898.206 8  -8062623.45946  22940114.127    22940127.0204
  24106318.577    -1937861.630 8  -1486594.12445  24106325.782    24106343.2054
  23319029.433    -8696284.581 8  -6750748.59446  23319030.899    23319044.6914
 00  4 23  0  4 30.0000000  0  6 06 17 26 23 09 10
  22130942.231   -14378651.961 8 -11182051.69647  22130944.656    22130957.2794
  20744456.167   -21672611.666 9 -16867905.30848  20744459.923    20744470.0294
  20013475.769   -24191456.261 9 -18818680.14448  20013478.713    20013487.9194
  22929013.845   -10428238.025 8  -8108082.96346  22929012.191    22929025.1554
  24086457.268    -2042290.003 8  -1567966.50245  24086452.252    24086469.7414
  23333425.806    -8620642.493 8  -6691806.78746  23333425.330    23333439.1094
 00  4 23  0  5  0.0000000  0  6 06 17 26 23 09 10
  22145342.266   -14302965.011 8 -11123074.96147  22145347.171    22145359.0764
  20733402.169   -21730706.745 9 -16913174.16648  20733404.868    20733414.7754
  20017669.839   -24169420.089 9 -18801509.09848  20017672.103    20017681.4574
  22917926.506   -10486467.537 8  -8153456.52946  22917930.878    22917944.6854
  24066585.108    -2146693.444 8  -1649319.51945  24066585.853    24066602.3374
  23347826.048    -8544950.943 8  -6632826.43646  23347829.510    23347843.1234
 00  4 23  0  5 30.0000000  0  6 06 17 26 23 09 10
  22159819.207   -14226907.880 8 -11063809.75246  22159820.569    22159832.3314
  20722421.648   -21788407.881 9 -16958136.05148  20722424.612    20722434.7234
  20021968.252   -24146826.852 9 -18783903.97248  20021971.502    20021981.0374
  22906870.398   -10544591.759 8  -8198748.07046  22906871.490    22906883.2844
  24046717.516    -2251074.633 8  -1730655.19545  24046722.453    24046739.3954
  23362241.458    -8469210.725 8  -6573808.15546  23362242.898    23362255.9824
 00  4 23  0  6  0.0000000  0  6 06 17 26 23 09 10
  22174363.289   -14150485.734 8 -11004260.12346  22174363.565    22174375.3214
  20711515.402   -21845729.706 9 -17002802.37748  20711516.477    20711526.9764
  20026374.398   -24123677.492 9 -18765865.50248  20026376.572    20026386.2314
  22895830.635   -10602592.349 8  -8243943.26946  22895834.147    22895846.3504
  24026856.655    -2355441.606 8  -1811979.73845  24026861.129    24026879.5734
  23376666.248    -8393413.924 8  -6514745.76846  23376666.814    23376679.1984
 00  4 23  0  6 30.0000000  0  6 06 17 26 23 09 10
  22188976.543   -14073689.625 8 -10944419.12247  22188977.748    22188989.4704
  20700677.267   -21902678.505 9 -17047178.02748  20700679.632    20700689.9564
  20030884.215   -24099974.152 9 -18747395.36648  20030886.990    20030896.6764
  22884824.469   -10660452.532 8  -8289029.06246  22884824.097    22884836.6394
  24006988.789    -2459804.265 8  -1893300.93945  24007001.272    24007018.5954
  23391100.482    -8317546.582 8  -6455628.39946  23391103.032    23391114.6184
 00  4 23  0  7  0.0000000  0  6 06 17 26 23 09 10
  22203660.574   -13996523.723 8 -10884289.96247  22203661.783    22203674.0754
  20689905.907   -21959272.850 9 -17091277.48648  20689909.737    20689920.0214
  20035500.301   -24075710.222 9 -18728488.40048  20035504.511    20035513.8474
  22873837.574   -10718169.600 8  -8334003.33146  22873840.283    22873853.0504
  23987142.542    -2564161.854 8  -1974618.16045  23987142.450    23987160.4884
  23405550.445    -8241611.919 8  -6396458.55946  23405552.610    23405565.6924
 00  4 23  0  7 30.0000000  0  6 06 17 26 23 09 10
  22218411.081   -13918998.080 8 -10823880.48647  22218414.721    22218427.4814
  20679202.126   -22015527.499 9 -17135112.26048  20679204.963    20679215.1904
  20040228.216   -24050878.784 9 -18709139.22348  20040229.680    20040238.9564
  22862883.681   -10775746.762 8  -8378868.56346  22862882.721    22862896.1244
  23967282.479    -2668510.456 8  -2055928.37745  23967285.473    23967303.0254
  23420017.551    -8165612.628 8  -6337238.37446  23420015.179    23420028.1374
 00  4 23  0  8  0.0000000  0  6 06 17 26 23 09 10
  22233231.793   -13841116.387 8 -10763193.56446  22233234.573    22233246.9974
  20668561.458   -22071439.594 9 -17178680.09548  20668564.930    20668575.2904
  20045059.003   -24025478.688 9 -18689346.93648  20045063.399    20045072.7054
  22851949.875   -10833171.297 8  -8423614.87546  22851955.366    22851967.8014
  23947429.770    -2772848.839 8  -2137230.63045  23947430.599    23947448.3624
  23434482.222    -8089551.871 8  -6277970.28746  23434488.571    23434501.9204
 00  4 23  0  8 30.0000000  0  6 06 17 26 23 09 10
  22248117.772   -13762879.675 8 -10702230.00546  22248122.891    22248135.5084
  20657990.639   -22126994.628 9 -17221969.69948  20657993.388    20658003.5374
  20050001.676   -23999514.674 9 -18669115.22948  20050004.312    20050013.7434
  22841049.478   -10890468.412 8  -8468261.90746  22841052.305    22841064.2754
  23927579.629    -2877156.336 8  -2218508.81445  23927581.437    23927598.2754
  23448974.641    -8013435.041 8  -6218658.50146  23448972.804    23448985.4154
 00  4 23  0  9  0.0000000  0  6 06 17 26 23 09 10
  22263074.147   -13684295.625 8 -10640995.78746  22263076.020    22263088.7334
  20647487.525   -22182184.708 9 -17264974.93348  20647490.737    20647501.4714
  20055048.826   -23972988.869 9 -18648445.76448  20055051.891    20055061.1244
  22830167.451   -10947657.704 8  -8512824.89846  22830170.647    22830181.7614
  23907741.225    -2981413.195 8  -2299747.58945  23907741.476    23907758.3084
  23463457.569    -7937273.927 8  -6159312.21846  23463466.010    23463480.7734
 00  4 23  0  9 30.0000000  0  6 06 17 26 23 09 10
  22278090.989   -13605374.382 8 -10579498.83346  22278095.646    22278107.0564
  20637057.643   -22236994.209 9 -17307683.59748  20637061.025    20637071.5334
  20060203.981   -23945896.582 9 -18627334.87648  20060207.389    20060216.7454
  22819303.272   -11004743.399 8  -8557307.16946  22819306.974    22819319.8344
  23887906.816    -3085611.744 8  -2380940.89045  23887911.926    23887929.3404
  23477963.095    -7861071.123 8  -6099933.44746  23477966.593    23477981.1124
 00  4 23  0 10  0.0000000  0  6 06 17 26 23 09 10
  22293173.278   -13526130.151 8 -10517750.17046  22293175.756    22293187.3824
  20626703.392   -22291415.345 9 -17350089.63748  20626705.305    20626715.5424
  20065466.582   -23918236.804 9 -18605781.79148  20065470.467    20065479.9244
  22808456.631   -11061735.564 8  -8601716.55346  22808460.804    22808474.4724
  23868088.936    -3189750.246 8  -2462087.39345  23868095.859    23868112.1944
  23492471.055    -7784822.452 8  -6040518.96346  23492476.962    23492490.0084
 00  4 23  0 10 30.0000000  0  6 06 17 26 23 09 10
  22308314.206   -13446573.077 8 -10455757.76047  22308314.103    22308327.4054
  20616419.786   -22345452.057 9 -17392196.11948  20616422.018    20616432.6984
  20070840.790   -23890006.587 9 -18583784.20948  20070843.074    20070851.9184
  22797631.882   -11118644.089 8  -8646060.76246  22797632.177    22797643.8924
  23848293.680    -3293813.445 8  -2543175.23845  23848292.226    23848309.4174
  23506992.593    -7708519.326 8  -5981062.00546  23506997.534    23507010.5454
 00  4 23  0 11  0.0000000  0  6 06 17 26 23 09 10
  22323504.343   -13366715.141 8 -10393530.90046  22323510.510    22323523.1444
  20606209.743   -22399107.624 9 -17434005.60248  20606211.507    20606222.2454
  20076321.869   -23861197.895 9 -18561335.86048  20076324.814    20076333.9504
  22786818.563   -11175459.095 8  -8690332.08646  22786820.196    22786832.6824
  23828498.976    -3397816.058 8  -2624215.84645  23828501.551    23828517.9884
  23521527.533    -7632162.481 8  -5921563.19846  23521527.596    23521540.6834
 00  4 23  0 11 30.0000000  0  6 06 17 26 23 09 10
  22338763.915   -13286548.507 8 -10331063.50746  22338766.228    22338779.0534
  20596070.538   -22452388.854 9 -17475523.39548  20596072.550    20596082.9314
  20081913.711   -23831816.874 9 -18538441.54348  20081915.828    20081925.4674
  22776025.762   -11232177.734 8  -8734528.32846  22776027.486    22776039.3434
  23808712.789    -3501769.904 8  -2705218.50145  23808718.500    23808735.9604
  23536067.675    -7555736.267 8  -5862010.34446  23536069.886    23536083.9024
 00  4 23  0 12  0.0000000  0  6 06 17 26 23 09 10
  22354077.238   -13206067.179 8 -10268350.90946  22354080.835    22354094.5904
  20585998.861   -22505306.148 9 -17516757.59648  20586002.217    20586013.2504
  20087607.411   -23801893.388 9 -18515124.52448  20087610.201    20087619.1594
  22765246.703   -11288800.830 8  -8778650.10547  22765251.998    22765264.6094
  23788947.601    -3605678.214 8  -2786185.68145  23788945.673    23788962.9104
  23550625.452    -7479236.399 8  -5802400.11746  23550627.903    23550641.4804
 00  4 23  0 12 30.0000000  0  6 06 17 26 23 09 10
  22369453.834   -13125261.672 8 -10205385.70146  22369457.336    22369470.9544
  20575999.817   -22557857.937 9 -17557706.98348  20576002.055    20576012.9164
  20093400.564   -23771449.893 9 -18491402.30848  20093403.076    20093412.5224
  22754496.329   -11345321.505 8  -8822692.06547  22754496.246    22754509.4704
  23769182.356    -3709542.857 8  -2867118.81245  23769181.038    23769197.5834
  23565197.459    -7402679.793 8  -5742745.65546  23565197.209    23565210.1474
 00  4 23  0 13  0.0000000  0  6 06 17 26 23 09 10
  22384890.697   -13044123.031 8 -10142160.89946  22384897.859    22384911.2734
  20566071.020   -22610034.881 9 -17598364.29048  20566073.582    20566083.7124
  20099289.019   -23740508.271 9 -18467291.93548  20099291.318    20099300.3804
  22743755.131   -11401740.173 8  -8866654.52747  22743760.095    22743772.5924
  23749408.200    -3813376.169 8  -2948027.56845  23749421.658    23749438.9414
  23579769.583    -7326082.431 8  -5683059.43846  23579773.057    23579785.9384
 00  4 23  0 13 30.0000000  0  6 06 17 26 23 09 10
  22400403.016   -12962648.012 8 -10078673.97546  22400402.424    22400415.1614
  20556215.130   -22661826.624 9 -17638721.43148  20556217.840    20556227.6794
  20105266.357   -23709098.832 9 -18442817.03748  20105268.090    20105277.5694
  22733041.855   -11458051.364 8  -8910533.24847  22733044.745    22733057.6744
  23729677.125    -3917158.555 8  -3028896.63945  23729672.633    23729689.5954
  23594357.318    -7249444.094 8  -5623341.32145  23594356.972    23594368.9384
 00  4 23  0 14  0.0000000  0  6 06 17 26 23 09 10
  22415965.456   -12880854.914 8 -10014939.21746  22415967.220    22415980.2554
  20546435.702   -22713217.361 9 -17678766.08648  20546438.616    20546448.4974
  20111331.004   -23677216.358 9 -18417973.52948  20111334.923    20111344.3644
  22722348.940   -11514241.605 8  -8954317.71147  22722351.040    22722364.0114
  23709932.966    -4020880.131 8  -3109718.34346  23709934.745    23709951.7394
  23608940.946    -7172783.538 8  -5563605.86746  23608944.566    23608958.1094
 00  4 23  0 14 30.0000000  0  6 06 17 26 23 09 10
  22431587.912   -12798743.626 8  -9950956.51646  22431592.412    22431604.7954
  20536735.493   -22764191.541 9 -17718486.16548  20536738.588    20536748.4334
  20117495.361   -23644828.229 9 -18392736.01348  20117498.261    20117507.9024
  22711679.923   -11570307.178 8  -8998005.01947  22711682.256    22711694.6624
  23690202.943    -4124538.411 8  -3190490.70746  23690209.549    23690226.1514
  23623537.034    -7096104.904 8  -5503856.32646  23623536.160    23623549.0064
 00  4 23  0 15  0.0000000  0  6 06 17 26 23 09 10
  22447278.037   -12716318.809 8  -9886729.47346  22447278.092    22447290.9214
  20527119.396   -22814740.616 9 -17757874.98448  20527119.254    20527129.1484
  20123758.418   -23611910.872 9 -18367086.11148  20123762.442    20123771.6124
  22701035.925   -11626244.227 8  -9041592.21447  22701038.393    22701049.8734
  23670493.253    -4228120.847 8  -3271204.00546  23670498.115    23670514.2114
  23638136.419    -7019390.373 8  -5444078.82145  23638135.201    23638146.4894
 00  4 23  0 15 30.0000000  0  6 06 17 26 23 09 10
  22463016.938   -12633586.650 8  -9822262.96146  22463020.690    22463034.2744
  20517578.448   -22864863.065 9 -17796931.38248  20517581.053    20517591.0554
  20130127.089   -23578446.293 9 -18341009.79948  20130130.704    20130140.1004
  22690419.298   -11682041.491 8  -9085070.45347  22690420.132    22690432.2974
  23650798.407    -4331618.215 8  -3351851.00946  23650802.788    23650818.7284
  23652744.841    -6942624.029 8  -5384260.93546  23652743.943    23652755.6824
 00  4 23  0 16  0.0000000  0  6 06 17 26 23 09 10
  22478824.587   -12550539.359 8  -9757550.91246  22478824.799    22478838.1974
  20508120.639   -22914564.646 9 -17835659.83148  20508123.053    20508132.8004
  20136606.382   -23544401.721 9 -18314481.54948  20136609.041    20136618.5854
  22679824.780   -11737711.566 8  -9128449.62047  22679826.663    22679839.3934
  23631126.595    -4435034.050 8  -3432434.49246  23631123.415    23631139.9994
  23667353.027    -6865806.299 8  -5324403.04745  23667360.048    23667374.1194
 00  4 23  0 16 30.0000000  0  6 06 17 26 23 09 10
  22494688.017   -12467168.431 8  -9692586.67346  22494689.781    22494702.8114
  20498741.222   -22963847.723 9 -17874062.16748  20498744.679    20498754.8094
  20143194.042   -23509782.390 9 -18287505.43148  20143196.893    20143206.2824
  22669252.609   -11793272.448 8  -9171743.68647  22669253.010    22669265.1254
  23611456.686    -4538358.103 8  -3512946.46146  23611460.835    23611477.0484
  23681990.955    -6788927.576 8  -5264497.61345  23681990.048    23682003.8964
 00  4 23  0 17  0.0000000  0  6 06 17 26 23 09 10
  22510615.177   -12383480.438 8  -9627375.35946  22510615.617    22510628.6264
  20489444.392   -23012712.181 9 -17912138.32148  20489446.265    20489456.2054
  20149889.255   -23474605.986 9 -18260095.23448  20149890.920    20149899.9254
  22658695.407   -11848726.487 8  -9214954.49247  22658700.488    22658713.1824
  23591814.951    -4641577.439 8  -3593376.80546  23591818.673    23591834.8434
  23696626.571    -6711985.818 8  -5204543.03545  23696632.328    23696644.8974
 00  4 23  0 17 30.0000000  0  6 06 17 26 23 09 10
  22526594.101   -12299483.272 8  -9561923.14846  22526599.827    22526612.8984
  20480224.280   -23061164.295 9 -17949893.15248  20480226.085    20480235.7494
  20156686.822   -23438876.345 9 -18232253.94148  20156689.653    20156698.7684
  22648161.252   -11904087.556 8  -9258092.86747  22648165.591    22648178.2274
  23572195.566    -4744693.702 8  -3673726.84346  23572196.172    23572212.3284
  23711290.079    -6634981.308 8  -5144539.57145  23711285.140    23711298.7924
 00  4 23  0 18  0.0000000  0  6 06 17 26 23 09 10
  22542641.866   -12215175.522 8  -9496228.90446  22542643.519    22542656.6294
  20471081.138   -23109210.144 9 -17987331.42948  20471083.247    20471092.7084
  20163593.368   -23402592.405 9 -18203980.72248  20163594.066    20163603.0674
  22637645.642   -11959366.640 8  -9301167.33247  22637646.778    22637658.1374
  23552592.139    -4847703.402 8  -3753993.85446  23552593.820    23552609.2754
  23725950.219    -6557922.599 8  -5084493.93545  23725946.991    23725961.8024
 00  4 23  0 18 30.0000000  0  6 06 17 26 23 09 10
  22558741.542   -12130571.232 8  -9430303.59846  22558742.421    22558755.4124
  20462015.998   -23156837.494 9 -18024443.60348  20462019.758    20462030.0234
  20170596.945   -23365775.389 9 -18175292.13248  20170600.280    20170609.6004
  22627145.210   -12014552.714 8  -9344169.33847  22627145.294    22627156.5314
  23533006.661    -4950602.690 8  -3834174.80546  23533012.812    23533028.4004
  23740622.566    -6480810.126 8  -5024406.38245  23740623.965    23740636.7994
 00  4 23  0 19  0.0000000  0  6 06 17 26 23 09 10
  22574895.844   -12045679.194 8  -9364154.06446  22574897.066    22574909.6854
  20453032.295   -23204055.521 9 -18061236.82648  20453034.183    20453044.8534
  20177703.209   -23328431.249 9 -18146192.79148  20177706.697    20177715.6574
  22616659.631   -12069634.439 8  -9387090.03747  22616663.139    22616674.9404
  23513447.050    -5053400.054 8  -3914276.37946  23513450.344    23513465.8434
  23755309.317    -6403641.550 8  -4964275.07145  23755308.126    23755321.7124
 00  4 23  0 19 30.0000000  0  6 06 17 26 23 09 10
  22591102.346   -11960495.736 8  -9297777.47146  22591106.853    22591119.5604
  20444122.724   -23250877.761 9 -18097721.64648  20444124.428    20444134.8414
  20184909.208   -23290570.291 9 -18116690.73448  20184911.709    20184920.6064
  22606201.709   -12124602.839 8  -9429922.43547  22606203.033    22606213.9284
  23493906.965    -5156094.609 8  -3994297.81146  23493907.906    23493924.4644
  23770004.597    -6326417.477 8  -4904100.53245  23770002.618    23770017.4404
 00  4 23  0 20  0.0000000  0  6 06 17 26 23 09 10
  22607371.252   -11875029.363 8  -9231180.42946  22607370.953    22607383.8964
  20435286.457   -23297293.580 9 -18133889.77548  20435291.671    20435301.4124
  20192207.590   -23252214.712 9 -18086803.25548  20192210.298    20192219.4514
  22595765.698   -12179439.705 8  -9472652.34447  22595767.755    22595779.6144
  23474375.577    -5258686.228 8  -4074239.02246  23474385.850    23474400.9704
  23784704.824    -6249147.880 8  -4843890.55745  23784706.487    23784721.1364
 00  4 23  0 20 30.0000000  0  6 06 17 26 23 09 10
  22623682.440   -11789298.876 8  -9164377.59046  22623684.985    22623698.5824
  20426536.573   -23343292.363 9 -18169732.93948  20426538.407    20426548.9104
  20199597.696   -23213378.847 9 -18056541.53448  20199600.841    20199609.8664
  22585354.888   -12234150.499 8  -9515284.01947  22585356.088    22585368.3914
  23454881.212    -5361176.309 8  -4154101.14146  23454881.777    23454897.4284
  23799418.369    -6171823.849 8  -4783638.13245  23799421.044    23799434.0694
 00  4 23  0 21  0.0000000  0  6 06 17 26 23 09 10
  22640045.175   -11703306.792 8  -9097370.90346  22640048.250    22640062.1784
  20417862.352   -23388880.677 9 -18205256.26448  20417863.693    20417873.9194
  20207079.646   -23174059.230 9 -18025902.86148  20207082.760    20207091.7644
  22574963.932   -12288736.891 8  -9557818.75247  22574967.967    22574980.1854
  23435392.043    -5463561.600 8  -4233881.54646  23435398.603    23435413.1134
  23814150.400    -6094437.291 8  -4723336.96545  23814147.847    23814160.7384
 00  4 23  0 21 30.0000000  0  6 06 17 26 23 09 10
  22656456.213   -11617068.211 8  -9030172.15846  22656459.465    22656472.7914
  20409266.135   -23434044.773 9 -18240449.03648  20409268.812    20409279.3864
  20214655.197   -23134253.284 9 -17994885.23148  20214657.457    20214666.7404
  22564600.698   -12343209.971 8  -9600265.20847  22564602.800    22564614.3984
  23415931.009    -5565828.769 8  -4313569.94046  23415937.085    23415952.5314
  23828882.473    -6016991.392 8  -4662989.57745  23828884.825    23828898.9054
 00  4 23  0 22  0.0000000  0  6 06 17 26 23 09 10
  22672913.213   -11530599.983 8  -8962794.44246  22672914.111    22672927.3084
  20400755.815   -23478761.931 9 -18275293.53848  20400759.410    20400769.3854
  20222323.244   -23093958.613 9 -17963486.77348  20222325.318    20222334.4774
  22554252.853   -12397587.803 8  -9642637.45647  22554254.764    22554266.8374
  23396500.849    -5667977.813 8  -4393166.28046  23396499.002    23396513.4984
  23843633.432    -5939492.525 8  -4602600.95245  23843631.030    23843646.5814
 00  4 23  0 22 30.0000000  0  6 06 17 26 23 09 10
  22689408.093   -11443895.190 8  -8895232.40846  22689413.312    22689426.5684
  20392330.765   -23523043.637 9 -18309798.72848  20392332.863    20392342.8824
  20230085.581   -23053164.887 9 -17931699.44548  20230087.983    20230097.2294
  22543922.509   -12451867.334 8  -9684933.08447  22543925.882    22543937.3804
  23377080.849    -5769999.629 8  -4472663.49346  23377084.722    23377098.8794
  23858392.978    -5861947.469 8  -4542176.33145  23858389.061    23858403.1464
 00  4 23  0 23  0.0000000  0  6 06 17 26 23 09 10
  22705959.179   -11356944.679 8  -8827478.88546  22705959.836    22705972.4074
  20383987.575   -23566892.469 9 -18343966.61748  20383988.722    20383999.0454
  20237944.495   -23011867.936 9 -17899519.99248  20237946.760    20237955.7884
  22533615.428   -12506033.422 8  -9727140.31547  22533618.240    22533630.2594
  23357695.234    -5871888.262 8  -4552056.92946  23357695.580    23357710.6424
  23873142.910    -5784377.514 8  -4481732.24845  23873150.210    23873164.2494
 00  4 23  0 23 30.0000000  0  6 06 17 26 23 09 10
  22722551.928   -11269745.458 8  -8759531.55346  22722553.153    22722566.1504
  20375725.888   -23610294.796 9 -18377786.57848  20375729.567    20375739.3334
  20245894.894   -22970076.146 9 -17866954.95548  20245899.336    20245908.5914
  22523331.508   -12560083.122 8  -9769256.87647  22523333.466    22523345.0144
  23338336.056    -5973643.803 8  -4631346.67246  23338332.460    23338346.4324
  23887912.969    -5706794.854 8  -4421278.25445  23887914.454    23887926.7724
 00  4 23  0 24  0.0000000  0  6 06 17 26 23 09 10
  22739198.070   -11182282.679 8  -8691378.89046  22739196.089    22739210.0694
  20367554.654   -23653240.859 9 -18411251.01448  20367557.342    20367567.0904
  20253942.946   -22927786.698 9 -17834002.12848  20253946.641    20253956.5544
  22513070.703   -12614000.519 8  -9811270.34947  22513072.906    22513084.4044
  23318990.980    -6075275.134 8  -4710539.59646  23318991.374    23319006.3984
  23902663.176    -5629201.517 7  -4360815.98145  23902678.530    23902694.5994
 00  4 23  0 24 30.0000000  0  6 06 17 26 23 09 10
  22755889.944   -11094555.222 8  -8623019.94046  22755890.889    22755904.5794
  20359467.248   -23695733.512 9 -18444362.14248  20359471.018    20359481.0144
  20262087.698   -22884988.904 9 -17800653.19348  20262091.164    20262100.4814
  22502836.211   -12667772.538 8  -9853170.51847  22502839.523    22502852.3414
  23299676.276    -6176774.290 8  -4789629.54846  23299676.454    23299691.7524
  23917450.776    -5551583.815 8  -4300334.77045  23917449.693    23917464.2514
 00  4 23  0 25  0.0000000  0  6 06 17 26 23 09 10
  22772631.500   -11006565.469 8  -8554456.64446  22772634.786    22772649.5174
  20351473.613   -23737753.089 9 -18477104.63048  20351475.197    20351485.0844
  20270325.710   -22841687.250 9 -17766911.64148  20270330.994    20270340.4864
  22492628.667   -12721415.045 8  -9894969.79547  22492632.107    22492644.0684
  23280389.968    -6278130.991 8  -4868608.50846  23280388.914    23280404.0424
  23932221.892    -5473922.076 8  -4239819.21945  23932229.301    23932242.0394
 00  4 23  0 25 30.0000000  0  6 06 17 26 23 09 10
  22789419.869   -10918322.386 8  -8485695.92546  22789426.382    22789441.4024
  20343566.973   -23779293.089 9 -18509473.43348  20343570.602    20343579.8014
  20278662.473   -22797892.942 9 -17732786.20048  20278664.759    20278673.8844
  22482443.968   -12774941.690 8  -9936678.79747  22482446.235    22482457.8984
  23261124.153    -6379339.561 8  -4947472.05846  23261129.463    23261144.4924
  23947022.807    -5396201.082 8  -4179257.40045  23947018.792    23947030.5974
 00  4 23  0 26  0.0000000  0  6 06 17 26 23 09 10
  22806263.743   -10829836.667 8  -8416746.16646  22806265.456    22806279.9254
  20335752.612   -23820361.331 9 -18541474.62348  20335755.080    20335764.9764
  20287090.128   -22753598.414 9 -17698270.97548  20287093.532    20287103.1674
  22472276.937   -12828369.539 8  -9978310.77647  22472278.914    22472290.9834
  23241893.896    -6480392.701 8  -5026214.48146  23241900.178    23241914.1574
  23961817.768    -5318418.030 8  -4118647.24945  23961819.999    23961833.3094
 00  4 23  0 26 30.0000000  0  6 06 17 26 23 09 10
  22823144.906   -10741111.975 8  -8347610.17046  22823149.719    22823163.5314
  20328023.595   -23860975.194 9 -18573121.74748  20328026.565    20328036.6744
  20295611.745   -22708818.685 9 -17663377.67948  20295614.391    20295623.9944
  22462127.633   -12881714.147 8 -10019877.92447  22462128.454    22462140.0944
  23222699.435    -6581273.156 8  -5104822.35246  23222703.087    23222716.9494
  23976636.543    -5240570.123 8  -4057986.64045  23976633.326    23976648.3164
 00  4 23  0 27  0.0000000  0  6 06 17 26 23 09 10
  22840081.397   -10652144.216 8  -8278284.78246  22840079.171    22840093.6184
  20320381.362   -23901135.584 9 -18604415.52148  20320384.100    20320393.9754
  20304224.109   -22663570.516 9 -17628119.35948  20304225.025    20304234.3554
  22451987.979   -12934985.531 8 -10061388.01647  22451991.053    22452002.1744
  23203531.534    -6681989.618 8  -5183302.44046  23203536.915    23203552.0264
  23991450.121    -5162671.781 8  -3997286.71445  23991458.097    23991471.3134
 00  4 23  0 27 30.0000000  0  6 06 17 26 23 09 10
  22857052.614   -10562940.339 8  -8208775.41046  22857054.037    22857068.3014
  20312823.597   -23940851.738 9 -18635363.13548  20312826.637    20312836.3474
  20312921.092   -22617852.591 9 -17592494.99748  20312925.131    20312934.5344
  22441867.000   -12988178.775 8 -10102837.22347  22441868.472    22441878.9424
  23184398.069    -6782556.061 8  -5261665.63946  23184399.183    23184413.3624
  24006289.377    -5084736.424 8  -3936557.91645  24006288.179    24006301.0554
 00  4 23  0 28  0.0000000  0  6 06 17 26 23 09 10
  22874072.742   -10473492.524 8  -8139075.95246  22874075.658    22874089.5544
  20305349.144   -23980127.218 9 -18665967.36148  20305352.744    20305362.2994
  20321716.595   -22571651.385 9 -17556494.04948  20321717.165    20321726.0344
  22431761.207   -13041279.576 8 -10144214.39547  22431763.205    22431774.5814
  23165290.624    -6882974.208 8  -5339913.30446  23165290.636    23165305.0444
  24021123.249    -5006758.680 7  -3875796.07045  24021125.317    24021140.9024
 00  4 23  0 28 30.0000000  0  6 06 17 26 23 09 10
  22891144.228   -10383786.201 8  -8069175.05346  22891146.890    22891161.0734
  20297960.078   -24018957.989 9 -18696225.05748  20297962.902    20297972.8744
  20330597.582   -22524968.793 9 -17520118.00148  20330600.376    20330609.7024
  22421673.157   -13094275.041 8 -10185509.47647  22421678.993    22421690.6594
  23146212.700    -6983243.605 8  -5418045.02246  23146209.634    23146223.6364
  24035967.858    -4928739.223 8  -3815001.78445  24035972.177    24035987.0914
 00  4 23  0 29  0.0000000  0  6 06 17 26 23 09 10
  22908260.732   -10293829.766 8  -7999079.25946  22908264.568    22908277.9414
  20290660.135   -24057329.607 9 -18726124.97948  20290661.550    20290670.9614
  20339573.565   -22477792.654 9 -17483357.36748  20339577.615    20339586.9224
  22411616.684   -13147152.757 9 -10226712.81147  22411617.527    22411627.7764
  23127151.769    -7083370.201 8  -5496065.47546  23127155.456    23127169.8654
  24050828.524    -4850681.139 8  -3754177.41045  24050828.686    24050842.6784
 00  4 23  0 29 30.0000000  0  6 06 17 26 23 09 10
  22925432.235   -10203620.427 8  -7928786.37146  22925430.852    22925443.7434
  20283444.588   -24095245.771 9 -18755670.00048  20283446.156    20283456.0224
  20348648.835   -22430112.108 9 -17446203.69048  20348651.206    20348660.1514
  22401579.309   -13199898.742 9 -10267813.51047  22401580.259    22401590.0114
  23108124.844    -7183339.414 8  -5573963.29546  23108131.865    23108146.0784
  24065690.810    -4772569.166 8  -3693311.01645  24065692.133    24065705.6884
 00  4 23  0 30  0.0000000  0  6 06 17 26 23 09 10
  22942639.797   -10113161.841 8  -7858299.28846  22942645.307    22942659.5594
  20276314.378   -24132708.023 9 -18784861.32148  20276317.402    20276327.3994
  20357815.046   -22381935.926 9 -17408663.81248  20357818.682    20357827.5374
  22391562.099   -13252518.635 8 -10308815.96547  22391565.794    22391576.3754
  23089138.396    -7283138.073 8  -5651728.23246  23089140.779    23089154.6724
  24080566.625    -4694405.467 7  -3632404.31345  24080564.437    24080579.4234
 00  4 23  0 30 30.0000000  0  6 06 17 26 23 09 10
  22959896.973   -10022477.376 8  -7787636.22046  22959902.097    22959915.8154
  20269271.465   -24169721.927 9 -18813703.28048  20269273.791    20269283.6554
  20367075.749   -22333280.876 9 -17370750.78048  20367077.331    20367087.0234
  22381573.660   -13305022.289 8 -10349727.81947  22381574.861    22381585.4004
  23070188.395    -7382754.422 8  -5729351.09346  23070184.506    23070198.7704
  24095443.655    -4616205.578 7  -3571469.43045  24095445.716    24095460.7554
 00  4 23  0 31  0.0000000  0  6 06 17 26 23 09 10
  22977197.734    -9931590.946 8  -7716815.76646  22977197.350    22977210.8114
  20262312.010   -24206288.073 9 -18842196.33248  20262315.576    20262325.0374
  20376419.319   -22284175.313 9 -17332486.70148  20376421.578    20376430.9834
  22371603.984   -13357409.291 8 -10390548.77847  22371605.297    22371616.2794
  23051257.527    -7482186.700 8  -5806830.54446  23051262.629    23051276.9024
  24110334.584    -4537967.595 8  -3510504.85945  24110336.023    24110349.0354
 00  4 23  0 31 30.0000000  0  6 06 17 26 23 09 10
  22994526.372    -9840515.814 8  -7645848.29346  22994527.594    22994542.3574
  20255441.052   -24242401.740 9 -18870336.81048  20255443.253    20255452.8924
  20385844.151   -22234642.549 9 -17293889.73748  20385847.537    20385856.8374
  22361652.926   -13409692.043 8 -10431288.51547  22361656.297    22361667.1604
  23032374.793    -7581425.298 8  -5884159.06146  23032377.660    23032392.0244
  24125234.225    -4459683.436 8  -3449504.27745  24125232.419    24125246.5684
 00  4 23  0 32  0.0000000  0  6 06 17 26 23 09 10
  23011887.670    -9749277.887 8  -7574753.92346  23011890.507    23011903.8654
  20248656.778   -24278049.983 9 -18898114.61148  20248659.512    20248669.3814
  20395348.973   -22184698.308 9 -17254972.13748  20395351.665    20395361.1744
  22351719.509   -13461888.796 8 -10471961.21847  22351723.633    22351734.3074
  23013524.922    -7680470.976 8  -5961337.23146  23013530.117    23013544.1494
  24140141.661    -4381353.134 8  -3388467.81145  24140136.888    24140152.5474
 00  4 23  0 32 30.0000000  0  6 06 17 26 23 09 10
  23029286.064    -9657880.175 8  -7503535.07146  23029282.760    23029297.4574
  20241964.903   -24313216.392 9 -18925516.96548  20241967.502    20241977.3664
  20404932.464   -22134341.212 9 -17215732.83648  20404934.289    20404943.5614
  22341808.738   -13513990.260 8 -10512559.69347  22341809.047    22341820.2484
  22994712.839    -7779314.913 8  -6038358.21746  22994721.071    22994734.0044
  24155046.407    -4302965.820 7  -3327386.90145  24155053.807    24155068.6144
 00  4 23  0 33  0.0000000  0  6 06 17 26 23 09 10
  23046703.546    -9566312.248 8  -7432183.58146  23046707.964    23046721.6704
  20235368.056   -24347878.126 9 -18952526.06648  20235371.382    20235381.1924
  20414594.034   -22083561.396 9 -17176164.15348  20414597.417    20414606.7944
  22331910.835   -13565991.372 8 -10553079.96547  22331913.851    22331925.0864
  22975949.219    -7877963.067 8  -6115226.66546  22975947.758    22975961.3944
  24169984.073    -4224508.337 8  -3266251.28745  24169985.325    24169997.1274
 00  4 23  0 33 30.0000000  0  6 06 17 26 23 09 10
  23064162.244    -9474572.279 8  -7360698.03546  23064165.699    23064179.4074
  20228871.691   -24382024.777 9 -18979133.80648  20228873.931    20228883.3584
  20424343.471   -22032326.962 9 -17136241.21448  20424347.004    20424356.4534
  22322035.255   -13617889.463 9 -10593519.94747  22322037.950    22322048.8614
  22957207.119    -7976419.960 8  -6191946.08346  22957211.325    22957225.7484
  24184928.787    -4145987.251 8  -3205066.10045  24184927.609    24184940.4854
 00  4 23  0 34  0.0000000  0  6 06 17 26 23 09 10
  23081656.040    -9382644.343 8  -7289066.03446  23081659.620    23081672.9754
  20222469.058   -24415665.776 9 -19005347.53048  20222471.852    20222481.7454
  20434184.185   -21980617.602 9 -17095948.20348  20434187.057    20434196.2794
  22312182.434   -13669671.421 8 -10633869.43147  22312183.573    22312195.1784
  22938503.834    -8074692.275 8  -6268521.65746  22938510.701    22938524.6884
  24199874.775    -4067420.286 8  -3143845.17545  24199877.776    24199891.3344
 00  4 23  0 34 30.0000000  0  6 06 17 26 23 09 10
  23099189.767    -9290514.567 8  -7217276.75746  23099190.963    23099204.0174
  20216165.602   -24448797.607 9 -19031164.49948  20216167.318    20216176.8334
  20444114.293   -21928432.523 9 -17055284.50648  20444117.312    20444126.7814
  22302354.014   -13721319.039 9 -10674114.23847  22302355.910    22302366.2794
  22919844.040    -8172774.564 8  -6344949.13146  22919845.467    22919860.0364
  24214825.979    -3988826.704 7  -3082603.50445  24214834.281    24214848.6554
 00  4 23  0 35  0.0000000  0  6 06 17 26 23 09 10
  23116761.638    -9198183.180 8  -7145330.36846  23116762.041    23116773.5234
  20209956.483   -24481425.706 9 -19056588.95148  20209958.341    20209967.7884
  20454136.900   -21875772.376 9 -17014250.62448  20454138.288    20454147.8304
  22292549.664   -13772838.261 8 -10714259.00547  22292551.491    22292562.2054
  22901219.090    -8270668.530 8  -6421229.89546  22901218.486    22901230.6704
  24229792.831    -3910211.945 8  -3021345.38545  24229793.099    24229807.3404
 00  4 23  0 35 30.0000000  0  6 06 17 26 23 09 10
  23134368.981    -9105653.238 8  -7073229.25446  23134369.294    23134382.4814
  20203837.782   -24513566.139 9 -19081633.40548  20203842.349    20203851.8074
  20464245.164   -21822645.234 9 -16972852.85448  20464247.924    20464257.4964
  22282769.777   -13824239.474 9 -10754311.80347  22282770.561    22282781.3714
  22882628.263    -8368359.651 8  -6497352.60446  22882628.312    22882641.0064
  24244756.617    -3831577.137 8  -2960071.52745  24244758.362    24244770.6844
 00  4 23  0 36  0.0000000  0  6 06 17 26 23 09 10
  23152008.797    -9012920.028 8  -7000969.76746  23152014.737    23152029.1814
  20197813.740   -24545232.558 9 -19106308.49948  20197816.282    20197826.0324
  20474444.255   -21769057.984 9 -16931096.55648  20474445.350    20474454.6904
  22273006.164   -13875535.153 9 -10794282.38347  22273009.603    22273020.5674
  22864071.511    -8465829.272 8  -6573302.72146  22864079.111    22864092.6694
  24259725.953    -3752917.589 7  -2898778.46345  24259725.209    24259739.0764
 00  4 23  0 36 30.0000000  0  6 06 17 26 23 09 10
  23169690.460    -8920001.212 8  -6928565.64046  23169696.464    23169711.8154
  20191879.306   -24576415.042 9 -19130606.49048  20191882.181    20191892.4724
  20484727.204   -21715021.310 9 -16888990.06148  20484728.365    20484737.5924
  22263265.884   -13926732.833 9 -10834176.59247  22263266.650    22263278.0244
  22845571.279    -8563070.758 8  -6649075.09946  22845575.083    22845588.8484
  24274697.951    -3674221.089 7  -2837456.61545  24274700.679    24274715.2784
 00  4 23  0 37  0.0000000  0  6 06 17 26 23 09 10
  23187411.692    -8826901.124 8  -6856020.30346  23187414.060    23187429.1154
  20186036.010   -24607119.398 9 -19154531.93348  20186039.198    20186049.0974
  20495093.736   -21660533.927 9 -16846532.36948  20495096.779    20495106.3414
  22253539.035   -13977840.846 8 -10874000.93147  22253540.717    22253551.9214
  22827110.489    -8660088.726 8  -6724673.25846  22827112.931    22827125.6824
  24289688.231    -3595476.657 8  -2776097.43245  24289686.394    24289700.9254
 00  4 23  0 37 30.0000000  0  6 06 17 26 23 09 10
  23205161.696    -8733621.002 8  -6783334.65646  23205165.144    23205178.2684
  20180285.867   -24637340.564 9 -19178080.86148  20180288.590    20180298.1754
  20505547.458   -21605611.883 9 -16803735.97348  20505548.394    20505557.5214
  22243832.622   -14028849.721 9 -10913748.02047  22243834.277    22243845.0624
  22808694.198    -8756886.568 8  -6800099.93146  22808692.516    22808705.7744
  24304677.084    -3516692.108 8  -2714706.96445  24304679.402    24304693.4864
 00  4 23  0 38  0.0000000  0  6 06 17 26 23 09 10
  23222942.343    -8640173.049 8  -6710518.19246  23222946.924    23222960.2144
  20174628.687   -24667070.352 9 -19201246.90148  20174631.050    20174641.0464
  20516074.632   -21550270.143 9 -16760612.54048  20516079.116    20516088.5534
  22234146.887   -14079752.572 9 -10953412.48547  22234147.750    22234158.6264
  22790311.019    -8853467.614 8  -6875357.67846  22790314.685    22790326.9914
  24319682.539    -3437869.511 8  -2653286.81145  24319678.060    24319691.6384
 00  4 23  0 38 30.0000000  0  6 06 17 26 23 09 10
  23240761.264    -8546573.427 8  -6637583.57746  23240758.458    23240772.7074
  20169068.587   -24696290.637 9 -19224015.91448  20169070.582    20169080.1834
  20526682.424   -21494534.415 9 -16717182.11448  20526685.709    20526695.0074
  22224480.889   -14130537.127 9 -10992984.77847  22224484.013    22224494.5904
  22771968.350    -8949824.452 8  -6950440.71346  22771977.066    22771990.6824
  24334687.849    -3359003.550 7  -2591832.94445  24334684.961    24334700.2194
 00  4 23  0 39  0.0000000  0  6 06 17 26 23 09 10
  23258601.340    -8452818.391 8  -6564527.88946  23258599.560    23258613.5024
  20163605.609   -24724999.637 9 -19246386.52548  20163607.535    20163617.0934
  20537362.742   -21438410.082 9 -16673448.87548  20537364.949    20537374.6624
  22214840.104   -14181206.270 9 -11032467.16447  22214841.893    22214852.6974
  22753681.894    -9045946.219 8  -7025340.58746  22753686.772    22753698.6904
  24349701.609    -3280094.871 7  -2530345.74345  24349701.709    24349715.6564
 00  4 23  0 39 30.0000000  0  6 06 17 26 23 09 10
  23276470.154    -8358921.607 8  -6491361.73246  23276469.309    23276482.7274
  20158238.129   -24753198.949 9 -19268359.97148  20158240.836    20158250.8934
  20548117.096   -21381893.103 9 -16629409.67548  20548120.469    20548129.6504
  22205217.731   -14231760.419 8 -11071859.91447  22205220.705    22205232.3584
  22735443.376    -9141812.188 8  -7100041.10746  22735443.130    22735455.9244
  24364718.588    -3201140.279 7  -2468822.77445  24364725.868    24364740.5674
 00  4 23  0 40  0.0000000  0  6 06 17 26 23 09 10
  23294361.355    -8264889.021 8  -6418089.75346  23294362.091    23294376.9224
  20152970.312   -24780882.448 9 -19289931.49748  20152972.937    20152982.9414
  20558950.960   -21324968.168 9 -16585052.59248  20558953.012    20558961.9424
  22195620.500   -14282207.908 9 -11111169.56447  22195621.884    22195633.1594
  22717244.856    -9237408.886 8  -7174531.83046  22717251.283    22717263.9934
  24379754.105    -3122129.704 7  -2407256.18445  24379761.496    24379776.1084
 00  4 23  0 40 30.0000000  0  6 06 17 26 23 09 10
  23312281.885    -8170707.592 8  -6344701.77446  23312284.172    23312299.0064
  20147803.861   -24808037.515 9 -19311091.25148  20147805.808    20147815.3794
  20569865.281   -21267608.181 9 -16540356.50548  20569867.950    20569877.6064
  22186040.164   -14332542.137 9 -11150390.96647  22186043.726    22186054.6594
  22699106.694    -9332735.128 8  -7248811.83546  22699111.740    22699123.9224
  24394790.230    -3043067.439 7  -2345649.32545  24394805.016    24394820.7704
 00  4 23  0 41  0.0000000  0  6 06 17 26 23 09 10
  23330236.143    -8076365.817 8  -6271188.88146  23330236.855    23330251.4274
  20142735.042   -24834667.889 9 -19331842.15948  20142737.782    20142747.7324
  20580863.658   -21209798.301 9 -16495309.84248  20580868.927    20580878.0354
  22176483.486   -14382764.985 9 -11189525.57547  22176486.216    22176497.4184
  22681019.754    -9427804.000 8  -7322891.27946  22681020.277    22681033.7364
  24409862.803    -2963958.482 7  -2284006.10045  24409860.361    24409874.3994
 00  4 23  0 41 30.0000000  0  6 06 17 26 23 09 10
  23348218.420    -7981863.683 8  -6197551.02046  23348220.553    23348235.5664
  20137767.712   -24860768.038 9 -19352179.89848  20137771.286    20137781.2074
  20591952.749   -21151535.547 9 -16449910.29448  20591956.113    20591964.9934
  22166946.495   -14432868.731 8 -11228567.36947  22166950.927    22166962.3904
  22662973.409    -9522623.633 8  -7396776.48246  22662976.671    22662989.6204
  24424924.909    -2884801.082 7  -2222325.11745  24424923.802    24424938.2024
 00  4 23  0 42  0.0000000  0  6 06 17 26 23 09 10
  23366231.783    -7887198.127 8  -6123785.79746  23366234.220    23366248.4384
  20132904.148   -24886333.499 9 -19372100.99948  20132906.308    20132915.8834
  20603126.879   -21092829.233 9 -16404165.12048  20603128.068    20603136.6434
  22157436.776   -14482850.808 8 -11267514.36147  22157439.704    22157451.4324
  22644973.415    -9617210.570 8  -7470480.37846  22644977.480    22644990.5834
  24439985.945    -2805599.828 7  -2160609.96445  24439995.566    24440010.6184
 00  4 23  0 42 30.0000000  0  6 06 17 26 23 09 10
  23384273.435    -7792373.799 8  -6049896.85446  23384279.032    23384293.6334
  20128139.615   -24911374.589 9 -19391613.50148  20128141.562    20128150.3924
  20614377.490   -21033693.709 9 -16358085.48348  20614380.577    20614389.5664
  22147949.413   -14532706.656 9 -11306363.00147  22147952.724    22147964.2154
  22627014.655    -9711572.728 8  -7544009.11646  22627019.241    22627033.1774
  24455084.042    -2726355.049 7  -2098860.90545  24455075.857    24455089.5024
 00  4 23  0 43  0.0000000  0  6 06 17 26 23 09 10
  23402351.720    -7697402.554 8  -5975893.43946  23402351.756    23402366.4094
  20123470.566   -24935901.481 9 -19410725.32648  20123473.772    20123483.3044
  20625706.732   -20974160.301 9 -16311695.79748  20625709.041    20625718.4154
  22138482.775   -14582449.490 9 -11345123.59047  22138486.593    22138498.1854
  22609111.557    -9805701.391 8  -7617355.94446  22609108.322    22609120.6934
  24470161.428    -2647071.344 7  -2037081.50945  24470162.010    24470177.4194
 00  4 23  0 43 30.0000000  0  6 06 17 26 23 09 10
  23420444.463    -7602293.607 8  -5901782.73246  23420450.436    23420464.7614
  20118900.334   -24959925.328 9 -19429445.17248  20118902.412    20118911.5404
  20637111.240   -20914232.159 9 -16264998.53948  20637113.105    20637122.5264
  22129038.941   -14632083.835 8 -11383799.62947  22129040.926    22129052.5734
  22591237.372    -9899578.385 8  -7690506.68146  22591244.236    22591255.8274
  24485256.693    -2567742.666 7  -1975267.07745  24485259.101    24485273.0744
 00  4 23  0 44  0.0000000  0  6 06 17 26 23 09 10
  23438573.615    -7507051.178 8  -5827567.98446  23438574.883    23438588.1754
  20114422.614   -24983453.723 9 -19447778.95148  20114425.166    20114434.3294
  20648590.968   -20853911.574 9 -16217995.49148  20648592.227    20648601.4864
  22119614.986   -14681612.906 9 -11422393.63447  22119616.119    22119627.1454
  22573425.423    -9993194.077 8  -7763453.77046  22573429.057    22573441.9094
  24500364.580    -2488376.463 7  -1913423.40745  24500360.871    24500374.9994
 00  4 23  0 44 30.0000000  0  6 06 17 26 23 09 10
  23456717.140    -7411672.119 8  -5753246.76246  23456724.519    23456738.0844
  20110039.989   -25006482.144 9 -19465723.13048  20110042.774    20110052.1684
  20660140.808   -20793199.236 9 -16170687.16648  20660145.054    20660154.5204
  22110207.749   -14731043.596 9 -11460911.00447  22110210.698    22110220.6764
  22555660.347   -10086532.118 8  -7836184.49146  22555667.061    22555680.1594
  24515473.623    -2408976.903 7  -1851553.76245  24515470.902    24515483.5344
 00  4 23  0 45  0.0000000  0  6 06 17 26 23 09 10
  23474903.769    -7316163.297 8  -5678824.41945  23474900.657    23474913.0974
  20105752.351   -25029009.933 9 -19483277.21648  20105755.876    20105765.4634
  20671771.319   -20732090.560 9 -16123070.01148  20671773.682    20671783.0814
  22100820.625   -14780380.022 9 -11499354.91847  22100822.271    22100832.4844
  22537954.949   -10179582.295 8  -7908690.91646  22537960.216    22537973.7264
  24530584.888    -2329544.496 7  -1789658.51045  24530586.475    24530600.9214
 00  4 23  0 45 30.0000000  0  6 06 17 26 23 09 10
  23493091.206    -7220534.516 8  -5604308.64245  23493097.385    23493111.6164
  20101564.470   -25051031.936 9 -19500437.19348  20101565.660    20101574.8564
  20683476.914   -20670571.107 9 -16075132.75548  20683480.273    20683490.0444
  22091448.583   -14829612.944 8 -11537718.17847  22091452.747    22091464.4324
  22520310.223   -10272349.715 8  -7980977.03746  22520308.145    22520319.7124
  24545709.421    -2250062.813 7  -1727724.86645  24545712.028    24545725.2324
 00  4 23  0 46  0.0000000  0  6 06 17 26 23 09 10
  23511310.870    -7124797.600 8  -5529708.57645  23511315.258    23511329.9164
  20097473.322   -25072524.115 9 -19517184.30848  20097475.548    20097484.5894
  20695260.168   -20608655.771 9 -16026887.03048  20695262.910    20695272.1434
  22082096.612   -14878752.076 8 -11576008.34547  22082101.767    22082113.6214
  22502704.639   -10364837.499 8  -8053045.25146  22502707.689    22502719.6074
  24560843.676    -2170544.856 7  -1665762.98145  24560844.358    24560858.3954
 00  4 23  0 46 30.0000000  0  6 06 17 26 23 09 10
  23529545.569    -7028957.618 8  -5455028.21345  23529553.409    23529566.7204
  20093483.127   -25093485.124 9 -19533517.53248  20093486.631    20093496.0594
  20707117.191   -20546358.448 9 -15978343.66048  20707118.061    20707126.7214
  22072765.804   -14927804.521 9 -11614230.96947  22072767.511    22072778.9374
  22485153.680   -10457045.024 8  -8124895.05246  22485159.584    22485172.7594
  24575984.896    -2090981.072 7  -1603765.32845  24575984.141    24575998.1114
 00  4 23  0 47  0.0000000  0  6 06 17 26 23 09 10
  23547805.541    -6933018.547 8  -5380270.61045  23547809.996    23547824.7344
  20089597.010   -25113913.832 9 -19549435.97348  20089599.179    20089608.6974
  20719044.059   -20483682.823 9 -15929505.50448  20719044.472    20719053.2814
  22063448.877   -14976764.570 9 -11652381.60047  22063450.977    22063461.9684
  22467659.591   -10548971.423 8  -8196525.82946  22467667.284    22467679.0804
  24591137.776    -2011368.251 7  -1541729.52145  24591132.406    24591148.3674
 00  4 23  0 47 30.0000000  0  6 06 17 26 23 09 10
  23566087.356    -6836975.221 8  -5305431.79546  23566086.286    23566100.1184
  20085812.802   -25133796.894 9 -19564929.23248  20085815.411    20085824.9824
  20731038.972   -20420633.265 9 -15880375.96648  20731041.707    20731051.3944
  22054150.791   -15025628.763 9 -11690457.53947  22054152.773    22054163.4314
  22450225.824   -10640617.965 8  -8267938.53146  22450228.335    22450239.5564
  24606290.490    -1931713.089 7  -1479660.71644  24606288.770    24606305.7184
 00  4 23  0 48  0.0000000  0  6 06 17 26 23 09 10
  23584378.225    -6740821.628 8  -5230507.02745  23584384.042    23584398.3044
  20082134.061   -25153129.517 9 -19579993.58748  20082136.441    20082146.0564
  20743107.101   -20357221.353 9 -15830964.07948  20743108.861    20743118.2924
  22044871.107   -15074392.859 9 -11728455.46447  22044872.562    22044884.0634
  22432839.760   -10731980.546 8  -8339129.96246  22432841.898    22432854.0674
  24621462.629    -1852029.871 7  -1417570.00245  24621454.516    24621470.6364
 00  4 23  0 48 30.0000000  0  6 06 17 26 23 09 10
  23602706.437    -6644553.332 8  -5155492.90346  23602704.268    23602719.1904
  20078558.282   -25171928.109 9 -19594641.81148  20078559.205    20078569.2054
  20755242.462   -20293442.606 9 -15781266.35048  20755245.688    20755254.8054
  22035611.616   -15123036.039 8 -11766359.16347  22035615.038    22035627.5814
  22415507.794   -10823064.837 8  -8410104.56846  22415509.036    22415520.9624
  24636620.749    -1772307.641 7  -1355448.90145  24636625.701    24636640.5554
 00  4 23  0 49  0.0000000  0  6 06 17 26 23 09 10
  23621036.662    -6548185.186 8  -5080401.00946  23621041.391    23621056.4494
  20075081.569   -25190178.593 9 -19608862.94248  20075086.089    20075095.9954
  20767452.248   -20229287.630 9 -15731275.45447  20767453.839    20767462.8694
  22026382.937   -15171541.935 9 -11804155.89847  22026385.948    22026396.1754
  22398227.719   -10913870.112 8  -8480861.73946  22398228.638    22398241.0054
  24651805.279    -1692555.164 7  -1293304.24845  24651802.006    24651817.5444
 00  4 23  0 49 30.0000000  0  6 06 17 26 23 09 10
  23639398.212    -6451721.688 8  -5005234.78345  23639398.334    23639411.6674
  20071716.153   -25207873.462 9 -19622651.12548  20071718.836    20071728.4354
  20779730.918   -20164761.720 9 -15680995.53047  20779732.604    20779741.6344
  22017181.271   -15219903.706 9 -11841840.34847  22017182.662    22017192.7024
  22380998.583   -11004395.851 8  -8551401.09046  22381002.531    22381014.2434
  24666980.102    -1612774.001 7  -1231137.22545  24666981.940    24666998.7174
 00  4 23  0 50  0.0000000  0  6 06 17 26 23 09 10
  23657762.579    -6355170.646 8  -4930000.31145  23657771.549    23657785.8964
  20068453.814   -25225022.144 9 -19636013.70148  20068455.749    20068465.3014
  20792074.793   -20099872.253 9 -15630432.30147  20792080.625    20792089.8764
  22008003.252   -15268128.718 9 -11879418.21547  22008005.402    22008016.4484
  22363831.939   -11094626.166 8  -8621710.25246  22363831.304    22363843.7644
  24682183.282    -1532958.978 7  -1168943.82744  24682171.932    24682186.1864
 00  4 23  0 50 30.0000000  0  6 06 17 26 23 09 10
  23676165.893    -6258538.646 8  -4854702.77646  23676160.843    23676175.1874
  20065292.012   -25241625.806 9 -19648951.59148  20065296.079    20065305.6974
  20804500.772   -20034607.984 9 -15579577.03347  20804500.374    20804509.2034
  21998851.467   -15316219.126 9 -11916891.19047  21998853.880    21998865.1954
  22346716.959   -11184540.949 8  -8691773.52746  22346720.752    22346733.7834
  24697356.214    -1453105.581 7  -1106720.52344  24697368.461    24697383.6014
 00  4 23  0 51  0.0000000  0  6 06 17 26 23 09 10
  23694568.393    -6161820.385 8  -4779338.01846  23694565.094    23694581.2034
  20062241.917   -25257668.707 9 -19661452.52148  20062243.294    20062252.4484
  20816989.337   -19968962.330 9 -15528424.56547  20816992.622    20817001.5704
  21989723.373   -15364190.512 9 -11954271.43147  21989725.622    21989736.3554
  22329677.912   -11274115.246 8  -8761571.49146  22329675.765    22329687.9484
  24712567.380    -1373220.512 7  -1044472.51045  24712568.957    24712586.7964
 00  4 23  0 51 30.0000000  0  6 06 17 26 23 09 10
  23712981.542    -6064999.077 8  -4703892.96345  23712989.628    23713004.5214
  20059291.481   -25273160.898 9 -19673524.32748  20059294.908    20059304.5054
  20829552.096   -19902944.431 9 -15476982.05447  20829555.107    20829564.3634
  21980613.766   -15412066.141 9 -11991577.06147  21980615.458    21980626.0504
  22312697.712   -11363333.979 8  -8831092.39647  22312698.219    22312710.1634
  24727787.679    -1293293.739 7   -982192.01545  24727779.531    24727794.8214
 00  4 23  0 52  0.0000000  0  6 06 17 26 23 09 10
  23731432.490    -5968083.340 8  -4628374.33945  23731432.565    23731446.6814
  20056447.421   -25288115.450 9 -19685177.19448  20056449.520    20056458.8424
  20842187.531   -19836551.288 9 -15425247.14047  20842188.952    20842198.1324
  21971520.716   -15459852.398 9 -12028813.04547  21971522.096    21971532.1274
  22295784.174   -11452197.779 8  -8900336.75746  22295786.902    22295799.7064
  24742990.886    -1213316.697 7   -919872.39044  24742997.341    24743014.1454
 00  4 23  0 52 30.0000000  0  6 06 17 26 23 09 10
  23749891.633    -5871074.942 8  -4552783.51045  23749892.362    23749907.1794
  20053704.457   -25302525.433 9 -19696405.71748  20053707.361    20053716.6584
  20854893.592   -19769780.105 9 -15373217.64747  20854895.116    20854904.3374
  21962447.504   -15507537.043 9 -12065969.86447  21962447.710    21962457.6674
  22278938.334   -11540724.934 8  -8969318.75847  22278941.656    22278953.2354
  24758221.588    -1133291.802 7   -857515.42944  24758227.535    24758243.6384
 00  4 23  0 53  0.0000000  0  6 06 17 26 23 09 10
  23768366.164    -5773977.089 8  -4477122.95645  23768369.208    23768384.1854
  20051065.623   -25316391.527 9 -19707210.43548  20051068.424    20051078.0614
  20867665.756   -19702652.988 9 -15320910.80747  20867669.520    20867678.1204
  21953389.441   -15555130.348 9 -12103055.48847  21953391.205    21953401.4894
  22262150.419   -11628938.316 8  -9038056.29947  22262155.228    22262166.8734
  24773467.270    -1053222.788 7   -795124.11944  24773462.467    24773479.4764
 00  4 23  0 53 30.0000000  0  6 06 17 26 23 09 10
  23786857.183    -5676816.515 8  -4401413.55645  23786858.776    23786874.0224
  20048530.241   -25329718.729 9 -19717595.23448  20048532.760    20048542.1894
  20880502.870   -19635185.479 9 -15268338.72747  20880507.955    20880516.5964
  21944350.047   -15602622.695 9 -12140062.45647  21944353.383    21944363.3304
  22245422.061   -11716854.411 8  -9106562.19446  22245424.041    22245436.2124
  24788703.592     -973105.145 7   -732694.91044  24788711.541    24788725.1934
 00  4 23  0 54  0.0000000  0  5 06 17 26 23 09
  23805356.146    -5579617.788 8  -4325674.41745  23805354.689    23805370.7574
  20046097.470   -25342495.220 9 -19727550.91348  20046101.037    20046110.8734
  20893405.701   -19567378.653 9 -15215502.24047  20893411.029    20893420.3384
  21935335.020   -15649996.706 8 -12176977.21547  21935337.925    21935348.7014
  22228747.769   -11804475.831 8  -9174838.45846  22228750.912    22228762.8054
 00  4 23  0 54 30.0000000  0  5 06 17 26 23 09
  23823844.273    -5482382.931 8  -4249907.14745  23823857.184    23823873.9784
  20043774.148   -25354701.702 9 -19737062.42748  20043778.164    20043787.7454
  20906373.111   -19499242.092 9 -15162408.82147  20906377.051    20906386.2244
  21926338.055   -15697265.830 9 -12213810.21147  21926342.658    21926353.6474
  22212135.441   -11891786.501 8  -9242872.59047  22212136.407    22212148.0824
 00  4 23  0 55  0.0000000  0  5 06 17 26 23 09
  23842365.285    -5385114.826 8  -4174113.94245  23842367.738    23842382.9914
  20041564.153   -25366324.237 9 -19746118.92148  20041566.454    20041575.9414
  20919402.809   -19430778.635 9 -15109060.67747  20919404.982    20919414.1534
  21917364.511   -15744440.746 9 -12250569.82447  21917366.132    21917376.6984
  22195582.447   -11978760.090 8  -9310644.06446  22195585.323    22195596.5174
 00  4 23  0 55 30.0000000  0  5 06 17 26 23 09
  23860880.054    -5287811.087 8  -4098292.99045  23860884.181    23860900.7914
  20039462.823   -25377364.878 9 -19754721.99248  20039465.427    20039475.1944
  20932493.170   -19361972.946 9 -15055445.86047  20932498.010    20932507.4614
  21908406.397   -15791503.685 9 -12287242.16347  21908410.296    21908420.7504
  22179101.462   -12065375.049 8  -9378136.11346  22179102.977    22179113.5374
 00  4 23  0 56  0.0000000  0  5 06 17 26 23 09
  23879391.306    -5190443.285 7  -4022422.14545  23879410.825    23879429.0564
  20037470.219   -25387824.905 9 -19762872.63748  20037474.803    20037484.4934
  20945656.166   -19292819.530 9 -15001560.09647  20945658.298    20945667.3184
  21899472.424   -15838459.712 9 -12323831.20647  21899475.015    21899484.9484
  22162687.331   -12151626.528 8  -9445344.90247  22162690.073    22162700.9994
 00  4 23  0 56 30.0000000  0  5 06 17 26 23 09
  23897948.428    -5092992.061 8  -3946486.29545  23897957.456    23897972.6174
  20035591.094   -25397709.997 9 -19770575.27548  20035593.597    20035603.3194
  20958878.996   -19223320.058 9 -14947404.68247  20958883.328    20958892.3454
  21890557.964   -15885310.299 9 -12360338.09147  21890559.598    21890569.8054
  22146342.401   -12237514.708 8  -9512270.60947  22146345.984    22146356.8674
 00  4 23  0 57  0.0000000  0  5 06 17 26 23 09
  23916515.454    -4995455.786 8  -3870484.12945  23916518.597    23916533.3014
  20033818.538   -25407028.446 9 -19777836.37648  20033820.797    20033830.2634
  20972171.681   -19153464.122 9 -14892971.48447  20972176.138    20972185.7034
  21881665.584   -15932030.944 9 -12396743.70547  21881668.671    21881679.1234
  22130068.706   -12323047.648 8  -9578919.48947  22130069.854    22130081.1434
 00  4 23  0 57 30.0000000  0  5 06 17 26 23 09
  23935093.274    -4897837.622 8  -3794418.18645  23935093.911    23935108.6044
  20032150.124   -25415794.824 9 -19784667.29348  20032152.557    20032161.9514
  20985533.545   -19083245.364 9 -14838255.56447  20985538.551    20985547.6644
  21872799.752   -15978618.592 9 -12433045.68947  21872802.868    21872814.0084
  22113855.122   -12408240.720 8  -9645303.55047  22113857.779    22113869.3644
 00  4 23  0 58  0.0000000  0  6 06 17 26 03 23 09
  23953669.026    -4800143.985 7  -3718293.42245  23953683.112    23953700.0894
  20030588.647   -25423995.872 9 -19791057.69548  20030591.709    20030601.0574
  20998965.469   -19012677.258 9 -14783267.42947  20998967.151    20998976.2054
  24637958.175     -900226.72817   -695295.37455  24637955.645    24637968.7404
  21863958.325   -16025084.716 9 -12469252.96347  21863960.333    21863971.0294
  22097711.832   -12493087.525 8  -9711417.77947  22097711.994    22097722.8884
 00  4 23  0 58 30.0000000  0  6 06 17 26 03 23 09
  23972276.055    -4702399.850 7  -3642129.33145  23972284.386    23972302.2544
  20029136.500   -25431627.785 9 -19797004.61848  20029139.580    20029148.8314
  21012461.717   -18941761.052 9 -14728008.05247  21012462.349    21012471.1214
  24630289.138     -940525.444 7   -726696.86345  24630285.525    24630299.1024
  21855144.499   -16071418.739 9 -12505357.31247  21855144.154    21855153.6844
  22081625.711   -12577579.076 8  -9777255.21247  22081634.078    22081644.8314
 00  4 23  0 59  0.0000000  0  6 06 17 26 03 23 09
  23990889.025    -4604618.607 8  -3565936.36045  23990892.222    23990908.0064
  20027790.853   -25438695.694 9 -19802512.05448  20027794.332    20027803.8684
  21026019.263   -18870501.370 9 -14672481.03047  21026022.400    21026031.8304
  24622697.762     -980351.203 7   -757729.84445  24622706.139    24622721.4704
  21846350.368   -16117625.558 9 -12541362.56747  21846351.544    21846361.1174
  22065625.803   -12661717.239 8  -9842817.26947  22065622.801    22065633.5754
 00  4 23  0 59 30.0000000  0  6 06 17 26 03 23 09
  24009502.287    -4506807.748 8  -3489720.25145  24009506.553    24009521.5224
  20026553.878   -25445205.493 9 -19807584.60848  20026555.783    20026565.0264
  21039640.455   -18798925.834 9 -14616707.88747  21039642.618    21039651.9224
  24615209.082    -1019701.500 7   -788392.34645  24615217.320    24615232.6114
  21837575.071   -16163722.405 9 -12577282.10447  21837579.207    21837589.3234
  22049673.386   -12745494.322 8  -9908098.00047  22049680.093    22049690.8834
 00  4 23  1  0  0.0000000  0  6 06 17 26 03 23 09
  24028123.674    -4408974.688 8  -3413486.87145  24028122.683    24028136.4824
  20025420.153   -25451156.426 9 -19812221.67948  20025423.305    20025432.5464
  21053315.854   -18727058.383 9 -14560707.28047  21053318.476    21053328.2974
  24607826.446    -1058563.540 7   -818674.38245  24607823.523    24607837.4034
  21828827.442   -16209709.771 9 -12613116.33647  21828828.185    21828838.3104
  22033808.285   -12828901.000 8  -9973090.06447  22033808.187    22033819.4684
 00  4 23  1  0 30.0000000  0  6 06 17 26 03 23 09
  24046740.696    -4311127.706 7  -3337242.62145  24046740.834    24046755.7254
  20024394.306   -25456552.088 9 -19816426.06548  20024396.239    20024406.1144
  21067046.452   -18654904.474 9 -14504483.46547  21067049.366    21067058.5804
  24600514.405    -1096928.985 7   -848569.48845  24600522.585    24600538.5224
  21820095.500   -16255589.951 9 -12648867.04747  21820097.446    21820107.9584
  22018003.224   -12911946.346 8 -10037800.58947  22018005.498    22018016.5384
 00  4 23  1  1  0.0000000  0  7 21 06 17 26 03 23 09
  25001941.380     -187479.44117   -136991.32955  25001940.763    25001953.7314
  24065360.900    -4213260.943 7  -3260982.94745  24065365.374    24065382.6114
  20023473.884   -25461387.729 9 -19820194.08548  20023476.073    20023485.6034
  21080831.171   -18582470.362 9 -14448041.30747  21080832.667    21080842.2894
  24593319.503    -1134781.294 7   -878064.72545  24593320.268    24593334.7754
  21811380.905   -16301373.100 9 -12684542.15647  21811384.772    21811394.6134
  22002267.642   -12994628.325 8 -10102227.96247  22002270.997    22002282.4084
 00  4 23  1  1 30.0000000  0  7 21 06 17 26 03 23 09
  24987230.475     -264750.203 7   -197202.09845  24987235.910    24987251.7724
  24083985.217    -4115382.149 7  -3184713.91645  24083990.636    24084007.8274
  20022663.056   -25465649.087 9 -19823514.61248  20022665.509    20022674.9024
  21094666.782   -18509751.580 9 -14391377.31947  21094670.963    21094679.6024
  24586213.828    -1172112.579 7   -907153.95745  24586215.779    24586230.7164
  21802688.855   -16347054.716 9 -12720138.17047  21802691.527    21802701.4404
  21986605.087   -13076929.930 8 -10166358.93147  21986609.130    21986620.8284
 00  4 23  1  2  0.0000000  0  7 21 06 17 26 03 23 09
  24972527.481     -342040.427 7   -257428.06245  24972528.002    24972542.6374
  24102617.564    -4017487.078 7  -3108432.27345  24102620.557    24102636.8014
  20021964.172   -25469325.051 9 -19826378.97548  20021965.840    20021975.5054
  21108566.422   -18436721.206 9 -14334470.54847  21108567.751    21108577.4504
  24579209.038    -1208918.700 7   -935833.99845  24579212.064    24579226.8044
  21794016.022   -16392627.123 9 -12755649.04447  21794019.135    21794029.4244
  21971017.145   -13158847.921 8 -10230190.98947  21971021.196    21971032.0574
 00  4 23  1  2 30.0000000  0  7 21 06 17 26 03 23 09
  24957807.406     -419365.777 7   -317681.34445  24957810.315    24957827.9284
  24121231.981    -3919569.425 7  -3032133.05045  24121252.928    24121269.9934
  20021376.091   -25472416.600 9 -19828787.95148  20021377.699    20021387.3094
  21122524.053   -18363363.736 9 -14277308.89347  21122526.930    21122536.7604
  24572302.970    -1245207.729 7   -964111.10045  24572306.689    24572321.4904
  21785365.421   -16438087.911 9 -12791072.93647  21785368.168    21785378.8424
  21955504.836   -13240375.274 8 -10293718.65947  21955506.166    21955518.2184
 00  4 23  1  3  0.0000000  0  7 21 06 17 26 03 23 09
  24943087.696     -496737.531 7   -377970.81245  24943089.919    24943103.3174
  24139886.227    -3821626.387 7  -2955813.92445  24139891.920    24139907.3284
  20020897.449   -25474925.679 9 -19830743.06348  20020899.897    20020909.4934
  21136550.174   -18289667.894 9 -14219883.57947  21136551.225    21136560.3264
  24565492.375    -1280986.815 7   -991990.84345  24565496.249    24565512.5114
  21776737.034   -16483433.741 9 -12826407.26147  21776739.329    21776749.9144
  21940067.060   -13321505.914 8 -10356937.19447  21940067.312    21940078.2364
 00  4 23  1  3 30.0000000  0  7 21 06 17 26 03 23 09
  24928351.259     -574162.569 7   -438301.83845  24928354.045    24928371.5014
  24158536.957    -3723659.670 8  -2879476.43445  24158534.154    24158551.4034
  20020528.969   -25476857.267 9 -19832248.18548  20020532.258    20020541.8064
  21150637.669   -18215635.473 9 -14162195.98647  21150639.559    21150648.4464
  24558780.178    -1316274.016 7  -1019487.28745  24558782.766    24558798.1944
  21768131.095   -16528661.323 9 -12861649.45347  21768133.433    21768143.0804
  21924700.917   -13402240.018 8 -10419846.75047  21924704.585    21924715.4974
 00  4 23  1  4  0.0000000  0  7 21 06 17 26 03 23 09
  24913607.623     -651652.632 7   -498683.48245  24913609.597    24913625.3584
  24177177.350    -3625670.038 8  -2803121.08245  24177180.900    24177198.6824
  20020269.382   -25478225.326 9 -19833314.17748  20020271.817    20020281.4984
  21164785.249   -18141278.174 9 -14104255.24547  21164788.755    21164798.4984
  24552162.321    -1351067.197 7  -1046598.78945  24552160.899    24552175.3484
  21759546.900   -16573768.797 9 -12896798.05547  21759548.617    21759559.1144
  21909417.828   -13482585.432 8 -10482453.42047  21909415.107    21909426.0114
 00  4 23  1  4 30.0000000  0  7 21 06 17 26 03 23 09
  24898846.739     -729203.794 7   -559112.71645  24898850.485    24898866.7044
  24195824.768    -3527671.115 7  -2726758.46145  24195830.426    24195847.1434
  20020116.996   -25479024.073 9 -19833936.56348  20020119.972    20020129.7154
  21178995.382   -18066616.062 9 -14046076.98247  21178996.910    21179006.0674
  24545627.493    -1385369.117 7  -1073327.46045  24545632.421    24545648.8444
  21750985.543   -16618752.019 9 -12931849.84347  21750988.893    21750999.5354
  21894194.280   -13562541.362 8 -10544756.61647  21894199.732    21894210.6854
 00  4 23  1  5  0.0000000  0  7 21 06 17 26 03 23 09
  24884081.473     -806802.640 7   -619579.19345  24884084.229    24884100.3724
  24214472.109    -3429677.317 7  -2650399.87845  24214477.336    24214495.7234
  20020076.407   -25479242.713 9 -19834106.91548  20020078.494    20020087.9204
  21193257.390   -17991662.214 9 -13987671.39447  21193259.823    21193269.1214
  24539200.101    -1419168.710 8  -1099664.77045  24539202.955    24539216.3054
  21742448.552   -16663612.129 9 -12966805.71347  21742452.205    21742462.6714
  21879056.944   -13642108.971 8 -10606757.21147  21879058.065    21879069.0684
 00  4 23  1  5 30.0000000  0  7 21 06 17 26 03 23 09
  24869311.280     -884426.689 7   -680065.18345  24869311.794    24869328.2184
  24233104.486    -3331696.004 7  -2574050.99345  24233121.468    24233140.2174
  20020143.651   -25478882.606 9 -19833826.29848  20020147.042    20020156.1174
  21207574.396   -17916436.341 9 -13929053.83747  21207574.514    21207583.9864
  24532861.445    -1452464.006 8  -1125609.07945  24532866.650    24532880.3804
  21733939.465   -16708340.115 9 -13001658.62447  21733940.323    21733950.6204
  21863986.949   -13721287.275 8 -10668454.44947  21863991.291    21864002.1354
 00  4 23  1  6  0.0000000  0  7 21 06 17 26 03 23 09
  24854536.009     -962060.892 7   -740559.12545  24854539.446    24854553.7684
  24251749.969    -3233731.763 7  -2497715.38545  24251765.559    24251780.9794
  20020326.380   -25477932.126 9 -19833085.63748  20020328.009    20020337.0474
  21221938.135   -17840942.232 9 -13870227.27547  21221940.906    21221950.2384
  24526626.620    -1485241.718 7  -1151150.06045  24526627.658    24526642.0474
  21725452.047   -16752936.292 9 -13036408.81547  21725453.795    21725464.2474
  21848998.750   -13800060.633 9 -10729836.15947  21849001.254    21849011.9394
 00  4 23  1  6 30.0000000  0  7 21 06 17 26 03 23 09
  24839764.227    -1039694.988 7   -801053.07745  24839765.607    24839781.1824
  24270397.956    -3135781.717 7  -2421390.88745  24270404.256    24270421.3324
  20020621.732   -25476377.585 9 -19831874.28648  20020623.775    20020633.0904
  21236355.958   -17765174.361 9 -13811187.38647  21236358.856    21236368.9554
  24520484.715    -1517499.582 7  -1176286.01445  24520489.921    24520504.5984
  21716989.503   -16797405.778 9 -13071060.29647  21716992.222    21717002.1754
  21834087.955   -13878415.239 9 -10790891.56047  21834090.737    21834101.3584
 00  4 23  1  7  0.0000000  0  7 21 06 17 26 03 23 09
  24824981.124    -1117321.867 7   -861541.35845  24824993.911    24825006.7594
  24289039.806    -3037832.515 7  -2345067.06745  24289044.368    24289060.0734
  20021029.679   -25474227.036 9 -19830198.51748  20021032.725    20021042.4544
  21250831.059   -17689124.770 9 -13751927.97547  21250831.017    21250840.3234
  24514448.554    -1549239.457 7  -1201018.31045  24514450.199    24514463.7554
  21708551.066   -16841757.554 9 -13105620.03047  21708552.264    21708562.6644
  21819260.373   -13956341.491 9 -10851613.17647  21819261.499    21819271.8894
 00  4 23  1  7 30.0000000  0  8 21 06 17 26 03 23 09 29
  24810218.131    -1194949.944 7   -922030.50545  24810219.168    24810235.4904
  24307669.690    -2939878.233 7  -2268739.25445  24307682.938    24307700.5604
  20021550.852   -25471490.519 9 -19828066.14448  20021553.130    20021563.0834
  21265355.462   -17612781.008 9 -13692439.34447  21265358.823    21265368.1464
  24508502.996    -1580466.994 7  -1225351.35745  24508508.028    24508523.1634
  21700131.735   -16885991.054 9 -13140087.60047  21700135.085    21700145.2154
  21804510.563   -14033832.808 8 -10911995.91647  21804515.563    21804526.0534
  24545809.970    -1475425.99517  -1137087.54055  24545816.673    24545833.9574
 00  4 23  1  8  0.0000000  0  8 21 06 17 26 03 23 09 29
  24795441.406    -1272602.771 7   -982538.97945  24795446.336    24795459.9334
  24326307.728    -2841927.249 7  -2192414.01845  24326323.925    24326338.9704
  20022183.134   -25468165.624 9 -19825475.29948  20022185.937    20022195.8154
  21279943.363   -17536133.025 9 -13632713.66047  21279945.111    21279953.5064
  24502662.827    -1611184.546 7  -1249287.02445  24502661.790    24502676.3304
  21691732.140   -16930124.769 9 -13174477.42247  21691736.355    21691746.5854
  21789850.066   -14110882.493 8 -10972034.47647  21789853.115    21789864.3064
  24527838.279    -1569874.311 7  -1210683.27245  24527844.810    24527861.7814
 00  4 23  1  8 30.0000000  0  8 21 06 17 26 03 23 09 29
  24780658.488    -1350290.931 7  -1043075.00545  24780661.635    24780674.7174
  24344963.400    -2743993.306 7  -2116102.03245  24344959.920    24344976.9864
  20022925.560   -25464266.392 9 -19822436.91648  20022928.080    20022937.9614
  21294585.506   -17459179.726 9 -13572750.04847  21294588.788    21294597.6484
  24496910.154    -1641401.678 7  -1272832.77945  24496911.805    24496926.3544
  21683353.201   -16974161.984 9 -13208792.05547  21683356.563    21683366.4494
  21775270.137   -14187506.999 8 -11031741.75247  21775271.708    21775283.1534
  24509909.446    -1664151.754 7  -1284145.86745  24509903.989    24509920.0994
 00  4 23  1  9  0.0000000  0  8 21 06 17 26 03 23 09 29
  24765861.354    -1428016.838 7  -1103640.40045  24765868.275    24765885.3384
  24363597.133    -2646090.103 7  -2039814.06045  24363590.110    24363606.8394
  20023776.206   -25459794.221 9 -19818952.09348  20023779.199    20023788.9194
  21309285.616   -17381931.591 9 -13512556.70847  21309288.058    21309296.8394
  24491252.468    -1671122.849 7  -1295992.10445  24491257.082    24491270.8704
  21674996.367   -17018094.795 9 -13243025.33647  21674996.129    21675006.3194
  21760768.251   -14263710.180 8 -11091120.73047  21760771.055    21760781.6104
  24491987.015    -1758251.664 7  -1357470.12145  24491998.024    24492013.1904
 00  4 23  1  9 30.0000000  0  8 21 06 17 26 03 23 09 29
  24751065.033    -1505788.188 7  -1164241.25245  24751069.914    24751085.6204
  24382218.991    -2548241.709 7  -1963568.78845  24382210.600    24382229.4284
  20024737.001   -25454745.884 9 -19815018.29948  20024740.124    20024749.4404
  21324039.104   -17304406.863 9 -13452147.82647  21324040.591    21324050.0714
  24485697.138    -1700341.460 7  -1318759.76545  24485695.594    24485709.7554
  21666656.076   -17061912.381 9 -13277168.83047  21666657.515    21666668.0244
  21746349.302   -14339484.500 8 -11150165.53847  21746351.089    21746362.0924
  24474128.091    -1852174.847 7  -1430656.69945  24474124.038    24474139.8204
 00  4 23  1 10  0.0000000  0  8 21 06 17 26 03 23 09 29
  24736268.562    -1583595.092 7  -1224869.79645  24736264.688    24736279.9654
  24400830.635    -2450449.040 7  -1887366.91645  24400820.171    24400837.1494
  20025811.048   -25449102.398 9 -19810620.76448  20025814.198    20025823.5924
  21338838.512   -17226621.658 9 -13391535.99947  21338841.859    21338851.9754
  24480224.101    -1729053.356 7  -1341132.57045  24480233.507    24480246.8234
  21658339.442   -17105615.573 9 -13311223.19947  21658341.694    21658351.4914
  21732007.912   -14414825.190 8 -11208872.45947  21732014.320    21732025.1744
  24456288.870    -1945918.331 7  -1503703.21545  24456283.370    24456300.4604
 00  4 23  1 10 30.0000000  0  8 21 06 17 26 03 23 09 29
  24721450.074    -1661414.533 7  -1285508.06745  24721454.438    24721470.6504
  24419420.853    -2352690.721 7  -1811191.79945  24419422.258    24419441.1254
  20026999.962   -25442857.198 9 -19805754.35848  20027002.168    20027011.8824
  21353689.331   -17148582.413 9 -13330726.20947  21353692.266    21353702.2144
  24474864.565    -1757249.070 7  -1363103.19145  24474866.932    24474880.3464
  21650049.109   -17149184.220 9 -13345172.72047  21650050.982    21650060.9514
  21717759.809   -14489724.787 9 -11267235.66247  21717761.531    21717772.3334
  24438462.378    -2039495.157 7  -1576619.86045  24438475.842    24438491.8394
 00  4 23  1 11  0.0000000  0  8 21 06 17 26 03 23 09 29
  24706635.599    -1739248.856 7  -1346157.95145  24706642.256    24706658.4084
  24438022.117    -2254949.811 7  -1735030.29745  24438022.432    24438041.1964
  20028304.738   -25435997.602 9 -19800409.19748  20028307.754    20028317.2454
  21368588.132   -17070296.082 9 -13269723.90547  21368589.690    21368599.5124
  24469594.789    -1784911.491 7  -1384658.23145  24469602.044    24469616.8594
  21641784.307   -17192605.157 9 -13379007.15047  21641787.641    21641797.9834
  21703593.773   -14564171.911 9 -11325246.29447  21703594.803    21703605.6844
  24420689.552    -2132939.046 7  -1649432.99145  24420694.290    24420709.8854
 00  4 23  1 11 30.0000000  0  8 21 06 17 26 03 23 09 29
  24691828.465    -1817103.910 7  -1406823.97445  24691828.066    24691843.5644
  24456617.576    -2157216.617 7  -1658874.79545  24456619.658    24456639.0734
  20029727.202   -25428522.313 9 -19794584.27648  20029730.455    20029739.6954
  21383533.377   -16991753.525 9 -13208521.90847  21383535.949    21383545.5734
  24464436.053    -1812043.340 7  -1405799.87145  24464440.277    24464453.5914
  21633546.325   -17235892.679 9 -13412737.63647  21633549.997    21633559.8974
  21689511.023   -14638175.644 9 -11382911.42047  21689512.454    21689522.7414
  24402926.278    -2226250.790 7  -1722143.10645  24402936.650    24402953.4274
 00  4 23  1 12  0.0000000  0  8 21 06 17 26 03 23 09 29
  24677005.971    -1894974.826 7  -1467502.44845  24677009.737    24677025.2624
  24475213.324    -2059473.925 7  -1582711.87445  24475221.690    24475238.0594
  20031266.724   -25420433.036 9 -19788280.92748  20031269.603    20031278.7794
  21398531.185   -16912938.320 9 -13147107.46647  21398533.596    21398543.5524
  24459380.932    -1838647.238 7  -1426530.06645  24459376.937    24459391.0094
  21625336.328   -17279056.951 9 -13446372.10547  21625336.695    21625346.2604
  21675509.839   -14711748.451 9 -11440240.76847  21675511.830    21675521.6664
  24385210.823    -2319430.999 7  -1794750.73545  24385206.803    24385223.0484
 00  4 23  1 12 30.0000000  0  8 21 06 17 26 03 23 09 29
  24662173.175    -1972879.744 7  -1528207.36245  24662184.719    24662200.0964
  24493815.042    -1961730.272 7  -1506548.19445  24493820.379    24493838.3934
  20032919.424   -25411745.537 9 -19781511.42848  20032922.449    20032931.8134
  21413580.466   -16833853.318 9 -13085482.81147  21413583.532    21413593.4544
  24454411.573    -1864720.515 7  -1446846.81745  24454414.315    24454429.0364
  21617141.575   -17322100.185 9 -13479912.25147  21617145.497    21617155.0854
  21661590.271   -14784894.063 9 -11497237.22747  21661592.607    21661602.6284
  24367498.192    -2412480.195 7  -1867256.27845  24367499.728    24367515.4954
 00  4 23  1 13  0.0000000  0  8 21 06 17 26 03 23 09 29
  24647348.479    -2050836.609 7  -1588952.78245  24647349.457    24647365.8064
  24512410.644    -1864005.057 7  -1430398.87745  24512418.030    24512435.1784
  20034685.179   -25402462.921 9 -19774278.21048  20034688.740    20034698.1834
  21428682.555   -16754502.041 9 -13023650.65747  21428683.633    21428693.6564
  24449551.162    -1890270.344 7  -1466755.69145  24449553.298    24449567.1934
  21608972.780   -17365043.517 9 -13513374.54147  21608973.635    21608983.1784
  21647754.019   -14857611.089 9 -11553899.74547  21647755.189    21647765.7704
  24349815.035    -2505383.095 7  -1939647.82745  24349820.624    24349834.8354
 00  4 23  1 13 30.0000000  0  7 21 17 26 03 23 09 29
  24632512.310    -2128836.638 7  -1649731.84445  24632506.778    24632521.4754
  20036564.020   -25392594.299 9 -19766588.35648  20036566.758    20036576.0524
  21443831.791   -16674888.908 9 -12961614.46647  21443833.288    21443843.2834
  24444782.457    -1915314.018 7  -1486270.19845  24444787.759    24444801.3974
  21600815.424   -17407903.950 9 -13546772.21647  21600817.517    21600827.5314
  21633999.086   -14929890.513 9 -11610221.27047  21634000.527    21634010.3784
  24332175.400    -2598112.926 8  -2011904.56345  24332175.861    24332188.5694
 00  4 23  1 14  0.0000000  0  7 21 17 26 03 23 09 29
  24617658.158    -2206879.384 7  -1710544.20545  24617655.165    24617669.1644
  20038553.611   -25382144.144 9 -19758445.36748  20038555.501    20038564.8104
  21459028.175   -16595027.940 9 -12899385.16147  21459031.045    21459040.1464
  24440122.795    -1939840.559 7  -1505381.71545  24440119.335    24440134.5804
  21592677.479   -17450665.104 9 -13580092.53947  21592680.212    21592689.7634
  21620335.111   -15001716.512 9 -11666189.49147  21620332.562    21620342.0944
  24314552.436    -2690676.842 7  -2084031.94445  24314560.388    24314573.9954
 00  4 23  1 14 30.0000000  0  7 21 17 26 03 23 09 29
  24602790.997    -2284969.685 7  -1771393.57845  24602795.584    24602812.2144
  20040652.060   -25371111.812 9 -19749848.72948  20040654.927    20040664.1944
  21474272.894   -16514935.059 9 -12836975.14547  21474272.372    21474281.4914
  24435543.064    -1963857.475 7  -1524096.14445  24435549.981    24435565.0194
  21584562.710   -17493311.267 9 -13613323.27347  21584564.798    21584574.9344
  21606750.393   -15073083.983 9 -11721800.39847  21606751.792    21606761.7454
  24296982.457    -2783072.552 7  -2156028.28745  24296976.565    24296991.9604
 00  4 23  1 15  0.0000000  0  7 21 17 26 03 23 09 29
  24587920.749    -2363093.345 7  -1832268.98845  24587928.042    24587942.9624
  20042862.864   -25359492.535 9 -19740794.72348  20042866.102    20042875.4404
  21489555.349   -16434605.803 9 -12774380.93247  21489558.560    21489567.3484
  24431071.428    -1987377.178 7  -1542423.16645  24431072.918    24431090.1694
  21576471.248   -17535826.222 9 -13646451.77147  21576474.708    21576484.5704
  21593253.589   -15143990.511 9 -11777052.13347  21593258.538    21593268.7904
  24279401.948    -2875297.667 7  -2227891.68645  24279426.705    24279441.6554
 00  4 23  1 15 30.0000000  0  7 21 17 26 03 23 09 29
  24573052.043    -2441237.805 7  -1893160.59945  24573057.114    24573072.6984
  20045187.325   -25347283.683 9 -19731281.31548  20045189.285    20045198.7404
  21504885.442   -16354036.886 9 -12711599.97547  21504889.847    21504899.2594
  24426688.619    -2010395.911 7  -1560359.74245  24426694.373    24426707.7134
  21568408.833   -17578194.955 9 -13679466.32947  21568411.812    21568421.9164
  21579848.233   -15214443.645 9 -11831950.56847  21579851.575    21579861.5514
  24261912.551    -2967349.992 7  -2299620.41145  24261909.177    24261924.7164
 00  4 23  1 16  0.0000000  0  7 21 17 26 03 23 09 29
  24558178.102    -2519403.290 7  -1954068.58545  24558181.635    24558198.9504
  20047623.582   -25334472.081 9 -19721298.23148  20047626.992    20047636.5644
  21520263.877   -16273225.064 9 -12648629.73547  21520267.937    21520277.2034
  24422410.795    -2032895.972 8  -1577892.14045  24422412.926    24422427.0374
  21560377.662   -17620403.252 9 -13712355.86647  21560380.152    21560390.0274
  21566527.691   -15284449.850 9 -11886500.74347  21566529.739    21566539.8914
  24244409.706    -3059233.285 7  -2371217.45345  24244423.604    24244440.3974
 00  4 23  1 16 30.0000000  0  7 21 17 26 03 23 09 29
  24543306.812    -2597583.600 7  -2014988.16845  24543306.706    24543320.7014
  20050179.408   -25321045.951 9 -19710836.29748  20050182.151    20050191.3894
  21535687.600   -16192173.043 8 -12585472.32547  21535691.665    21535700.7034
  24418224.899    -2054871.695 7  -1595016.05145  24418229.784    24418244.4444
  21552376.621   -17662457.098 9 -13745125.06347  21552377.881    21552387.3264
  21553289.758   -15354007.687 9 -11940701.55547  21553293.643    21553303.3914
  24226973.786    -3150938.976 7  -2442676.08145  24226972.214    24226987.7144
 00  4 23  1 17  0.0000000  0  7 21 17 26 03 23 09 29
  24528424.541    -2675768.542 7  -2075911.33645  24528427.498    24528441.9054
  20052853.321   -25306995.681 9 -19699888.01648  20052855.523    20052865.2154
  21551163.234   -16110875.555 9 -12522123.64347  21551161.437    21551170.7934
  24414150.770    -2076303.074 8  -1611715.73045  24414152.300    24414165.3644
  21544396.724   -17704375.789 9 -13777788.93147  21544400.800    21544410.3724
  21540143.330   -15423104.693 9 -11994543.26147  21540144.394    21540154.7734
  24209549.366    -3242470.968 7  -2513999.38645  24209555.066    24209569.8874
 00  4 23  1 17 30.0000000  0  7 21 17 26 03 23 09 29
  24513547.454    -2753964.078 7  -2136842.72045  24513548.447    24513560.5124
  20055643.685   -25292326.165 9 -19688457.20548  20055647.226    20055656.6384
  21566678.338   -16029337.752 9 -12458587.70647  21566678.062    21566687.0294
  24410177.235    -2097175.879 7  -1627980.20545  24410181.007    24410193.3484
  21536444.458   -17746168.083 9 -13810354.30647  21536447.642    21536457.4484
  21527080.147   -15491729.680 9 -12048017.17147  21527085.794    21527095.1834
  24192170.565    -3333833.888 7  -2585190.92845  24192169.065    24192184.4394
 00  4 23  1 18  0.0000000  0  7 21 17 26 03 23 09 29
  24498664.333    -2832180.742 7  -2197790.58645  24498663.648    24498678.0374
  20058551.077   -25277048.738 9 -19676552.70648  20058554.672    20058563.5244
  21582235.776   -15947570.792 9 -12394873.20847  21582238.333    21582247.3164
  24406312.316    -2117494.361 7  -1643812.72545  24406313.165    24406327.8994
  21528520.941   -17787820.273 9 -13842810.49347  21528521.979    21528531.2084
  21514116.754   -15559861.467 9 -12101106.76547  21514119.687    21514130.4154
  24174811.094    -3425035.805 7  -2656257.02145  24174813.417    24174828.1044
 00  4 23  1 18 30.0000000  0  7 21 17 26 03 23 09 29
  24483760.541    -2910425.659 7  -2258760.43345  24483772.218    24483788.2834
  20061571.626   -25261181.613 9 -19664188.69648  20061573.848    20061582.9294
  21597837.841   -15865585.140 9 -12330988.29347  21597839.422    21597848.2194
  24402543.303    -2137279.662 7  -1659229.77545  24402550.858    24402563.1074
  21520622.067   -17829335.651 9 -13875160.08647  21520621.482    21520630.7284
  21501249.263   -15627492.241 9 -12153805.97747  21501250.354    21501260.4324
  24157474.415    -3516072.647 7  -2727194.46345  24157488.311    24157504.7914
 00  4 23  1 19  0.0000000  0  7 21 17 26 03 23 09 29
  24468866.387    -2988704.692 7  -2319756.85945  24468875.841    24468891.4684
  20064698.621   -25244742.749 9 -19651379.17748  20064701.982    20064711.6474
  21613479.325   -15783372.978 9 -12266926.87147  21613483.670    21613492.7104
  24398882.966    -2156546.582 7  -1674242.90745  24398881.156    24398895.0254
  21512745.516   -17870710.584 9 -13907400.22147  21512747.550    21512757.1614
  21488471.782   -15694621.535 9 -12206114.42247  21488476.115    21488486.4274
  24140196.721    -3606952.893 7  -2798009.85345  24140195.192    24140210.6144
 00  4 23  1 19 30.0000000  0  7 21 17 26 03 23 09 29
  24453967.450    -3067027.680 7  -2380787.57845  24453972.821    24453987.4884
  20067935.622   -25227741.571 9 -19638131.50148  20067937.542    20067946.9724
  21629168.351   -15700944.531 8 -12202696.92247  21629169.034    21629178.4724
  24395309.937    -2175312.502 7  -1688865.59645  24395310.525    24395325.4494
  21504901.128   -17911934.007 9 -13939522.32147  21504904.021    21504912.5634
  21475793.855   -15761250.968 9 -12258033.35247  21475796.766    21475807.1214
  24122927.189    -3697668.967 8  -2868697.40645  24122932.387    24122946.7454
 00  4 23  1 20  0.0000000  0  7 21 17 26 03 23 09 29
  24439061.687    -3145391.537 7  -2441850.12045  24439061.122    24439074.8254
  20071278.016   -25210168.905 9 -19624438.50748  20071281.610    20071290.7174
  21644891.106   -15618304.591 8 -12138302.18647  21644894.961    21644904.2534
  24391834.685    -2193584.200 7  -1703103.22145  24391834.378    24391848.0414
  21497083.741   -17953022.130 9 -13971538.98847  21497085.019    21497093.7974
  21463207.590   -15827389.852 9 -12309570.04347  21463210.684    21463221.1074
  24105703.462    -3788215.396 8  -2939252.76445  24105702.533    24105716.3064
 00  4 23  1 20 30.0000000  0  7 21 17 26 03 23 09 29
  24424140.579    -3223791.216 7  -2502940.61345  24424143.723    24424154.8954
  20074734.067   -25192014.399 9 -19610292.13348  20074736.299    20074745.1664
  21660662.849   -15535448.696 9 -12073739.16747  21660662.322    21660671.0434
  24388445.783    -2211361.768 7  -1716955.80945  24388450.776    24388464.8804
  21489284.840   -17993999.965 9 -14003469.70947  21489286.915    21489296.1774
  21450717.086   -15893048.697 9 -12360732.66147  21450716.465    21450726.3824
  24088496.387    -3878593.090 7  -3009676.65545  24088502.793    24088517.2654
 00  4 23  1 21  0.0000000  0  7 21 17 26 03 23 09 29
  24409210.827    -3302223.686 7  -2564056.60445  24409216.449    24409227.7504
  20078301.459   -25173260.278 9 -19595678.52148  20078304.631    20078314.2224
  21676469.882   -15452361.487 9 -12008995.90147  21676473.448    21676482.4374
  24385165.986    -2228629.383 7  -1730410.97045  24385165.304    24385179.2974
  21481508.096   -18034874.288 9 -14035319.79047  21481508.834    21481517.7374
  21438314.260   -15958222.000 9 -12411516.96047  21438314.521    21438323.7384
  24071329.661    -3968803.132 7  -3079969.82245  24071335.440    24071351.4524
 00  4 23  1 21 30.0000000  0  7 21 17 26 03 23 09 29
  24394278.639    -3380692.007 7  -2625200.51945  24394282.305    24394298.9094
  20081986.512   -25153893.569 9 -19580587.57648  20081989.666    20081999.2624
  21692324.926   -15369055.682 9 -11944082.27647  21692326.059    21692335.1294
  24381976.006    -2245384.767 7  -1743467.08845  24381978.063    24381991.4704
  21473745.715   -18075647.959 9 -14067091.42547  21473749.559    21473758.9944
  21426004.084   -16022903.396 9 -12461917.94247  21426005.299    21426015.2544
  24054200.609    -4058832.359 8  -3150122.18645  24054204.965    24054217.5924
 00  4 23  1 22  0.0000000  0  7 21 17 26 03 23 09 29
  24379345.371    -3459189.565 7  -2686367.20945  24379345.891    24379359.9624
  20085789.760   -25133910.813 9 -19565016.59248  20085792.446    20085801.8004
  21708218.224   -15285533.365 8 -11878999.96147  21708219.320    21708228.8124
  24378886.116    -2261622.902 7  -1756120.07345  24378885.027    24378901.8504
  21466008.515   -18116313.615 9 -14098778.90747  21466011.307    21466020.4154
  21413788.049   -16087092.574 9 -12511935.39747  21413790.781    21413800.2104
  24037103.047    -4148681.551 8  -3220134.21645  24037107.493    24037120.8454
 00  4 23  1 22 30.0000000  0  7 21 17 26 03 23 09 29
  24364400.932    -3537714.722 7  -2747555.42145  24364403.025    24364417.5664
  20089709.292   -25113302.204 9 -19548957.93248  20089714.192    20089723.6154
  21724150.046   -15201793.921 8 -11813748.46347  21724154.338    21724164.0694
  24375894.670    -2277331.692 7  -1768360.65845  24375896.494    24375910.6234
  21458293.492   -18156853.190 9 -14130368.12747  21458296.638    21458306.1854
  21401668.971   -16150775.958 9 -12561558.71647  21401672.504    21401682.4504
  24020044.131    -4238347.361 7  -3290003.39345  24020043.028    24020057.6564
 00  4 23  1 23  0.0000000  0  7 21 17 26 03 23 09 29
  24349455.028    -3616258.300 8  -2808757.99945  24349457.747    24349470.6784
  20093751.631   -25092067.544 9 -19532411.43848  20093754.965    20093764.5574
  21740131.982   -15117839.979 8 -11748329.82847  21740130.037    21740140.0804
  24373006.531    -2292507.643 7  -1780186.00645  24373008.559    24373023.2814
  21450607.863   -18197263.977 9 -14161856.99447  21450607.384    21450616.2614
  21389651.201   -16213947.391 9 -12610783.11447  21389650.890    21389661.1294
  24003007.782    -4327830.003 7  -3359729.78245  24003014.851    24003028.7504
 00  4 23  1 23 30.0000000  0  7 21 17 26 03 23 09 29
  24334507.838    -3694816.035 8  -2869971.64345  24334509.616    24334522.8184
  20097910.387   -25070219.139 9 -19515386.70448  20097912.360    20097921.8344
  21756138.412   -15033691.865 8 -11682759.88847  21756143.275    21756152.4184
  24370221.257    -2307158.930 7  -1791602.54645  24370220.991    24370235.0054
  21442939.924   -18237538.722 9 -14193239.86347  21442942.640    21442952.2004
  21377722.710   -16276605.162 9 -12659607.25047  21377727.706    21377737.1394
  23986020.623    -4417141.156 8  -3429322.58945  23986019.970    23986033.0024
 00  4 23  1 24  0.0000000  0  7 21 17 26 03 23 09 29
  24319555.714    -3773378.399 8  -2931188.89145  24319557.945    24319572.5004
  20102184.366   -25047761.391 9 -19497887.15548  20102186.231    20102195.6234
  21772189.856   -14949338.972 8 -11617030.36947  21772195.090    21772204.0524
  24367527.837    -2321281.260 7  -1802606.91445  24367533.663    24367547.3474
  21435300.694   -18277678.352 9 -14224517.43348  21435304.468    21435314.2704
  21365897.650   -16338754.813 9 -12708035.46247  21365900.328    21365909.8434
  23969054.052    -4506290.690 8  -3498789.47845  23969055.392    23969068.0284
 00  4 23  1 24 30.0000000  0  7 21 17 26 03 23 09 29
  24304591.984    -3851948.256 7  -2992411.91645  24304605.710    24304620.2624
  20106572.356   -25024698.133 9 -19479915.78648  20106575.093    20106584.5314
  21788287.312   -14864774.253 9 -11551135.78147  21788288.061    21788296.6554
  24364949.561    -2334868.381 7  -1813194.21145  24364948.595    24364962.3464
  21427687.634   -18317697.541 9 -14255701.16347  21427688.996    21427698.6454
  21354165.061   -16400401.993 9 -12756072.13647  21354169.788    21354179.2854
  23952113.116    -4595295.742 8  -3568143.79245  23952118.352    23952130.7964
 00  4 23  1 25  0.0000000  0  7 21 17 26 03 23 09 29
  24289648.940    -3930541.532 8  -3053653.22745  24289649.553    24289665.4414
  20111071.068   -25001053.696 9 -19461491.55848  20111074.478    20111083.7444
  21804418.771   -14780001.966 9 -11485079.46547  21804419.486    21804428.7214
  24362458.531    -2347939.047 7  -1823379.11245  24362462.187    24362474.8514
  21420095.921   -18357595.170 9 -14286790.15147  21420096.484    21420106.4124
  21342532.589   -16461553.735 9 -12803722.75247  21342532.868    21342542.5994
  23935205.223    -4684164.395 8  -3637391.82245  23935206.573    23935221.0844
 00  4 23  1 25 30.0000000  0  7 21 17 26 03 23 09 29
  24274684.859    -4009167.086 8  -3114919.72045  24274687.759    24274702.1114
  20115681.941   -24976828.477 9 -19442614.76048  20115684.294    20115693.5644
  21820586.656   -14695029.691 8 -11418867.31847  21820588.182    21820598.2224
  24360064.316    -2360493.971 7  -1833162.13045  24360071.253    24360086.0524
  21412527.079   -18397359.666 9 -14317775.39947  21412529.453    21412539.1584
  21330984.598   -16522216.456 9 -12850992.30447  21330988.598    21330998.8144
  23918320.913    -4772884.796 8  -3706524.28145  23918321.591    23918336.5044
 00  4 23  1 26  0.0000000  0  7 21 17 26 03 23 09 29
  24259713.245    -4087825.309 8  -3176211.70345  24259719.047    24259734.1344
  20120404.855   -24952009.396 9 -19423275.21748  20120407.099    20120416.6454
  21836794.946   -14609853.501 8 -11352496.29047  21836796.911    21836806.8384
  24357780.923    -2372529.450 7  -1842540.38745  24357780.920    24357796.5244
  21404983.185   -18436989.723 9 -14348655.90547  21404988.159    21404997.9814
  21319533.819   -16582394.206 9 -12897883.98147  21319537.064    21319547.0774
  23901466.699    -4861436.972 7  -3775525.62745  23901470.258    23901485.2034
 00  4 23  1 26 30.0000000  0  7 21 17 26 03 23 09 29
  24244738.533    -4166521.786 7  -3237533.44045  24244744.127    24244758.4304
  20125241.650   -24926589.339 9 -19403467.38548  20125244.743    20125253.9864
  21853037.391   -14524487.762 8 -11285977.55647  21853041.464    21853051.1084
  24355584.148    -2384051.929 7  -1851518.92245  24355588.484    24355602.6594
  21397472.198   -18476483.223 9 -14379430.02948  21397473.006    21397482.1534
  21308180.469   -16642070.291 9 -12944384.73847  21308181.486    21308191.1154
  23884652.988    -4949805.697 8  -3844384.08745  23884656.021    23884668.2964
 00  4 23  1 27  0.0000000  0  7 21 17 26 03 23 09 29
  24229758.415    -4245243.091 7  -3298874.52645  24229762.011    24229779.1014
  20130194.697   -24900567.271 9 -19383190.44848  20130196.655    20130205.4504
  21869320.105   -14438941.741 8 -11219318.34247  21869321.137    21869330.0734
  24353489.533    -2395068.102 7  -1860102.89745  24353492.927    24353506.2754
  21389983.770   -18515823.600 9 -14410084.81147  21389986.700    21389996.3364
  21296922.743   -16701220.147 9 -12990475.43547  21296925.396    21296935.0774
  23867878.409    -5037954.979 8  -3913071.55645  23867881.650    23867894.0024
 00  4 23  1 27 30.0000000  0  7 21 17 26 03 23 09 29
  24214774.168    -4323966.653 8  -3360217.42545  24214783.142    24214796.9054
  20135262.920   -24873925.655 9 -19362430.74948  20135266.416    20135275.4484
  21885633.922   -14353219.703 9 -11152521.97347  21885633.707    21885642.3744
  24351485.937    -2405561.133 7  -1868279.25545  24351494.003    24351509.3224
  21382525.711   -18555017.313 9 -14440625.32347  21382528.382    21382537.7194
  21285767.870   -16759829.671 9 -13036145.10547  21285772.086    21285782.4184
  23851144.177    -5125874.603 8  -3981580.07845  23851150.288    23851163.3414
 00  4 23  1 28  0.0000000  0  7 21 17 26 03 23 09 29
  24199801.454    -4402688.088 8  -3421558.67245  24199803.047    24199817.8024
  20140450.958   -24846666.432 9 -19341189.79848  20140453.518    20140462.5074
  21901977.831   -14267321.035 8 -11085587.96747  21901979.502    21901988.1494
  24349593.853    -2415531.389 7  -1876048.26845  24349597.744    24349611.7734
  21375097.147   -18594067.350 9 -14471053.86448  21375097.403    21375106.9454
  21274723.263   -16817885.737 9 -13081383.51647  21274724.823    21274734.2424
  23834461.071    -5213576.059 8  -4049918.55945  23834461.064    23834473.7284
 00  4 23  1 28 30.0000000  0  7 21 17 26 03 23 09 29
  24184821.920    -4481404.840 8  -3482896.29745  24184823.870    24184836.6184
  20145753.482   -24818804.555 9 -19319479.24748  20145755.477    20145764.2874
  21918357.380   -14181254.498 8 -11018523.15547  21918357.197    21918366.0324
  24347798.243    -2424979.744 7  -1883410.60545  24347798.775    24347814.1964
  21367688.263   -18632968.488 9 -14501366.37648  21367694.133    21367703.4734
  21263783.143   -16875383.877 9 -13126187.18347  21263783.506    21263792.5144
  23817803.682    -5301069.354 8  -4118094.87645  23817811.352    23817824.5554
 00  4 23  1 29  0.0000000  0  7 21 17 26 03 23 09 29
  24169840.844    -4560117.462 8  -3544230.66945  24169844.951    24169858.5854
  20151168.150   -24790346.278 9 -19297303.96948  20151170.999    20151179.6944
  21934761.650   -14095017.184 8 -10951325.26547  21934767.876    21934776.9304
  24346099.416    -2433902.780 7  -1890363.60245  24346102.590    24346116.8114
  21360317.350   -18671728.285 9 -14531568.76047  21360318.749    21360327.8224
  21252942.971   -16932338.927 9 -13170567.65347  21252944.618    21252954.2424
  23801199.878    -5388365.444 8  -4186117.50445  23801199.516    23801211.5294
 00  4 23  1 29 30.0000000  0  7 21 17 26 03 23 09 29
  24154859.050    -4638847.105 8  -3605578.31145  24154863.056    24154876.5704
  20156700.119   -24761275.016 9 -19274651.04448  20156703.149    20156712.1454
  21951211.857   -14008606.463 8 -10883992.26647  21951210.535    21951219.9644
  24344503.529    -2442295.549 7  -1896903.38245  24344503.701    24344517.9314
  21352965.201   -18710353.032 9 -14561665.91947  21352968.659    21352978.0814
  21242204.439   -16988767.940 9 -13214538.22747  21242206.619    21242216.0954
  23784610.875    -5475488.018 8  -4254004.97545  23784619.991    23784631.7194
 00  4 23  1 30  0.0000000  0  7 21 17 26 03 23 09 29
  24139873.803    -4717609.069 8  -3666951.11845  24139876.020    24139888.4114
  20162348.989   -24731591.780 9 -19251521.25148  20162351.297    20162360.5704
  21967690.221   -13922012.643 8 -10816516.58947  21967688.990    21967698.1734
  24343001.569    -2450162.671 7  -1903033.60745  24343007.675    24343022.0124
  21345645.509   -18748826.106 9 -14591644.88547  21345647.220    21345656.6124
  21231565.124   -17044673.360 9 -13258100.81847  21231568.004    21231577.5344
  23768077.835    -5562430.112 8  -4321751.79245  23768076.143    23768087.3634
 00  4 23  1 30 30.0000000  0  7 21 17 26 03 23 09 29
  24124873.900    -4796411.122 8  -3728355.18845  24124879.805    24124893.0314
  20168115.015   -24701287.322 9 -19227907.39148  20168118.005    20168127.2634
  21984198.636   -13835231.219 8 -10748894.73247  21984202.876    21984212.5714
  24341609.917    -2457502.892 7  -1908753.22045  24341610.661    24341625.2054
  21338352.145   -18787150.013 9 -14621507.63347  21338354.628    21338363.7354
  21221026.094   -17100054.848 9 -13301255.15047  21221029.136    21221038.7634
  23751561.579    -5649186.186 8  -4389353.65545  23751565.609    23751579.7394
 00  4 23  1 31  0.0000000  0  7 21 17 26 03 23 09 29
  24109875.011    -4875264.982 8  -3789799.66345  24109874.192    24109886.1454
  20174004.082   -24670345.970 9 -19203797.25948  20174005.999    20174015.3784
  22000755.894   -13748249.181 8 -10681116.54447  22000755.415    22000764.9624
  24340310.816    -2464306.387 7  -1914054.59845  24340315.189    24340330.2824
  21331087.877   -18825327.685 9 -14651256.40647  21331089.446    21331098.9214
  21210588.065   -17154906.220 9 -13343996.39647  21210591.527    21210601.0074
  23735092.472    -5735753.837 8  -4456808.75345  23735092.979    23735106.1844
 00  4 23  1 31 30.0000000  0  7 21 17 26 03 23 09 29
  24094854.392    -4954161.230 8  -3851277.15545  24094859.963    24094872.5544
  20180011.317   -24638777.245 9 -19179198.25948  20180013.815    20180022.7604
  22017339.739   -13661066.942 8 -10613182.37047  22017345.154    22017354.8984
  24339112.988    -2470572.726 7  -1918937.46745  24339123.198    24339138.1724
  21323854.442   -18863340.993 9 -14680877.09947  21323855.490    21323864.7604
  21200256.486   -17209214.214 9 -13386314.23047  21200256.917    21200266.8074
  23718649.464    -5822130.279 8  -4524114.83945  23718655.649    23718668.1724
 00  4 23  1 32  0.0000000  0  7 21 17 26 03 23 09 29
  24079837.716    -5033087.992 8  -3912778.42745  24079841.305    24079855.0694
  20186130.196   -24606610.918 9 -19154133.59348  20186134.426    20186143.7854
  22033975.055   -13573690.454 8 -10545096.82147  22033972.363    22033982.2344
  24338027.925    -2476312.300 7  -1923409.83645  24338031.735    24338045.3164
  21316648.895   -18901201.253 9 -14710378.55447  21316651.091    21316660.2554
  21190026.318   -17262963.670 9 -13428196.85247  21190028.617    21190038.1834
  23702252.747    -5908319.874 8  -4591275.33745  23702253.832    23702265.4044
 00  4 23  1 32 30.0000000  0  7 21 17 26 03 23 09 29
  24064816.232    -5112039.390 8  -3974298.87945  24064817.628    24064829.9524
  20192365.201   -24573859.275 9 -19128612.84348  20192366.906    20192376.2184
  22050630.804   -13486136.191 8 -10476872.75346  22050633.132    22050642.5134
  24337039.429    -2481535.246 7  -1927479.62545  24337037.015    24337050.5664
  21309469.308   -18938932.885 9 -14739779.75947  21309470.671    21309480.1124
  21179904.338   -17316161.486 9 -13469649.61447  21179905.563    21179914.9824
  23685885.117    -5994328.999 8  -4658295.17445  23685887.694    23685899.0424
 00  4 23  1 33  0.0000000  0  7 21 17 26 03 23 09 29
  24049784.721    -5191014.744 8  -4035838.01045  24049788.920    24049801.4074
  20198705.195   -24540540.828 9 -19102650.41348  20198707.454    20198716.3684
  22067323.914   -13398416.386 8 -10408519.68347  22067326.131    22067335.1154
  24336141.105    -2486250.004 7  -1931153.41745  24336140.770    24336156.0354
  21302312.050   -18976537.377 9 -14769081.90947  21302315.135    21302324.2104
  21169888.703   -17368801.279 9 -13510667.56647  21169888.351    21169897.7834
  23669552.278    -6080152.043 8  -4725170.03645  23669554.533    23669567.8604
 00  4 23  1 33 30.0000000  0  7 21 17 26 03 23 09 29
  24034759.003    -5270004.406 8  -4097388.28846  24034758.765    24034770.5024
  20205149.534   -24506668.525 9 -19076256.40348  20205152.935    20205161.9194
  22084042.918   -13310546.102 8 -10340049.35447  22084047.496    22084057.2754
  24335337.765    -2490470.367 7  -1934441.99545  24335337.336    24335351.4754
  21295177.658   -19014027.927 9 -14798295.27347  21295180.743    21295189.6584
  21159974.830   -17420874.450 9 -13551243.99247  21159979.001    21159989.0034
  23653252.872    -6165788.318 8  -4791899.34145  23653258.843    23653272.0404
 00  4 23  1 34  0.0000000  0  7 21 17 26 03 23 09 29
  24019718.043    -5349019.302 8  -4158958.24546  24019721.783    24019733.7294
  20211704.600   -24472226.122 9 -19049418.16748  20211707.316    20211716.1334
  22100794.619   -13222534.146 8 -10271468.63847  22100796.024    22100804.9444
  24334616.203    -2494201.209 7  -1937349.13045  24334625.046    24334642.6344
  21288062.943   -19051412.944 9 -14827426.39247  21288066.445    21288075.7764
  21150177.031   -17472377.172 9 -13591375.91247  21150178.760    21150187.7594
  23636994.862    -6251233.830 8  -4858480.01845  23636998.769    23637011.5274
 00  4 23  1 34 30.0000000  0  7 21 17 26 03 23 09 29
  24004677.603    -5428060.066 8  -4220548.36645  24004679.969    24004693.7754
  20218371.124   -24437190.546 9 -19022117.71048  20218374.285    20218383.2364
  22117562.571   -13134388.183 8 -10202783.50747  22117569.941    22117578.8334
  24334007.717    -2497435.012 7  -1939868.94845  24334009.915    24334026.3714
  21280973.675   -19088673.716 9 -14856460.70347  21280975.873    21280985.2274
  21140481.498   -17523311.543 9 -13631064.95847  21140485.577    21140494.9634
  23620776.180    -6336473.015 8  -4924899.95245  23620777.903    23620790.9894
 00  4 23  1 35  0.0000000  0  7 21 17 26 03 23 09 29
  23989637.112    -5507114.398 8  -4282149.05045  23989637.399    23989649.7944
  20225153.332   -24401552.878 9 -18994348.09348  20225155.635    20225164.8104
  22134370.234   -13046101.412 8 -10133988.64647  22134370.040    22134379.1094
  24333495.207    -2500159.181 7  -1941991.64845  24333493.640    24333508.9674
  21273911.011   -19125788.644 9 -14885381.35647  21273912.786    21273922.1484
  21130902.548   -17573660.659 9 -13670297.96547  21130904.577    21130914.1264
  23604593.618    -6421519.584 8  -4991169.81545  23604593.408    23604606.8774
 00  4 23  1 35 30.0000000  0  7 21 17 26 03 23 09 29
  23974589.491    -5586170.622 8  -4343751.17846  23974592.075    23974606.5384
  20232053.246   -24365296.532 9 -18966096.38348  20232055.124    20232064.0454
  22151192.475   -12957666.329 8 -10065078.22147  22151198.134    22151208.0664
  24333072.125    -2502369.971 7  -1943714.32145  24333073.315    24333087.1204
  21266876.553   -19162743.826 9 -14914177.54947  21266880.388    21266889.8184
  21121427.831   -17623438.754 9 -13709086.01347  21121432.309    21121441.8474
  23588442.818    -6506376.355 8  -5057291.74845  23588446.515    23588458.5224
 00  4 23  1 36  0.0000000  0  7 21 17 26 03 23 09 29
  23959549.359    -5665228.798 8  -4405354.81946  23959548.569    23959561.6884
  20239072.561   -24328409.769 9 -18937353.44048  20239074.767    20239083.4314
  22168052.474   -12869081.980 8  -9996051.48447  22168055.349    22168064.6354
  24332747.924    -2504060.867 7  -1945031.84545  24332750.903    24332764.7014
  21259879.657   -19199523.994 9 -14942837.38247  21259881.458    21259890.7324
  21112064.573   -17672656.761 9 -13747437.63247  21112066.507    21112075.7494
  23572333.476    -6591045.728 8  -5123267.61645  23572334.791    23572346.7824
 00  4 23  1 36 30.0000000  0  7 21 17 26 03 23 09 29
  23944505.977    -5744277.944 8  -4466951.46346  23944506.288    23944519.3634
  20246210.718   -24290894.956 9 -18908121.11748  20246213.518    20246222.5684
  22184939.938   -12780337.529 8  -9926899.98747  22184942.766    22184953.2184
  24332527.856    -2505222.688 7  -1945937.16945  24332530.694    24332541.8704
  21252911.846   -19236133.896 9 -14971364.54747  21252914.818    21252924.1364
  21102806.065   -17721318.356 9 -13785355.69347  21102806.127    21102815.4464
  23556259.534    -6675525.957 8  -5189096.16045  23556258.612    23556269.7844
 00  4 23  1 37  0.0000000  0  7 21 17 26 03 23 09 29
  23929462.059    -5823312.613 8  -4528536.76246  23929466.322    23929479.4134
  20253466.097   -24252764.122 9 -18878408.77648  20253469.436    20253478.4494
  22201861.679   -12691418.981 8  -9857612.83047  22201863.699    22201873.2214
  24332404.360    -2505863.819 7  -1946436.71345  24332407.068    24332420.9674
  21245974.839   -19272583.354 9 -14999766.70047  21245978.931    21245988.0354
  21093645.885   -17769434.359 9 -13822848.62147  21093649.917    21093659.4214
  23540211.113    -6759818.610 8  -5254778.50545  23540217.966    23540229.4784
 00  4 23  1 37 30.0000000  0  7 21 17 26 03 23 09 29
  23914427.550    -5902348.597 8  -4590123.09645  23914426.105    23914438.3894
  20260839.238   -24214021.306 9 -18848219.56348  20260841.763    20260850.9744
  22218812.606   -12602333.817 8  -9788195.84647  22218816.114    22218825.9114
  24332366.515    -2505992.209 7  -1946536.71345  24332381.946    24332398.6434
  21239069.988   -19308877.969 9 -15028048.19147  21239072.185    21239081.3744
  21084589.742   -17817014.967 9 -13859924.35047  21084595.547    21084604.8694
  23524214.997    -6843907.124 8  -5320301.79845  23524215.886    23524228.5154
 00  4 23  1 38  0.0000000  0  7 21 17 26 03 23 09 29
  23899384.174    -5981391.799 8  -4651715.03745  23899383.784    23899396.7754
  20268324.075   -24174689.032 9 -18817571.03448  20268326.170    20268335.7614
  22235793.077   -12513102.910 8  -9718665.30246  22235796.012    22235805.6654
  24332461.316    -2505602.366 7  -1946232.87345  24332456.650    24332469.5304
  21232192.987   -19345026.293 9 -15056215.69048  21232193.572    21232202.1984
  21075642.633   -17864044.768 9 -13896570.87747  21075645.696    21075655.3904
  23508252.827    -6927787.362 8  -5385662.86945  23508254.099    23508265.2114
 00  4 23  1 38 30.0000000  0  7 21 17 26 03 23 09 29
  23884336.795    -6060448.839 8  -4713317.77745  23884340.041    23884352.0454
  20275916.240   -24134784.585 9 -18786476.65748  20275919.862    20275929.4164
  22252801.034   -12423733.362 8  -9649026.70646  22252802.474    22252812.5134
  24332622.693    -2504695.017 7  -1945525.81145  24332629.658    24332643.5774
  21225338.695   -19381023.648 9 -15084265.52448  21225343.387    21225352.2814
  21066799.222   -17910527.507 9 -13932791.11947  21066800.803    21066809.8384
  23492330.915    -7011456.988 8  -5450859.84045  23492331.679    23492342.7374
 00  4 23  1 39  0.0000000  0  7 21 17 26 03 23 09 29
  23869285.924    -6139532.993 8  -4774941.65945  23869290.437    23869303.0714
  20283616.350   -24094322.797 9 -18754947.99048  20283619.816    20283628.9144
  22269831.000   -12334246.990 8  -9579297.10746  22269831.575    22269841.4544
  24332902.561    -2503273.930 7  -1944418.41045  24332901.224    24332913.7244
  21218523.886   -19416855.497 9 -15112186.41648  21218524.943    21218533.8374
  21058053.538   -17956472.207 9 -13968592.11747  21058057.602    21058066.7764
  23476448.877    -7094923.324 8  -5515898.38345  23476448.269    23476459.6474
 00  4 23  1 39 30.0000000  0  7 21 17 26 03 23 09 29
  23854228.060    -6218656.959 8  -4836596.52645  23854232.784    23854246.2494
  20291422.324   -24053305.968 9 -18722986.83048  20291425.148    20291434.1964
  22286871.583   -12244667.305 8  -9509494.78546  22286877.727    22286887.2884
  24333269.126    -2501325.161 7  -1942899.85345  24333271.328    24333282.9864
  21211734.990   -19452524.748 9 -15139980.61248  21211737.347    21211745.9964
  21049420.269   -18001854.613 9 -14003954.96347  21049421.629    21049431.1424
  23460602.640    -7178190.103 8  -5580781.36545  23460603.329    23460616.4234
 00  4 23  1 40  0.0000000  0  7 21 17 26 03 23 09 29
  23839168.120    -6297815.357 8  -4898278.21945  23839168.622    23839182.2814
  20299334.074   -24011732.642 9 -18690592.04548  20299336.364    20299345.2274
  22303942.228   -12154986.055 8  -9439613.31946  22303943.897    22303952.7434
  24333735.716    -2498854.374 7  -1940974.53245  24333742.872    24333755.8304
  21204977.861   -19488031.843 9 -15167648.45348  21204980.626    21204989.2314
  21040892.688   -18046663.315 9 -14038870.77447  21040894.839    21040903.9034
  23444793.857    -7261258.974 8  -5645510.13345  23444796.155    23444807.7674
 00  4 23  1 40 30.0000000  0  7 21 17 26 03 23 09 29
  23824098.680    -6377004.166 8  -4959983.59645  23824100.757    23824112.6034
  20307356.801   -23969577.730 9 -18657744.06948  20307358.125    20307367.1864
  22321030.995   -12065178.913 8  -9369633.75446  22321033.421    22321042.1684
  24334312.137    -2495866.016 8  -1938645.87045  24334310.759    24334322.5804
  21198253.354   -19523374.348 9 -15195188.03048  21198255.257    21198263.7524
  21032473.793   -18090899.394 9 -14073340.37647  21032476.776    21032485.8404
  23429023.714    -7344135.036 8  -5710088.68846  23429025.425    23429037.6194
 00  4 23  1 41  0.0000000  0  7 21 17 26 03 23 09 29
  23809024.123    -6456211.096 8  -5021703.13445  23809027.911    23809039.1754
  20315488.753   -23926835.635 9 -18624438.55248  20315491.333    20315500.4134
  22338147.580   -11975235.073 8  -9299547.64646  22338149.307    22338157.8274
  24334971.757    -2492363.905 7  -1935916.88045  24334977.176    24334987.4834
  21191555.883   -19558566.790 9 -15222610.66948  21191558.320    21191567.0834
  21024170.872   -18134531.981 9 -14107339.72747  21024174.211    21024183.1594
  23413291.031    -7426806.325 8  -5774507.62846  23413293.417    23413305.2814
 00  4 23  1 41 30.0000000  0  7 21 17 26 03 23 09 29
  23793949.829    -6535430.158 8  -5083432.15645  23793952.951    23793965.6204
  20323735.991   -23883489.997 9 -18590662.74848  20323740.046    20323748.6794
  22355290.027   -11885142.436 8  -9229345.61846  22355292.634    22355302.3954
  24335733.857    -2488358.411 7  -1932795.63645  24335738.501    24335752.0394
  21184884.759   -19593620.335 9 -15249925.07348  21184887.627    21184896.9164
  21015988.201   -18177534.073 9 -14140847.78847  21015991.083    21015999.9554
  23397598.505    -7509266.167 8  -5838761.86346  23397602.138    23397613.5504
 00  4 23  1 42  0.0000000  0  7 21 17 26 03 23 09 29
  23778873.558    -6614649.293 8  -5145161.15846  23778877.743    23778890.9234
  20332104.498   -23839521.238 9 -18556401.38848  20332106.798    20332115.9214
  22372467.687   -11794893.148 8  -9159021.53746  22372467.583    22372476.1704
  24336594.961    -2483854.512 7  -1929286.05045  24336596.182    24336609.4664
  21178245.532   -19628522.899 9 -15277121.83248  21178246.036    21178254.9694
  21007924.110   -18219915.216 9 -14173872.00047  21007926.051    21007935.2724
  23381948.359    -7591511.650 8  -5902849.07546  23381949.953    23381961.4684
 00  4 23  1 42 30.0000000  0  7 21 17 26 03 23 09 29
  23763800.924    -6693866.829 8  -5206888.91046  23763804.081    23763815.8584
  20340590.164   -23794933.370 9 -18521657.60948  20340591.665    20340601.0254
  22389664.602   -11704504.782 8  -9088589.06046  22389667.275    22389676.8264
  24337543.714    -2478843.586 7  -1925381.44145  24337548.959    24337564.2504
  21171629.478   -19663277.115 9 -15304203.00548  21171632.718    21171641.3554
  20999977.052   -18261674.983 9 -14206412.00347  20999979.358    20999988.4684
  23366337.546    -7673542.072 8  -5966768.68246  23366340.653    23366351.7104
 00  4 23  1 43  0.0000000  0  7 21 17 26 03 23 09 29
  23748727.763    -6773091.581 8  -5268622.26746  23748728.572    23748740.3234
  20349188.432   -23749738.179 9 -18486440.59448  20349191.858    20349201.5974
  22406885.546   -11613996.636 8  -9018063.26246  22406889.808    22406899.7814
  24338587.058    -2473338.683 7  -1921091.86345  24338597.271    24338608.4494
  21165044.984   -19697879.750 9 -15331166.05948  21165047.811    21165056.7094
  20992149.738   -18302816.470 9 -14238470.24947  20992150.901    20992159.5194
  23350773.176    -7755347.289 8  -6030512.82646  23350774.274    23350784.3034
 00  4 23  1 43 30.0000000  0  7 21 17 26 03 23 09 29
  23733649.885    -6852321.634 8  -5330359.81946  23733649.252    23733662.2654
  20357906.778   -23703927.155 9 -18450743.70548  20357909.512    20357918.7664
  22424130.221   -11523370.077 8  -8947445.19646  22424135.562    22424145.7564
  24339738.418    -2467341.948 7  -1916419.00945  24339738.259    24339752.7294
  21158491.160   -19732314.912 9 -15357998.61448  21158494.620    21158503.7554
  20984431.342   -18343365.979 9 -14270067.21147  20984434.027    20984442.8074
  23335248.502    -7836937.959 8  -6094089.76746  23335246.794    23335258.1904
 00  4 23  1 44  0.0000000  0  7 21 17 26 03 23 09 29
  23718573.129    -6931539.677 8  -5392087.96746  23718575.004    23718587.4394
  20366738.474   -23657518.282 9 -18414580.95548  20366741.104    20366750.1554
  22441403.435   -11432622.002 8  -8876732.44846  22441404.361    22441413.8174
  24340967.786    -2460847.571 7  -1911358.38845  24340974.177    24340986.6484
  21151970.889   -19766582.505 9 -15384700.58848  21151973.650    21151982.6834
  20976822.743   -18383340.113 9 -14301215.83647  20976827.164    20976835.9284
  23319757.042    -7918311.641 8  -6157497.68946  23319760.534    23319772.7474
 00  4 23  1 44 30.0000000  0  7 21 17 26 03 23 09 29
  23703498.341    -7010748.844 8  -5453809.21346  23703502.595    23703513.7494
  20375679.991   -23610533.448 9 -18377969.40548  20375681.786    20375690.8564
  22458699.188   -11341751.708 8  -8805924.47046  22458697.102    22458706.4894
  24342294.594    -2453871.704 7  -1905922.66445  24342301.006    24342314.8394
  21145481.243   -19800688.725 9 -15411276.81948  21145483.457    21145492.3384
  20969328.553   -18422747.190 9 -14331922.59147  20969328.558    20969336.8434
  23304312.833    -7999461.486 8  -6220731.12046  23304319.199    23304331.1664
 00  4 23  1 45  0.0000000  0  7 21 17 26 03 23 09 29
  23688432.134    -7089943.651 8  -5515519.27246  23688432.333    23688445.0404
  20384728.743   -23562977.216 9 -18340912.61148  20384731.349    20384740.6144
  22476009.156   -11250748.174 8  -8735012.64546  22476014.536    22476023.6804
  24343712.662    -2446415.115 7  -1900112.25245  24343717.908    24343732.3844
  21139022.072   -19834632.565 9 -15437726.51248  21139024.103    21139032.9974
  20961931.735   -18461588.724 9 -14362188.67047  20961936.885    20961945.6024
  23288916.563    -8080389.969 8  -6283792.08346  23288919.713    23288930.6304
 00  4 23  1 45 30.0000000  0  7 21 17 26 03 23 09 29
  23673365.846    -7169117.372 8  -5577212.89146  23673365.726    23673377.3034
  20393884.808   -23514855.078 9 -18303414.85648  20393888.638    20393898.1274
  22493350.737   -11159614.180 8  -8663999.17646  22493357.142    22493366.4634
  24345233.212    -2438460.148 7  -1893913.59645  24345234.051    24345249.3614
  21132592.125   -19868425.806 9 -15464058.85148  21132593.230    21132602.4634
  20954654.323   -18499847.301 9 -14392000.49348  20954656.057    20954665.5214
  23273558.308    -8161110.047 8  -6346690.65746  23273558.688    23273570.6354
 00  4 23  1 46  0.0000000  0  7 21 17 26 03 23 09 29
  23658295.111    -7248288.244 8  -5638904.29446  23658300.362    23658310.1064
  20403148.597   -23466178.262 9 -18265484.89348  20403151.395    20403160.9824
  22510718.778   -11068366.959 8  -8592897.48446  22510720.506    22510730.7834
  24346842.452    -2430004.417 7  -1887324.62945  24346843.491    24346856.3534
  21126186.483   -19902077.652 9 -15490281.02148  21126189.679    21126198.7734
  20947485.311   -18537507.410 9 -14421345.96847  20947489.462    20947498.7724
  23258232.767    -8241619.378 8  -6409425.02646  23258237.553    23258249.0314
 00  4 23  1 46 30.0000000  0  7 21 17 26 03 23 09 29
  23643227.184    -7327483.380 8  -5700614.58746  23643228.283    23643239.8844
  20412518.078   -23416942.891 9 -18227119.70948  20412520.788    20412530.1974
  22528104.678   -10977015.439 8  -8521714.52446  22528104.794    22528114.0554
  24348544.110    -2421043.836 7  -1880342.32345  24348548.291    24348560.3834
  21119812.824   -19935578.209 9 -15516385.30448  21119814.845    21119823.5584
  20940438.012   -18574558.433 9 -14450216.82947  20940438.737    20940447.9474
  23242954.032    -8321917.485 8  -6471994.79346  23242956.692    23242968.6744
 00  4 23  1 47  0.0000000  0  7 21 17 26 03 23 09 29
  23628153.818    -7406701.651 8  -5762342.92946  23628154.234    23628165.6534
  20421997.671   -23367137.606 9 -18188310.43148  20421998.422    20422007.9344
  22545506.409   -10885567.353 8  -8450456.31646  22545506.059    22545515.6674
  24350350.964    -2411564.544 7  -1872955.79945  24350354.517    24350365.7074
  21113468.064   -19968920.753 9 -15542366.47548  21113469.945    21113478.6254
  20933506.537   -18610980.344 9 -14478597.49247  20933507.937    20933517.0334
  23227713.060    -8402014.329 8  -6534407.77646  23227715.181    23227726.2224
 00  4 23  1 47 30.0000000  0  7 21 17 26 03 23 09 29
  23613070.125    -7485955.159 8  -5824098.73046  23613072.367    23613084.0514
  20431585.933   -23316745.166 9 -18149043.64748  20431587.638    20431597.3894
  22562927.773   -10794031.807 8  -8379129.94546  22562924.959    22562934.8784
  24352246.627    -2401574.601 7  -1865171.35745  24352250.164    24352266.3704
  21107153.229   -20002097.170 9 -15568218.21248  21107156.377    21107165.5154
  20926694.660   -18646775.015 9 -14506489.39147  20926696.526    20926705.3544
  23212514.378    -8481903.435 8  -6596658.83246  23212512.319    23212524.3534
 00  4 23  1 48  0.0000000  0  7 21 17 26 03 23 09 29
  23597980.066    -7565234.181 8  -5885874.39446  23597985.947    23597997.4224
  20441285.108   -23265763.017 9 -18109317.36248  20441289.114    20441299.0164
  22580355.289   -10702408.148 8  -8307734.94046  22580360.460    22580370.2004
  24354249.115    -2391087.081 7  -1856999.23645  24354249.285    24354262.6044
  21100878.083   -20035086.620 9 -15593924.25048  21100879.074    21100887.9374
  20919999.492   -18681962.644 9 -14533908.27347  20920000.993    20920009.5314
  23197352.205    -8561572.764 8  -6658738.67146  23197352.765    23197363.7364
 00  4 23  1 48 30.0000000  0  7 21 17 26 03 23 09 29
  23582897.994    -7644515.838 8  -5947652.14446  23582899.614    23582911.0494
  20451103.323   -23214182.345 9 -18069124.70548  20451105.014    20451114.4824
  22597812.432   -10610692.842 8  -8236268.48946  22597813.382    22597822.4934
  24356324.493    -2380102.470 7  -1848439.73345  24356337.565    24356353.0044
  21094635.074   -20067888.573 9 -15619484.18148  21094636.891    21094645.8264
  20913416.506   -18716548.583 9 -14560858.30047  20913419.064    20913428.4464
  23182227.719    -8641032.808 8  -6720655.43946  23182231.202    23182242.1934
 00  4 23  1 49  0.0000000  0  7 21 17 26 03 23 09 29
  23567809.063    -7723780.346 8  -6009416.52446  23567815.441    23567826.8894
  20461032.776   -23161999.959 9 -18028463.15248  20461035.229    20461044.3434
  22615278.353   -10518889.760 8  -8164733.65346  22615283.602    22615292.7174
  24358518.839    -2368626.165 7  -1839497.18145  24358522.684    24358534.9544
  21088424.759   -20100513.556 9 -15644906.17948  21088428.204    21088437.5234
  20906948.430   -18750538.761 9 -14587344.10547  20906951.114    20906960.1394
  23167144.411    -8720291.815 8  -6782415.50846  23167147.853    23167159.7314
 00  4 23  1 49 30.0000000  0  7 21 17 26 03 23 09 29
  23552728.968    -7803028.633 8  -6071168.25446  23552734.029    23552747.3294
  20471074.684   -23109232.587 9 -17987345.76148  20471076.667    20471085.6284
  22632765.672   -10426990.686 8  -8093124.02746  22632770.280    22632780.7784
  24360800.618    -2356660.178 7  -1830172.99845  24360799.432    24360813.4434
  21082250.516   -20132968.137 9 -15670195.39848  21082252.194    21082261.3654
  20900589.583   -18783946.468 9 -14613376.02648  20900593.845    20900602.7824
  23152101.920    -8799346.753 8  -6844016.60046  23152104.403    23152115.5394
 00  4 23  1 50  0.0000000  0  7 21 17 26 03 23 09 29
  23537654.932    -7882242.778 8  -6132893.42546  23537660.756    23537672.7634
  20481223.097   -23055903.207 9 -17945790.44848  20481224.612    20481234.0184
  22650273.969   -10334992.880 8  -8021437.46946  22650277.496    22650286.9344
  24363173.805    -2344201.007 7  -1820464.50145  24363170.531    24363186.7604
  21076106.985   -20165253.886 9 -15695353.06848  21076108.091    21076117.7054
  20894347.923   -18816761.799 9 -14638946.36748  20894349.160    20894358.0104
  23137094.221    -8878204.435 8  -6905463.98246  23137097.449    23137108.8684
 00  4 23  1 50 30.0000000  0  7 21 17 26 03 23 09 29
  23522589.635    -7961434.536 8  -6194601.13546  23522590.791    23522603.0024
  20491476.129   -23002022.739 9 -17903805.68548  20491478.005    20491487.1234
  22667803.789   -10242892.738 8  -7949671.15646  22667803.323    22667812.5134
  24365626.077    -2331242.766 7  -1810367.07945  24365636.870    24365650.4464
  21069992.788   -20197376.490 9 -15720383.61148  21069995.673    21070004.8484
  20888218.531   -18848966.786 9 -14664041.12247  20888220.239    20888229.4064
  23122126.007    -8956859.470 8  -6966753.44446  23122130.495    23122141.2754
 00  4 23  1 51  0.0000000  0  7 21 17 26 03 23 09 29
  23507521.808    -8040621.288 8  -6256304.92846  23507522.055    23507534.5114
  20501832.118   -22947595.530 9 -17861394.89748  20501834.814    20501844.4434
  22685346.826   -10150696.319 8  -7877829.81646  22685347.386    22685357.8854
  24368196.839    -2317792.229 7  -1799886.11045  24368195.752    24368209.7284
  21063916.519   -20229315.698 9 -15745271.27048  21063918.047    21063926.8504
  20882208.878   -18880554.539 9 -14688654.91047  20882209.839    20882218.2874
  23107202.121    -9035291.946 8  -7027869.48446  23107205.029    23107216.3044
 00  4 23  1 51 30.0000000  0  7 21 17 26 03 23 09 29
  23492450.627    -8119812.081 8  -6318011.87246  23492452.364    23492464.3314
  20512292.709   -22892622.071 9 -17818558.46948  20512296.338    20512305.8174
  22702903.409   -10058403.943 8  -7805913.75346  22702909.696    22702920.3614
  24370846.148    -2303856.641 7  -1789027.20545  24370845.457    24370861.7264
  21057874.668   -20261056.524 9 -15770004.36148  21057877.864    21057886.3544
  20876315.566   -18911514.798 9 -14712779.74148  20876318.314    20876326.9994
  23092319.666    -9113492.658 8  -7088804.93246  23092323.723    23092335.0824
 00  4 23  1 52  0.0000000  0  7 21 17 26 03 23 09 29
  23477376.811    -8199016.793 8  -6379729.67346  23477380.328    23477392.4484
  20522863.546   -22837086.387 9 -17775283.93348  20522864.562    20522873.6434
  22720487.406    -9966025.943 8  -7733930.90646  22720489.359    22720498.1404
  24373587.544    -2289444.399 7  -1777796.84644  24373587.126    24373603.4494
  21051874.560   -20292593.383 9 -15794578.51248  21051876.551    21051884.8914
  20870544.421   -18941841.877 9 -14736411.18648  20870547.151    20870555.8444
  23077489.554    -9191462.268 8  -7149560.27546  23077487.736    23077497.3404
 00  4 23  1 52 30.0000000  0  7 21 17 26 03 23 09 29
  23462301.831    -8278248.338 8  -6441468.43746  23462302.997    23462315.5094
  20533540.811   -22780972.085 9 -17731558.53848  20533542.789    20533551.7464
  22738083.508    -9873562.750 8  -7661881.69746  22738084.131    22738094.9834
  24376414.769    -2274561.711 7  -1766199.94645  24376419.898    24376434.9544
  21045910.747   -20323935.021 9 -15819000.51348  21045912.559    21045920.8294
  20864894.390   -18971539.142 9 -14759551.86348  20864895.864    20864904.4114
  23062688.955    -9269208.213 8  -7210141.32946  23062690.849    23062702.2294
 00  4 23  1 53  0.0000000  0  6 21 17 26 23 09 29
  23447216.267    -8357500.813 8  -6503223.49746  23447221.360    23447233.0234
  20544332.815   -22724262.997 9 -17687369.68148  20544333.954    20544343.4474
  22755691.895    -9781024.269 8  -7589773.84946  22755693.385    22755703.7214
  21039980.843   -20355094.170 9 -15843280.31848  21039983.203    21039991.6104
  20859360.640   -19000613.649 9 -14782207.28447  20859363.090    20859371.6044
  23047931.562    -9346752.788 8  -7270565.48646  23047934.001    23047945.6554
 00  4 23  1 53 30.0000000  0  6 21 17 26 23 09 29
  23432138.518    -8436755.922 8  -6564980.62946  23432140.022    23432150.3614
  20555235.872   -22666966.773 9 -17642723.32048  20555237.289    20555246.3084
  22773320.089    -9688396.882 8  -7517596.68546  22773320.818    22773330.4004
  21034081.716   -20386096.915 9 -15867438.24848  21034083.395    21034092.0204
  20853945.608   -19029064.409 9 -14804376.65647  20853948.717    20853957.5214
  23033213.113    -9424105.112 8  -7330839.84646  23033216.183    23033225.8414
 00  4 23  1 54  0.0000000  0  7 21 17 26 03 23 09 29
  23417059.374    -8516008.566 8  -6626735.88046  23417057.953    23417068.9634
  20566247.131   -22609091.230 9 -17597625.53648  20566250.624    20566259.4854
  22790959.109    -9595683.442 8  -7445352.48246  22790963.575    22790973.2884
  24385457.970        7634.61717
  21028208.962   -20416958.657 9 -15891486.30448  21028210.916    21028219.1564
  20848649.292   -19056894.783 9 -14826062.62147  20848652.939    20848661.2904
  23018526.409    -9501269.874 8  -7390968.07546  23018531.755    23018541.9474
 00  4 23  1 54 30.0000000  0  7 21 17 26 03 23 09 29
  23401979.613    -8595240.575 8  -6688475.03746  23401980.244    23401992.1414
  20577368.167   -22550654.709 9 -17552090.62148  20577370.704    20577379.8654
  22808625.240    -9502884.245 8  -7373041.45746  22808622.950    22808632.4344
  24388648.485       24431.446 7     14071.52955                  24388668.9974
  21022364.013   -20447675.569 9 -15915421.50448  21022365.580    21022373.7014
  20843471.979   -19084101.031 9 -14847262.25348  20843475.969    20843484.5204
  23003884.240    -9578238.152 8  -7450943.19646  23003885.943    23003895.0114
 00  4 23  1 55  0.0000000  0  7 21 17 26 03 23 09 29
  23386907.628    -8674456.904 8  -6750201.96446  23386906.250    23386917.4514
  20588591.685   -22491675.286 9 -17506132.67048  20588594.280    20588603.9694
  22826293.143    -9409992.512 8  -7300658.32846  22826299.482    22826308.9194
  24391932.801       41726.321 7     27548.03444  24391941.863    24391958.4494
  21016548.291   -20478238.847 9 -15939236.99648  21016549.102    21016557.9254
  20838414.325   -19110685.722 9 -14867977.55748  20838416.927    20838425.4564
  22989279.351    -9654978.161 8  -7510740.44546  22989282.140    22989292.2394
 00  4 23  1 55 30.0000000  0  7 21 17 26 03 23 09 29
  23371833.122    -8753663.572 8  -6811921.39846  23371834.167    23371844.6814
  20599915.631   -22432172.255 9 -17459766.71448  20599916.870    20599926.9034
  22843992.642    -9316997.897 8  -7228195.00646  22843995.970    22844004.4384
  24395319.500       59507.385 7     41403.42744  24395325.006    24395341.2364
  21010764.926   -20508631.223 9 -15962919.33148  21010765.798    21010774.7034
  20833474.099   -19136648.731 9 -14888208.42848  20833476.063    20833484.8194
  22974722.415    -9731465.972 8  -7570341.13046  22974727.395    22974736.6464
 00  4 23  1 56  0.0000000  0  7 21 17 26 03 23 09 29
  23356760.485    -8832867.889 8  -6873638.98046  23356761.512    23356773.0694
  20611337.641   -22372138.536 9 -17412987.22748  20611341.118    20611350.7124
  22861704.862    -9223914.636 8  -7155662.59946  22861707.753    22861717.7174
  24398799.239       77765.152 7     55630.28544  24398800.579    24398814.5514
  21005018.197   -20538831.799 9 -15986452.21848  21005018.714    21005027.9124
  20828650.918   -19161992.006 9 -14907956.38848  20828653.533    20828662.4644
  22960219.099    -9807696.371 8  -7629741.29446  22960221.357    22960230.4834
 00  4 23  1 56 30.0000000  0  7 21 17 26 03 23 09 29
  23341689.424    -8912070.195 8  -6935354.99646  23341690.560    23341700.8964
  20622862.449   -22311567.552 9 -17365789.09348  20622867.229    20622877.2064
  22879434.172    -9130747.100 8  -7083064.56746  22879437.990    22879447.8204
  24402364.273       96494.299 7     70224.42645  24402365.554    24402378.1324
  20999309.424   -20568822.141 9 -16009821.29248  20999311.948    20999320.8754
  20823947.022   -19186720.165 9 -14927225.03048  20823947.691    20823956.5894
  22945761.789    -9883665.941 8  -7688938.22646  22945764.771    22945774.3224
 00  4 23  1 57  0.0000000  0  7 21 17 26 03 23 09 29
  23326618.362    -8991272.173 8  -6997070.74646  23326619.400    23326629.7964
  20634498.274   -22250443.748 9 -17318160.18348  20634498.775    20634508.5394
  22897180.428    -9037505.483 8  -7010408.79846  22897180.833    22897190.7654
  24406011.650      115688.438 7     85180.88445  24406018.063    24406032.0954
  20993639.017   -20598610.906 9 -16033033.30448  20993642.994    20993652.0584
  20819355.880   -19210838.657 9 -14946018.61648  20819357.830    20819366.9414
  22931350.795    -9959391.800 8  -7747945.23146  22931354.135    22931364.4334
 00  4 23  1 57 30.0000000  0  7 21 17 26 03 23 09 29
  23311553.238    -9070457.981 8  -7058773.92246  23311551.472    23311560.0674
  20646236.154   -22188751.126 9 -17270088.04348  20646238.756    20646248.0174
  22914927.523    -8944219.340 8  -6937718.34046  22914932.654    22914942.4424
  24409758.400      135346.289 7    100498.68745  24409760.287    24409771.1764
  20988009.843   -20628203.530 9 -16056092.46448  20988011.672    20988020.8774
  20814882.905   -19234343.852 9 -14964334.32048  20814884.919    20814894.2404
  22916979.131   -10034912.212 8  -7806792.15646  22916982.357    22916992.8474
 00  4 23  1 58  0.0000000  0  7 21 17 26 03 23 09 29
  23296481.583    -9149625.758 8  -7120463.03646  23296484.629    23296494.8414
  20658086.579   -22126472.538 9 -17221559.30647  20658089.590    20658099.6384
  22932687.108    -8850905.068 8  -6865005.95946  22932689.987    22932698.7754
  24413592.542      155489.141 7    116194.42445  24413594.825    24413605.3364
  20982413.112   -20657605.758 9 -16079003.26648  20982416.513    20982425.8074
  20810529.475   -19257228.232 9 -14982166.26548  20810530.397    20810539.5324
  22902645.559   -10110238.835 8  -7865488.07246  22902648.465    22902658.2834
 00  4 23  1 58 30.0000000  0  7 21 17 26 03 23 09 29
  23281415.921    -9228777.046 8  -7182139.26346  23281421.881    23281434.2074
  20670049.628   -22063608.905 9 -17172574.69447  20670052.195    20670062.1234
  22950449.294    -8757556.348 8  -6792266.73446  22950454.033    22950463.4064
  24417517.525      176116.622 7    132267.79945  24417517.561    24417530.7884
  20976853.047   -20686834.577 9 -16101778.94548  20976854.862    20976863.8584
  20806289.189   -19279497.106 9 -14999518.59548  20806292.845    20806301.6844
  22888345.161   -10185381.755 8  -7924040.86946  22888349.543    22888358.2984
 00  4 23  1 59  0.0000000  0  7 21 17 26 03 23 09 29
  23266363.746    -9307908.458 8  -7243800.00146  23266365.304    23266376.1184
  20682123.812   -22000162.766 9 -17123136.17948  20682126.069    20682135.8714
  22968222.695    -8664167.603 8  -6719496.33946  22968224.590    22968234.1724
  24421526.774      197212.700 7    148706.25645  24421531.289    24421545.4444
  20971323.134   -20715905.435 9 -16124431.54248  20971322.950    20971331.7594
  20802173.208   -19301129.554 9 -15016375.00248  20802176.415    20802184.9464
  22874083.748   -10260337.127 8  -7982447.55146  22874085.927    22874095.6474
 00  4 23  1 59 30.0000000  0  7 21 17 26 03 23 09 29
  23251309.226    -9387023.870 8  -7305448.26446  23251309.748    23251319.8254
  20694305.525   -21936144.612 9 -17073251.93348  20694308.505    20694317.9094
  22986003.102    -8570731.975 8  -6646689.39346  22986005.047    22986013.6604
  24425630.145      218771.473 7    165505.26044  24425631.069    24425646.2924
  20965822.494   -20744801.477 9 -16146947.91948  20965823.892    20965832.8894
  20798178.172   -19322112.290 9 -15032725.15048  20798183.444    20798192.1454
  22859860.949   -10335074.867 8  -8040684.60146  22859863.150    22859873.5864
 00  4 23  2  0  0.0000000  0  7 21 17 26 03 23 09 29
  23236250.851    -9466115.634 8  -7367078.07746  23236257.844    23236268.4514
  20706591.764   -21871582.929 9 -17022944.15347  20706594.117    20706602.9964
  23003793.645    -8477233.162 8  -6573833.20246  23003797.971    23003807.2454
  24429820.590      240778.562 7    182653.62645  24429824.261    24429835.5674
  20960359.039   -20773513.556 9 -16169320.94248  20960359.849    20960369.0274
  20794314.732   -19342441.276 9 -15048565.88048  20794315.186    20794323.6334
  22845684.774   -10409571.852 8  -8098734.08446  22845686.481    22845696.3114
 00  4 23  2  0 30.0000000  0  7 21 17 26 03 23 09 29
  23221205.170    -9545170.604 8  -7428679.20346  23221214.416    23221225.2874
  20718974.905   -21806501.508 9 -16972231.37247  20718978.255    20718987.8004
  23021601.301    -8383666.594 8  -6500924.24046  23021602.697    23021612.7614
  24434095.697      263215.559 7    200136.98545  24434091.536    24434104.0344
  20954928.315   -20802043.640 9 -16191552.14048  20954931.004    20954939.6664
  20790569.913   -19362109.848 9 -15063892.00248  20790571.942    20790580.8554
  22831555.845   -10483824.252 8  -8156592.96346  22831557.368    22831566.4594
 00  4 23  2  1  0.0000000  0  7 21 17 26 03 23 09 29
  23206174.998    -9624185.314 8  -7490248.98646  23206178.984    23206189.5294
  20731455.777   -21740920.207 9 -16921129.08447  20731457.988    20731467.2034
  23039413.488    -8290044.221 8  -6427971.78246  23039418.496    23039428.1814
  24438443.568      286094.315 7    217964.53345  24438444.025    24438459.6884
  20949537.411   -20830375.812 9 -16213629.13448  20949539.827    20949548.3114
  20786954.665   -19381115.082 9 -15078701.24548  20786955.877    20786964.3434
  22817472.388   -10557814.086 8  -8214247.26846  22817476.442    22817486.9474
 00  4 23  2  1 30.0000000  0  7 21 17 26 03 23 09 29
  23191148.163    -9703165.919 8  -7551792.18346  23191148.868    23191160.3714
  20744032.184   -21674841.750 9 -16869639.41347  20744032.573    20744041.6904
  23057240.233    -8196363.395 8  -6354973.76546  23057245.415    23057254.8164
  24442888.142      309437.723 7    236154.20144  24442889.311    24442898.2334
  20944183.744   -20858504.611 9 -16235547.63848  20944186.930    20944195.4664
  20783457.705   -19399476.900 9 -15093009.12348  20783461.630    20783469.4964
  22803438.971   -10631550.254 8  -8271703.93046  22803444.368    22803455.5734
 00  4 23  2  2  0.0000000  0  7 21 17 26 03 23 09 29
  23176120.452    -9782115.083 8  -7613310.87246  23176123.943    23176136.8564
  20756699.962   -21608256.175 9 -16817754.57847  20756703.300    20756713.1574
  23075082.132    -8102622.198 8  -6281928.72246  23075083.617    23075094.6924
  24447415.688      333254.185 7    254712.42945  24447420.891    24447433.0404
  20938867.044   -20886442.831 9 -16257317.64548  20938870.422    20938878.8534
  20780089.252   -19417198.807 9 -15106818.35748  20780089.565    20780097.2914
  22789453.109   -10705062.618 8  -8328986.18746  22789455.536    22789465.9674
 00  4 23  2  2 30.0000000  0  7 21 17 26 03 23 09 29
  23161100.239    -9861052.540 8  -7674820.43846  23161103.262    23161114.6894
  20769473.746   -21541135.457 9 -16765452.75747  20769475.936    20769485.6404
  23092924.961    -8008820.935 8  -6208836.89246  23092933.441    23092943.5904
  24452039.788      357551.048 7    273645.00545  24452044.814    24452055.9114
  20933589.194   -20914185.027 9 -16278934.90648  20933591.298    20933599.9184
  20776835.287   -19434289.041 9 -15120135.39348  20776836.851    20776845.4694
  22775507.778   -10778347.872 8  -8386091.49946  22775510.330    22775520.0184
 00  4 23  2  3  0.0000000  0  7 21 17 26 03 23 09 29
  23146078.088    -9940004.580 8  -7736341.40246  23146080.230    23146090.8684
  20782352.128   -21473465.624 9 -16712723.05647  20782352.981    20782362.6754
  23110786.748    -7914952.435 8  -6135692.63746  23110795.975    23110805.3664
  24456750.404      382326.456 7    292950.49145  24456757.806    24456771.4554
  20928348.138   -20941724.398 9 -16300394.12548  20928350.982    20928359.1704
  20773699.952   -19450759.942 9 -15132969.83048  20773702.503    20773710.9994
  22761602.434   -10851414.610 8  -8443026.52046  22761606.288    22761616.1974
 00  4 23  2  3 30.0000000  0  7 21 17 26 03 23 09 29
  23131047.336   -10018972.327 8  -7797874.60746  23131051.883    23131063.4244
  20795334.782   -21405227.681 9 -16659550.67147  20795338.245    20795347.9504
  23128673.134    -7821010.374 8  -6062491.07346  23128671.742    23128682.6964
  24461558.577      407555.432 7    312609.39245  24461559.742    24461574.0464
  20923146.956   -20969060.863 9 -16321695.23048  20923148.850    20923157.0444
  20770688.012   -19466605.641 9 -15145317.08448  20770687.256    20770695.3064
  22747741.379   -10924278.544 8  -8499803.49546  22747740.581    22747750.7874
 00  4 23  2  4  0.0000000  0  7 21 17 26 03 23 09 29
  23116019.136   -10097949.821 8  -7859415.39146  23116022.745    23116034.6794
  20808428.239   -21336427.128 9 -16605939.88647  20808430.820    20808439.9514
  23146555.984    -7727008.980 8  -5989243.28146  23146560.851    23146570.4654
  24466433.113      433214.844 7    332603.72145  24466441.565    24466454.3494
  20917985.084   -20996183.994 9 -16342830.08148  20917987.165    20917995.9044
  20767789.192   -19481824.756 9 -15157176.09848  20767790.880    20767799.5914
  22733912.875   -10996921.094 8  -8556407.96146  22733916.257    22733927.4314
 00  4 23  2  4 30.0000000  0  7 21 17 26 03 23 09 29
  23100990.469   -10176937.479 8  -7920964.10346  23100992.319    23101004.0454
  20821626.082   -21267070.931 9 -16551896.11247  20821628.670    20821638.0664
  23164458.354    -7632955.596 8  -5915954.97246  23164458.453    23164469.1854
  24471407.624      459291.934 7    352923.51945  24471404.150    24471416.9304
  20912865.565   -21023088.272 9 -16363794.41848  20912867.605    20912875.9364
  20765008.194   -19496430.174 9 -15168556.90248  20765011.487    20765020.5994
  22720138.550   -11069320.524 8  -8612823.00346  22720139.018    22720149.6504
 00  4 23  2  5  0.0000000  0  7 21 17 26 03 23 09 29
  23085961.173   -10255915.151 8  -7982505.03746  23085964.200    23085975.6744
  20834928.763   -21197166.337 9 -16497425.02747  20834931.298    20834941.1284
  23182360.421    -7538854.476 8  -5842629.47646  23182364.903    23182375.0834
  24476445.487      485783.568 7    373566.36445  24476444.044    24476459.5694
  20907786.319   -21049781.033 9 -16384593.93748  20907788.174    20907796.4784
  20762349.785   -19510408.859 9 -15179449.35348  20762351.769    20762359.8594
  22706400.428   -11141486.557 8  -8669056.17846  22706406.022    22706417.8194
 00  4 23  2  5 30.0000000  0  7 21 17 26 03 23 09 29
  23070942.201   -10334856.838 8  -8044017.89046  23070942.336    23070951.7964
  20848335.607   -21126715.911 9 -16442528.61347  20848337.980    20848347.3234
  23200272.217    -7444719.514 8  -5769277.58946  23200278.035    23200287.5884
  24481566.057      512688.525 7    394531.24745  24481564.276    24481577.5154
  20902744.355   -21076270.510 9 -16405235.04448  20902747.210    20902755.6114
  20759808.642   -19523750.597 9 -15189845.47948  20759812.731    20759820.8554
  22692719.767   -11213400.659 8  -8725093.02046  22692721.835    22692731.7914
 00  4 23  2  6  0.0000000  0  7 21 17 26 03 23 09 29
  23055928.677   -10413760.354 8  -8105501.02546  23055926.810    23055937.0534
  20861841.641   -21055741.282 9 -16387223.73847  20861844.035    20861853.2774
  23218190.203    -7350553.350 8  -5695901.41646  23218196.951    23218208.6154
  24486767.202      540017.722 7    415826.72045  24486765.376    24486780.6584
  20897741.442   -21102569.834 9 -16425727.96748  20897742.405    20897751.0234
  20757392.655   -19536456.221 9 -15199745.93248  20757395.127    20757403.0064
  22679082.320   -11285057.950 8  -8780929.75446  22679085.555    22679095.4324
 00  4 23  2  6 30.0000000  0  7 21 17 26 03 23 09 29
  23040916.473   -10492617.284 8  -8166947.84546  23040920.354    23040931.1964
  20875441.733   -20984255.746 9 -16331520.75747  20875446.913    20875456.6754
  23236120.061    -7256347.310 8  -5622494.18446  23236124.644    23236134.6724
  24492042.789      567780.822 7    437460.25145  24492048.404    24492062.2724
  20892771.707   -21128683.362 9 -16446076.12748  20892773.439    20892781.8964
  20755099.526   -19548511.594 9 -15209139.69948  20755101.012    20755109.1694
  22665490.947   -11356491.793 8  -8836592.38946  22665492.452    22665502.7494
 00  4 23  2  7  0.0000000  0  7 21 17 26 03 23 09 29
  23025926.326   -10571413.402 8  -8228347.28546  23025926.103    23025937.1904
  20889143.239   -20912277.033 9 -16275433.48447  20889144.523    20889154.0444
  23254055.005    -7162094.742 8  -5549050.67046  23254060.560    23254069.8584
  24497410.269      595989.446 7    459440.96044  24497415.812    24497433.1944
  20887835.958   -21154617.166 9 -16466284.26148  20887838.188    20887847.1064
  20752930.380   -19559896.564 9 -15218011.07748  20752933.944    20752942.6254
  22651936.829   -11427719.441 8  -8892094.35146  22651938.870    22651947.8744
 00  4 23  2  7 30.0000000  0  7 21 17 26 03 23 09 29
  23010942.041   -10650156.014 8  -8289705.04746  23010942.434    23010953.2234
  20902929.560   -20839821.216 9 -16218974.43247  20902931.915    20902941.6404
  23271995.017    -7067804.506 8  -5475577.78346  23272004.048    23272012.6554
  24502869.521      624645.139 7    481770.12244  24502870.495    24502882.6534
  20882936.650   -21180368.254 9 -16486350.02348  20882937.884    20882946.8834
  20750889.171   -19570626.023 9 -15226371.65848  20750892.600    20750901.1194
  22638419.157   -11498740.543 8  -8947435.36446  22638423.627    22638433.8694
 00  4 23  2  8  0.0000000  0  7 21 17 26 03 23 09 29
  22995959.977   -10728859.889 8  -8351032.64146  22995964.271    22995976.1524
  20916806.182   -20766895.187 9 -16162148.98647  20916809.604    20916819.0524
  23289953.604    -6973473.637 8  -5402073.26246  23289953.948    23289964.3214
  24508406.941      653756.534 7    504454.28545  24508410.217    24508422.1294
  20878075.104   -21205912.189 9 -16506254.38248  20878077.013    20878085.8364
  20748972.872   -19580700.925 9 -15234222.19848  20748975.470    20748983.6494
  22624942.096   -11569569.049 8  -9002626.28946  22624944.880    22624955.3674
 00  4 23  2  8 30.0000000  0  7 21 17 26 03 23 09 29
  22980991.526   -10807526.227 8  -8412330.96746  22980994.605    22981005.7334
  20930780.667   -20693469.374 9 -16104934.10147  20930781.773    20930791.6864
  23307906.493    -6879104.146 8  -5328538.63246  23307912.438    23307921.4494
  24514027.681      683322.131 7    527492.43144  24514035.683    24514050.1544
  20873255.814   -21231238.986 9 -16525989.54448  20873257.472    20873266.3864
  20747181.577   -19590117.415 9 -15241559.69348  20747183.647    20747191.7834
  22611503.359   -11640196.811 8  -9057660.79646  22611505.135    22611514.5004
 00  4 23  2  9  0.0000000  0  7 21 17 26 03 23 09 29
  22966029.133   -10886170.545 8  -8473612.15446  22966029.503    22966040.1494
  20944849.512   -20619530.269 9 -16047319.25347  20944851.863    20944861.7464
  23325874.855    -6784703.730 8  -5254979.90046  23325875.880    23325885.8254
  24519750.199      713338.971 7    550882.15044  24519746.718    24519761.2244
  20868478.327   -21256347.302 9 -16545554.45648  20868479.770    20868488.2674
  20745509.000   -19598895.145 9 -15248399.45448  20745513.161    20745521.1704
  22598108.415   -11710588.781 8  -9112511.57046  22598110.283    22598119.5134
 00  4 23  2  9 30.0000000  0  7 21 17 26 03 23 09 29
  22951065.627   -10964801.015 8  -8534882.54346  22951066.482    22951077.3574
  20959021.427   -20545064.100 9 -15989293.71347  20959022.630    20959032.2704
  23343837.114    -6690281.036 8  -5181403.81646  23343843.729    23343854.7754
  24525546.544      743791.316 7    574611.25244  24525543.304    24525558.5534
  20863743.417   -21281221.767 9 -16564937.13448  20863746.313    20863755.0394
  20743957.418   -19607051.200 9 -15254754.79448  20743961.534    20743969.1494
  22584759.952   -11780730.829 8  -9167167.59146  22584762.832    22584771.6514
 00  4 23  2 10  0.0000000  0  7 21 17 26 03 23 09 29
  22936106.637   -11043416.198 8  -8596141.03746  22936105.948    22936117.3734
  20973291.213   -20470065.600 9 -15930853.35947  20973294.045    20973303.5284
  23361825.004    -6595821.302 8  -5107798.89046  23361820.387    23361829.2884
  24531416.417      774678.426 7    598679.05044  24531421.255    24531434.9684
  20859055.155   -21305861.098 9 -16584136.59148  20859057.652    20859066.0664
  20742527.675   -19614573.005 9 -15260615.91148  20742529.904    20742537.9634
  22571461.680   -11850616.318 8  -9221623.68446  22571463.008    22571473.3314
 00  4 23  2 10 30.0000000  0  7 21 17 26 03 23 09 29
  22921149.875   -11122004.373 8  -8657378.46446  22921150.758    22921163.0584
  20987664.210   -20394539.152 9 -15872001.61947  20987666.604    20987676.0754
  23379791.760    -6501326.599 8  -5034166.68146  23379800.966    23379810.4484
  24537380.212      805991.557 7    623078.91944  24537377.467    24537392.4974
  20854408.343   -21330286.326 9 -16603169.21348  20854409.401    20854417.7064
  20741213.821   -19621474.613 9 -15265993.76348  20741216.069    20741224.4014
  22558212.228   -11920241.045 8  -9275876.59146  22558213.859    22558223.9094
 00  4 23  2 11  0.0000000  0  7 21 17 26 03 23 09 29
  22906201.632   -11200559.133 8  -8718589.89446  22906203.555    22906213.3144
  21002131.328   -20318514.595 9 -15812761.74147  21002133.878    21002143.2054
  23397789.857    -6406803.043 8  -4960511.98046  23397788.604    23397798.6404
  24543411.496      837729.245 7    647809.51744  24543419.164    24543431.2374
  20849799.636   -21354493.875 9 -16622032.22348  20849802.916    20849811.3194
  20740017.353   -19627757.601 9 -15270889.56848  20740020.018    20740029.0774
  22545012.220   -11989615.535 8  -9329934.52446  22545012.852    22545022.3404
 00  4 23  2 11 30.0000000  0  7 21 17 26 03 23 09 29
  22891260.313   -11279077.058 8  -8779772.63346  22891261.913    22891271.1934
  21016692.867   -20241994.389 9 -15753135.64447  21016694.981    21016704.2834
  23415778.607    -6312254.252 8  -4886837.61646  23415780.270    23415791.4504
  24549532.418      869892.738 7    672871.95144  24549535.997    24549553.1194
  20845235.034   -21378490.499 9 -16640730.90148  20845236.754    20845244.8604
  20738946.244   -19633394.876 9 -15275282.21948  20738947.851    20738956.4884
  22531850.478   -12058754.217 8  -9383808.71146  22531855.522    22531865.6474
 00  4 23  2 12  0.0000000  0  7 21 17 26 03 23 09 29
  22876327.585   -11357563.089 8  -8840930.51846  22876326.503    22876336.2914
  21031347.843   -20164979.032 9 -15693123.70047  21031350.454    21031359.7134
  23433773.292    -6217691.679 8  -4813152.57546  23433775.509    23433785.4314
  24555740.082      902493.544 7    698275.13744  24555746.321    24555755.7494
  20840705.472   -21402291.438 9 -16659277.09148  20840707.097    20840715.6834
  20738000.551   -19638368.611 9 -15279157.82448  20738001.574    20738009.6844
  22518735.622   -12127667.541 8  -9437507.26946  22518740.936    22518751.9414
 00  4 23  2 12 30.0000000  0  7 21 17 26 03 23 09 29
  22861396.769   -11436000.737 8  -8902050.67046  22861400.012    22861410.3464
  21046096.530   -20087468.634 9 -15632726.02447  21046100.254    21046109.8964
  23451767.823    -6123132.995 8  -4739470.50846  23451768.818    23451778.8514
  24562035.063      935521.398 7    724011.11844  24562029.963    24562042.6254
  20836214.812   -21425892.558 9 -16677667.57348  20836215.946    20836224.4394
  20737179.044   -19642680.345 9 -15282517.58848  20737180.663    20737189.0714
  22505662.678   -12196365.334 8  -9491037.88746  22505668.388    22505679.0044
 00  4 23  2 13  0.0000000  0  7 21 17 26 03 23 09 29
  22846482.434   -11514391.852 8  -8963134.58446  22846483.342    22846492.4134
  21060943.997   -20009461.644 9 -15571941.39347  21060944.422    21060954.2884
  23469758.901    -6028576.979 8  -4665790.50646  23469762.462    23469771.8404
  24568381.898      968967.195 7    750072.69644  24568394.799    24568406.9214
  20831762.822   -21449282.151 9 -16695893.23948  20831765.280    20831773.5934
  20736485.832   -19646315.462 9 -15285350.11748  20736488.927    20736497.6094
  22492633.702   -12264848.541 8  -9544401.30246  22492637.007    22492645.8344
 00  4 23  2 13 30.0000000  0  7 21 17 26 03 23 09 29
  22831576.508   -11592731.900 8  -9024178.71546  22831576.078    22831584.9744
  21075883.353   -19930949.620 9 -15510763.23547  21075884.773    21075894.7194
  23487756.634    -5934022.230 8  -4592111.49246  23487754.098    23487766.3464
  24574836.503     1002822.943 7    776453.76944  24574834.440    24574852.9644
  20827354.480   -21472458.480 9 -16713952.71148  20827355.032    20827363.3364
  20735920.600   -19649279.918 9 -15287660.05448  20735924.763    20735933.2594
  22479641.196   -12333110.074 8  -9597591.98946  22479646.395    22479656.9294
 00  4 23  2 14  0.0000000  0  7 21 17 26 03 23 09 29
  22816674.843   -11671009.782 8  -9085174.39646  22816678.671    22816689.5324
  21090915.893   -19851942.473 9 -15449199.26047  21090919.822    21090929.3604
  23505747.710    -5839464.800 8  -4518430.45646  23505749.180    23505759.4664
  24581347.941     1037070.713 7    803140.32644  24581355.506    24581366.1414
  20822985.724   -21495405.854 9 -16731833.76648  20822988.165    20822996.7094
  20735481.048   -19651594.247 9 -15289463.39848  20735484.570    20735493.5954
  22466698.424   -12401142.147 8  -9650603.87046  22466700.526    22466710.2544
 00  4 23  2 14 30.0000000  0  7 21 17 26 03 23 09 29
  22801794.863   -11749222.910 8  -9146119.61846  22801794.929    22801805.5954
  21106043.302   -19772453.183 9 -15387259.59447  21106046.041    21106055.2334
  23523747.046    -5744884.436 8  -4444731.49345  23523746.435    23523756.3844
  24587939.222     1071692.393 7    830118.21044  24587942.720    24587954.3304
  20818663.810   -21518116.863 9 -16749530.62848  20818666.263    20818675.0844
  20735163.159   -19653271.346 9 -15290770.19848  20735165.467    20735173.8534
  22453797.867   -12468927.723 8  -9703423.68346  22453801.273    22453810.5164
 00  4 23  2 15  0.0000000  0  7 21 17 26 03 23 09 29
  22786917.444   -11827396.352 8  -9207033.91446  22786918.802    22786929.8314
  21121258.917   -19692480.875 9 -15324943.54747  21121263.993    21121273.7844
  23541745.166    -5650269.086 8  -4371005.28145  23541752.184    23541761.7354
  24594597.557     1106697.964 7    857395.26544  24594600.332    24594617.9184
  20814384.304   -21540609.003 9 -16767056.94048  20814386.117    20814394.9284
  20734965.962   -19654314.522 9 -15291583.03548  20734966.772    20734975.2624
  22440951.565   -12536452.839 8  -9756040.53546  22440951.612    22440960.8844
 00  4 23  2 15 30.0000000  0  7 21 17 26 03 23 09 29
  22772046.034   -11905547.443 8  -9267930.80246  22772048.942    22772057.9144
  21136570.310   -19612031.703 9 -15262255.92247  21136572.986    21136582.5654
  23559750.599    -5555621.924 8  -4297254.28145  23559762.619    23559772.9804
  24601342.029     1142099.440 7    884980.79744  24601340.455    24601353.5534
  20810144.740   -21562889.179 9 -16784418.09348  20810146.428    20810154.9584
  20734885.182   -19654726.290 9 -15291903.86848  20734888.120    20734896.9434
  22428145.626   -12603718.316 8  -9808455.05746  22428151.143    22428161.0214
 00  4 23  2 16  0.0000000  0  7 21 17 26 03 23 09 29
  22757173.457   -11983684.329 8  -9328816.60246  22757178.551    22757187.5184
  21151969.014   -19531114.288 9 -15199203.43647  21151971.178    21151981.0294
  23577778.633    -5460938.366 8  -4223474.93645  23577780.718    23577790.6564
  24608141.975     1177903.292 7    912879.88044  24608153.064    24608165.3604
  20805942.831   -21584963.433 9 -16801618.74148  20805945.914    20805954.3024
  20734928.772   -19654504.460 9 -15291730.99148  20734930.402    20734939.0044
  22415394.508   -12670736.453 8  -9860676.87346  22415398.574    22415407.7904
 00  4 23  2 16 30.0000000  0  7 21 17 26 03 23 09 29
  22742310.153   -12061805.443 8  -9389690.11546  22742312.735    22742322.3934
  21167455.753   -19449732.937 9 -15135789.43647  21167457.794    21167466.9984
  23595803.590    -5366222.200 8  -4149670.15545  23595804.651    23595815.2804
  24615054.639     1214133.494 7    941111.17644  24615050.947    24615060.3844
  20801778.519   -21606844.810 9 -16818669.06748  20801782.018    20801790.2114
  20735094.152   -19653639.871 9 -15291057.26248  20735095.052    20735103.7274
  22402688.214   -12737518.347 8  -9912714.58846  22402690.558    22402699.5184
 00  4 23  2 17  0.0000000  0  7 21 17 26 03 23 09 29
  22727449.948   -12139900.966 8  -9450543.68546  22727451.260    22727461.4754
  21183030.870   -19367891.843 9 -15072017.20447  21183031.629    21183041.4554
  23613834.255    -5271487.127 8  -4075850.64345  23613831.592    23613841.5554
  24622014.929     1250804.488 7    969685.98344  24622025.726    24622039.9194
  20797653.513   -21628521.940 9 -16835560.25648  20797656.787    20797664.8804
  20735378.587   -19652133.037 9 -15289883.08048  20735382.157    20735390.2214
  22390022.960   -12804084.045 8  -9964583.84446  22390023.653    22390032.2034
 00  4 23  2 17 30.0000000  0  7 21 17 26 03 23 09 29
  22712596.959   -12217947.651 8  -9511359.20946  22712599.923    22712610.0744
  21198687.227   -19285598.863 9 -15007892.85147  21198691.191    21198701.1164
  23631856.393    -5176744.934 8  -4002025.59545  23631860.506    23631871.2774
  24629082.092     1287898.893 7    998590.67244  24629084.341    24629097.2104
  20793574.921   -21649958.646 9 -16852264.12748  20793577.524    20793585.9644
  20735789.709   -19649980.106 9 -15288205.44348  20735791.735    20735799.5964
  22377390.933   -12870449.821 8 -10016297.32746  22377393.943    22377403.5384
 00  4 23  2 18  0.0000000  0  7 21 17 26 03 23 09 29
  22697762.688   -12295915.307 8  -9572113.12846  22697763.424    22697772.3224
  21214436.467   -19202844.423 9 -14943408.92647  21214439.136    21214448.5014
  23649892.658    -5081997.845 8  -3928196.74245  23649890.393    23649900.3284
  24636227.040     1325398.217 7   1027810.85044  24636218.946    24636232.5954
  20789541.447   -21671145.657 9 -16868773.41248  20789545.654    20789554.3314
  20736320.534   -19647178.852 9 -15286022.63248  20736324.902    20736332.5484
  22364802.806   -12936605.053 8 -10067846.74246  22364804.940    22364814.6634
 00  4 23  2 18 30.0000000  0  7 21 17 26 03 23 09 29
  22682942.332   -12373796.071 8  -9632799.36746  22682942.536    22682952.0864
  21230274.037   -19119619.292 9 -14878558.21047  21230276.281    21230285.7574
  23667911.051    -4987252.842 7  -3854369.51245  23667918.803    23667929.8594
  24643431.569     1363293.741 7   1057339.78544  24643433.154    24643445.8744
  20785562.115   -21692069.744 9 -16885077.81948  20785563.777    20785572.5174
  20736980.434   -19643717.895 9 -15283325.75948  20736982.983    20736991.5244
  22352255.101   -13002533.498 8 -10119219.42946  22352258.380    22352268.7934
 00  4 23  2 19  0.0000000  0  6 21 17 26 23 09 29
  22668136.419   -12451600.019 8  -9693425.77446  22668137.511    22668145.6844
  21246204.210   -19035907.656 9 -14813328.41247  21246205.852    21246215.7904
  23685944.761    -4892509.666 8  -3780543.72945  23685947.443    23685958.4834
  20781632.639   -21712722.929 9 -16901171.15848  20781633.943    20781642.2604
  20737761.436   -19639599.528 9 -15280116.62248  20737766.762    20737775.1734
  22339755.078   -13068232.253 8 -10170413.14646  22339756.917    22339766.8594
 00  4 23  2 19 30.0000000  0  7 21 15 17 26 23 09 29
  22653342.244   -12529336.762 8  -9753999.82946  22653344.120    22653354.2534
  24237331.487    -1322404.88417  -1005815.52355  24237336.834    24237351.7914
  21262228.241   -18951698.064 9 -14747710.59347  21262230.298    21262240.4314
  23703972.659    -4797777.232 8  -3706726.26545  23703976.288    23703986.0684
  20777751.781   -21733111.635 9 -16917058.41548  20777753.900    20777762.4134
  20738673.324   -19634815.181 9 -15276388.52948  20738677.047    20738686.0004
  22327297.275   -13133691.125 8 -10221419.95846  22327299.833    22327310.5294
 00  4 23  2 20  0.0000000  0  7 21 15 17 26 23 09 29
  22638558.318   -12607017.480 8  -9814530.16146  22638562.310    22638571.9134
  24217238.681    -1428046.741 7  -1088133.73545  24217234.482    24217248.7054
  21278344.765   -18867000.286 9 -14681712.37747  21278347.773    21278357.6164
  23721996.689    -4703058.052 8  -3632919.14645  23722000.384    23722011.2904
  20773915.923   -21753269.366 9 -16932765.71248  20773917.915    20773926.3104
  20739712.375   -19629365.391 9 -15272141.91948  20739714.252    20739722.5094
  22314890.356   -13198899.770 8 -10272231.78346  22314891.268    22314901.3354
 00  4 23  2 20 30.0000000  0  7 21 15 17 26 23 09 29
  22623785.211   -12684660.761 8  -9875031.34546  22623786.964    22623796.7954
  24197175.458    -1533484.648 7  -1170293.02245  24197169.911    24197184.5454
  21294551.212   -18781833.340 9 -14615348.57647  21294554.850    21294564.5364
  23740023.786    -4608348.041 8  -3559119.17545  23740023.268    23740034.0294
  20770120.728   -21773210.458 9 -16948304.20548  20770123.312    20770131.6154
  20740872.953   -19623263.186 9 -15267386.94048  20740875.422    20740883.5604
  22302521.406   -13263878.293 8 -10322864.30846  22302525.805    22302535.1954
 00  4 23  2 21  0.0000000  0  7 21 15 17 26 23 09 29
  22609013.772   -12762273.596 8  -9935508.82746  22609017.834    22609026.7604
  24177138.249    -1638715.739 7  -1252291.14045  24177145.270    24177159.4574
  21310846.698   -18696212.328 9 -14548630.95147  21310848.530    21310857.7644
  23758048.284    -4513638.787 8  -3485319.81445  23758045.396    23758056.5664
  20766365.498   -21792941.696 9 -16963679.18448  20766368.461    20766376.7304
  20742152.787   -19616532.282 9 -15262142.05048  20742155.977    20742164.5264
  22290200.069   -13328640.076 8 -10373327.95146  22290202.357    22290211.1924
 00  4 23  2 21 30.0000000  0  7 21 15 17 26 23 09 29
  22594256.606   -12839840.484 8  -9995950.55946  22594256.976    22594266.5574
  24157155.606    -1743737.185 7  -1334125.94145  24157159.643    24157173.4784
  21327222.415   -18610160.806 9 -14481577.86247  21327223.297    21327232.8764
  23776065.087    -4418924.884 8  -3411516.82545  23776069.123    23776080.2024
  20762650.294   -21812468.583 9 -16978894.94148  20762652.603    20762661.0694
  20743553.100   -19609179.907 9 -15256412.89948  20743555.348    20743563.9134
  22277918.742   -13393176.250 8 -10423615.78446  22277921.359    22277930.7184
 00  4 23  2 22  0.0000000  0  7 21 15 17 26 23 09 29
  22579504.838   -12917354.773 8 -10056351.23546  22579507.635    22579516.3934
  24137211.048    -1848546.003 7  -1415795.03945  24137215.458    24137229.4714
  21343675.396   -18523685.148 9 -14414194.28147  21343678.904    21343688.6854
  23794089.680    -4324187.753 8  -3337695.72345  23794097.498    23794107.9924
  20758972.348   -21831792.209 9 -16993952.31948  20758975.428    20758983.8624
  20745067.341   -19601224.786 9 -15250214.08448  20745068.972    20745077.5464
  22265679.534   -13457488.374 8 -10473729.01546  22265682.740    22265693.3824
 00  4 23  2 22 30.0000000  0  7 21 15 17 26 23 09 29
  22564763.159   -12994815.315 8 -10116710.00046  22564766.836    22564776.3534
  24117312.241    -1953139.318 8  -1497296.19145  24117311.815    24117325.4834
  21360216.929   -18436769.266 9 -14346467.66247  21360218.464    21360228.5164
  23812121.838    -4229422.986 8  -3263853.08745  23812130.127    23812140.1184
  20755339.532   -21850890.267 9 -17008833.91448  20755341.303    20755349.4664
  20746693.981   -19592669.760 9 -15243547.81648  20746697.040    20746705.5094
  22253488.521   -13521569.550 8 -10523662.30946  22253488.711    22253499.0014
 00  4 23  2 23  0.0000000  0  7 21 15 17 26 23 09 29
  22550033.294   -13072216.800 8 -10177022.72746  22550036.899    22550047.0144
  24097445.982    -2057514.462 7  -1578627.32145  24097450.094    24097464.1884
  21376841.255   -18349407.832 9 -14278393.86747  21376843.122    21376852.8244
  23830166.354    -4134641.221 8  -3189997.20345  23830166.358    23830177.7644
  20751752.135   -21869737.869 9 -17023520.35648  20751754.686    20751762.8224
  20748440.289   -19583500.317 9 -15236402.77348  20748441.924    20748450.4324
  22241337.925   -13585403.277 8 -10573402.78147  22241342.779    22241350.4644
 00  4 23  2 23 30.0000000  0  7 21 15 17 26 23 09 29
  22535318.785   -13149546.614 8 -10237279.59046  22535321.332    22535331.4874
  24077627.170    -2161668.725 7  -1659786.27545  24077628.410    24077642.8284
  21393548.980   -18261591.658 9 -14209965.73447  21393553.661    21393563.7784
  23848203.661    -4039854.624 8  -3116137.58445  23848204.181    23848214.0544
  20748214.572   -21888328.809 9 -17038006.80148  20748216.889    20748224.9884
  20750305.636   -19573692.554 9 -15228760.33348  20750307.900    20750316.6414
  22229237.318   -13648989.370 8 -10622950.30746  22229241.777    22229250.4924
 00  4 23  2 24  0.0000000  0  7 21 15 17 26 23 09 29
  22520616.058   -13226814.600 8 -10297488.30546  22520617.890    22520627.7704
  24057852.331    -2265599.118 7  -1740770.78545  24057851.772    24057865.2674
  21410351.796   -18173310.148 9 -14141175.00047  21410353.334    21410362.8064
  23866233.520    -3945082.387 8  -3042289.15045  23866239.167    23866248.5944
  20744726.572   -21906656.666 9 -17052288.25348  20744729.397    20744737.0664
  20752297.039   -19563232.562 9 -15220609.67148  20752298.733    20752307.2134
  22217182.202   -13712335.699 8 -10672311.00046  22217187.236    22217196.2294
 00  4 23  2 24 30.0000000  0  7 21 15 17 26 23 09 29
  22505925.300   -13304014.605 8 -10357644.05946  22505926.860    22505937.2814
  24038123.430    -2369302.750 7  -1821578.61845  24038118.684    24038131.1434
  21427239.012   -18084572.115 9 -14072028.52947  21427239.550    21427249.2884
  23884260.861    -3850338.501 8  -2968462.78345  23884267.067    23884277.1484
  20741290.462   -21924717.964 9 -17066362.00948  20741292.601    20741300.2334
  20754415.660   -19552098.264 9 -15211933.57648  20754417.302    20754426.1874
  22205174.855   -13775439.553 8 -10721482.75247  22205178.734    22205188.0004
 00  4 23  2 25  0.0000000  0  7 21 15 17 26 23 09 29
  22491248.142   -13381135.273 8 -10417737.96946  22491251.114    22491261.7274
  24018425.870    -2472776.763 7  -1902207.47545  24018425.895    24018439.5634
  21444207.078   -17995390.859 8 -14002536.69347  21444210.317    21444220.2364
  23902282.182    -3755620.509 8  -2894656.61545  23902290.781    23902302.0514
  20737900.550   -21942521.688 9 -17080235.06548  20737904.562    20737912.6314
  20756661.951   -19540287.262 9 -15202730.18548  20756665.139    20756673.7094
  22193214.336   -13838307.884 8 -10770470.98447  22193215.714    22193224.9124
 00  4 23  2 25 30.0000000  0  7 21 15 17 26 23 09 29
  22476588.717   -13458174.509 8 -10477768.41847  22476591.375    22476601.9234
  23998776.217    -2576018.311 7  -1982655.20145  23998781.668    23998792.1864
  21461263.799   -17905766.664 8 -13932699.71247  21461264.760    21461275.3684
  23920299.064    -3660931.328 8  -2820872.90445  23920310.113    23920320.9514
  20734559.331   -21960086.955 9 -17093922.28048  20734561.964    20734570.3914
  20759036.020   -19527812.596 9 -15193009.64348  20759038.584    20759047.2654
  22181298.739   -13900930.892 8 -10819268.06047  22181298.791    22181308.0824
 00  4 23  2 26  0.0000000  0  7 21 15 17 26 23 09 29
  22461942.231   -13535134.944 8 -10537737.45047  22461946.031    22461956.3594
  23979179.266    -2679024.474 8  -2062919.54245  23979180.129    23979192.1044
  21478395.367   -17815711.615 8 -13862527.00947  21478401.668    21478412.3934
  23938321.730    -3566275.376 8  -2747115.06445  23938324.200    23938333.7874
  20731264.482   -21977412.984 9 -17107423.07848  20731264.906    20731273.2524
  20761530.239   -19514692.940 9 -15182786.51548  20761534.758    20761543.5284
  22169428.844   -13963292.974 8 -10867861.80347  22169431.601    22169440.4184
 00  4 23  2 26 30.0000000  0  7 21 15 17 26 23 09 29
  22447316.334   -13612007.651 8 -10597638.15046  22447317.512    22447327.7004
  23959621.525    -2781792.448 8  -2142998.29445  23959623.242    23959636.6134
  21495617.149   -17725225.809 8 -13792018.65447  21495620.758    21495631.0394
  23956335.481    -3471637.823 8  -2673371.56945  23956333.210    23956343.0184
  20728012.674   -21994492.390 9 -17120731.69548  20728014.688    20728023.0124
  20764150.291   -19500946.106 9 -15172074.68648  20764151.373    20764159.8624
  22157613.878   -14025393.999 8 -10916252.13547  22157615.006    22157623.3584
 00  4 23  2 27  0.0000000  0  7 21 15 17 26 23 09 29
  22432702.905   -13688801.134 8 -10657477.12047  22432703.768    22432714.6724
  23940107.998    -2884319.209 7  -2222889.09345  23940113.208    23940126.2644
  21512921.952   -17634301.052 8 -13721168.25347  21512923.655    21512933.9674
  23974330.045    -3377019.189 8  -2599642.82645  23974338.325    23974348.3684
  20724808.076   -22011327.392 9 -17133849.86948  20724810.897    20724819.8404
  20766879.006   -19486594.284 9 -15160891.43048  20766882.314    20766890.8914
  22145844.760   -14087233.418 8 -10964438.63647  22145847.185    22145854.3544
 00  4 23  2 27 30.0000000  0  7 21 15 17 26 23 09 29
  22418106.164   -13765517.381 8 -10717255.89147  22418105.669    22418115.9694
  23920641.894    -2986601.915 8  -2302589.64045  23920648.562    23920662.9144
  21530307.844   -17542936.904 8 -13649975.46647  21530309.216    21530319.7644
  23992334.419    -3282434.720 8  -2525940.68045  23992336.830    23992347.0494
  20721652.366   -22027906.041 9 -17146768.30848  20721656.156    20721664.8344
  20769723.993   -19471647.996 9 -15149244.95548  20769726.021    20769734.8614
  22134125.438   -14148821.115 8 -11012428.98447  22134126.753    22134135.0274
 00  4 23  2 28  0.0000000  0  7 21 15 17 26 23 09 29
  22403519.435   -13842155.595 8 -10776973.86047  22403521.725    22403531.8824
  23901232.327    -3088637.745 8  -2382097.85645  23901232.420    23901245.5984
  21547775.177   -17451140.339 8 -13578445.72847  21547777.711    21547787.8514
  24010328.574    -3187871.788 8  -2452255.32245  24010331.369    24010342.3624
  20718550.838   -22044216.242 9 -17159477.55348  20718552.670    20718560.9334
  20772681.880   -19456092.453 9 -15137123.74248  20772686.683    20772695.2864
  22122446.161   -14210182.506 8 -11060242.97747  22122449.631    22122458.1294
 00  4 23  2 28 30.0000000  0  7 21 15 17 26 23 09 29
  22388951.205   -13918719.834 8 -10836634.23047  22388952.250    22388961.0704
  23881857.565    -3190423.973 8  -2461411.58945  23881862.256    23881876.2294
  21565322.559   -17358920.548 8 -13506586.21747  21565326.526    21565336.5074
  24028320.441    -3093321.323 8  -2378579.69645  24028323.949    24028335.0794
  20715495.551   -22060272.892 9 -17171989.22748  20715497.400    20715505.4414
  20775764.095   -19439913.466 9 -15124516.72048  20775765.507    20775773.7244
  22110813.663   -14271328.739 8 -11107889.33747  22110815.053    22110822.0064
 00  4 23  2 29  0.0000000  0  7 21 15 17 26 23 09 29
  22374391.850   -13995213.964 8 -10896240.00147  22374395.731    22374405.7234
  23862541.544    -3291957.874 8  -2540528.68445  23862541.830    23862552.9084
  21582948.312   -17266296.608 8 -13434411.77747  21582952.617    21582962.2564
  24046307.121    -2998789.655 8  -2304918.72845  24046311.859    24046323.5284
  20712487.428   -22076086.598 9 -17184311.57848  20712488.135    20712496.1864
  20778961.951   -19423099.983 9 -15111415.29247  20778964.932    20778972.8514
  22099215.340   -14332262.209 8 -11155369.90647  22099218.527    22099227.6154
 00  4 23  2 29 30.0000000  0  7 21 15 17 26 23 09 29
  22359852.804   -14071630.471 8 -10955785.23147  22359854.187    22359864.4274
  23843272.024    -3393236.587 8  -2619446.99545  23843270.284    23843279.9934
  21600649.298   -17173286.802 8 -13361936.67247  21600651.651    21600661.8514
  24064297.883    -2904267.451 8  -2231265.12445  24064300.027    24064310.0334
  20709526.549   -22091644.210 9 -17196434.39848  20709527.730    20709536.0544
  20782287.098   -19405633.284 9 -15097804.86347  20782288.774    20782296.8244
  22087657.628   -14392989.018 8 -11202689.41747  22087662.981    22087672.2174
 00  4 23  2 30  0.0000000  0  7 21 15 17 26 23 09 29
  22345325.391   -14147980.778 8 -11015278.89547  22345324.788    22345334.7484
  23824040.012    -3494256.961 8  -2698164.01045  23824045.959    23824057.2994
  21618421.313   -17079902.468 8 -13289169.71647  21618422.418    21618432.3354
  24082283.612    -2809740.864 8  -2157608.07745  24082287.412    24082298.5074
  20706610.076   -22106960.318 9 -17208369.03648  20706612.756    20706621.4934
  20785736.773   -19387497.310 9 -15083672.92247  20785739.527    20785748.1844
  22076143.949   -14453495.386 8 -11249837.16547  22076148.598    22076157.4504
 00  4 23  2 30 30.0000000  0  7 21 15 17 26 23 09 29
  22330803.812   -14224263.990 8 -11074720.32847  22330808.331    22330817.8314
  23804871.256    -3595016.141 8  -2776677.49045  23804871.575    23804884.3364
  21636258.202   -16986147.189 8 -13216113.70647  21636263.387    21636273.7514
  24100271.050    -2715225.233 8  -2083959.61645  24100273.746    24100284.1844
  20703740.160   -22122044.997 9 -17220123.33748  20703742.496    20703750.9464
  20789314.828   -19368702.794 9 -15069027.83647  20789316.115    20789324.7574
  22064675.138   -14513767.861 8 -11296802.68447  22064679.779    22064687.1724
 00  4 23  2 31  0.0000000  0  7 21 15 17 26 23 09 29
  22316303.877   -14300476.201 8 -11134106.44347  22316306.250    22316315.5724
  23785748.729    -3695511.144 8  -2854985.10845  23785748.164    23785760.2964
  21654173.706   -16892001.476 8 -13142753.48047  21654178.582    21654188.3014
  24118247.001    -2620725.791 7  -2010323.76245  24118256.165    24118266.5084
  20700918.189   -22136876.648 9 -17231680.46248  20700919.934    20700928.3554
  20793012.888   -19349260.038 9 -15053877.62347  20793015.794    20793024.5974
  22053252.198   -14573802.186 8 -11343582.60247  22053254.712    22053263.3704
 00  4 23  2 31 30.0000000  0  7 21 15 17 26 23 09 29
  22301814.006   -14376610.560 8 -11193431.85447  22301818.082    22301828.0624
  23766671.995    -3795739.257 7  -2933084.77445  23766672.371    23766686.4664
  21672168.286   -16797452.720 8 -13069079.18147  21672170.728    21672180.4214
  24136231.084    -2526244.435 8  -1936701.96545  24136235.390    24136245.2214
  20698144.081   -22151452.952 9 -17243038.62648  20698146.188    20698154.5974
  20796837.212   -19329163.229 9 -15038217.75048  20796839.732    20796849.0894
  22041875.366   -14633590.370 8 -11390170.72247  22041877.681    22041886.4844
 00  4 23  2 32  0.0000000  0  7 21 15 17 26 23 09 29
  22287347.216   -14452653.535 8 -11252686.06847  22287347.793    22287358.2764
  23747652.082    -3895697.337 8  -3010974.04445  23747653.839    23747666.3024
  21690241.666   -16702486.627 8 -12995079.70847  21690242.031    21690252.6184
  24154208.305    -2431792.083 8  -1863102.77545  24154209.620    24154219.8294
  20695415.443   -22165796.563 9 -17254215.47948  20695416.783    20695424.9344
  20800784.154   -19308427.301 9 -15022059.87847  20800786.023    20800794.6844
  22030544.438   -14693132.369 8 -11436567.01247  22030546.846    22030555.9084
 00  4 23  2 32 30.0000000  0  7 21 15 17 26 23 09 29
  22272893.803   -14528592.104 8 -11311858.92547  22272897.180    22272907.0824
  23728686.154    -3995382.808 8  -3088650.91245  23728686.023    23728696.9684
  21708392.967   -16607083.014 8 -12920739.30047  21708397.517    21708407.2044
  24172177.553    -2337370.404 8  -1789527.49245  24172176.948    24172187.7724
  20692732.738   -22179895.405 9 -17265201.60048  20692733.968    20692742.0264
  20804851.244   -19287067.556 9 -15005415.90947  20804851.288    20804859.0984
  22019260.335   -14752432.876 8 -11482775.12147  22019261.847    22019271.2814
 00  4 23  2 33  0.0000000  0  7 21 15 17 26 23 09 29
  22258467.449   -14604414.182 8 -11370941.01647  22258468.887    22258478.0554
  23709766.962    -4094792.678 8  -3166113.00245  23709767.321    23709778.1734
  21726633.942   -16511236.961 8 -12846054.12447  21726636.398    21726645.8124
  24190141.529    -2242972.186 7  -1715970.49645  24190140.509    24190150.1024
  20690100.229   -22193724.657 9 -17275977.65548  20690102.200    20690110.1114
  20809031.882   -19265090.830 9 -14988291.16847  20809032.832    20809040.8914
  22008021.017   -14811496.330 8 -11528798.52147  22008022.935    22008031.0034
 00  4 23  2 33 30.0000000  0  7 21 15 17 26 23 09 29
  22244059.619   -14680120.735 8 -11429933.08247  22244062.633    22244072.0184
  23690888.859    -4193923.945 7  -3243358.04645  23690901.236    23690912.2184
  21744949.635   -16414964.882 8 -12771036.98247  21744955.822    21744965.8464
  24208096.269    -2148595.084 8  -1642429.97845  24208098.639    24208110.0754
  20687519.819   -22207290.446 9 -17286548.40348  20687520.928    20687528.7504
  20813328.980   -19242501.308 9 -14970688.93248  20813331.860    20813339.9224
  21996827.779   -14870319.057 8 -11574634.33847  21996829.521    21996838.1674
 00  4 23  2 34  0.0000000  0  7 21 15 17 26 23 09 29
  22229669.981   -14755725.759 8 -11488846.05347  22229674.877    22229684.7544
  23672092.901    -4292773.872 8  -3320383.87845  23672092.001    23672104.9664
  21763352.166   -16318279.853 8 -12695698.06947  21763354.686    21763364.9874
  24226044.560    -2054244.812 8  -1568910.34745  24226052.878    24226064.8294
  20684991.988   -22220576.683 9 -17296901.32848  20684992.442    20685000.5474
  20817742.680   -19219316.733 9 -14952623.01548  20817743.187    20817752.0044
  21985678.590   -14928899.225 8 -11620281.13047  21985681.987    21985690.6764
 00  4 23  2 34 30.0000000  0  7 21 15 17 26 23 09 29
  22215302.120   -14831244.811 8 -11547692.02547  22215304.157    22215313.8574
  23653330.561    -4391339.604 7  -3397188.16745  23653334.684    23653347.9594
  21781827.935   -16221200.672 8 -12620052.01847  21781828.435    21781838.9824
  24243995.538    -1959925.229 8  -1495414.61045  24244001.867    24244012.3484
  20682520.482   -22233555.017 9 -17307014.34448  20682522.955    20682530.9374
  20822267.786   -19195528.558 9 -14934086.75248  20822270.004    20822278.4844
  21974578.748   -14987232.079 8 -11665735.21147  21974581.438    21974590.6184
 00  4 23  2 35  0.0000000  0  7 21 15 17 26 23 09 29
  22200944.367   -14906681.840 8 -11606474.05547  22200948.657    22200958.7784
  23634629.477    -4489618.056 8  -3473768.55445  23634633.758    23634645.1814
  21800366.660   -16123756.624 8 -12544121.66847  21800371.103    21800381.7174
  24261937.681    -1865647.383 8  -1421951.40145  24261942.609    24261953.2854
  20680109.984   -22246225.747 9 -17316887.63748  20680111.589    20680119.5454
  20826909.258   -19171138.562 9 -14915081.55448  20826911.306    20826919.5064
  21963525.954   -15045313.300 8 -11710993.22147  21963528.057    21963537.9794
 00  4 23  2 35 30.0000000  0  7 21 15 17 26 23 09 29
  22186606.460   -14982045.566 8 -11665198.97447  22186607.527    22186616.4924
  23615983.414    -4587606.472 8  -3550123.01245  23615986.291    23615998.3984
  21818980.314   -16025952.532 8 -12467910.75547  21818982.988    21818993.1594
  24279877.333    -1771409.372 8  -1348519.25245  24279876.198    24279885.5434
  20677752.997   -22258611.426 9 -17326538.78948  20677754.789    20677762.7864
  20831666.033   -19146142.389 9 -14895603.99348  20831667.880    20831676.4664
  21952520.825   -15103142.418 8 -11756054.79647  21952524.701    21952533.4754
 00  4 23  2 36  0.0000000  0  7 21 15 17 26 23 09 29
  22172281.511   -15057322.643 8 -11723856.36347  22172282.155    22172292.2674
  23597389.429    -4685301.672 7  -3626248.97345  23597394.397    23597406.1604
  21837659.463   -15927794.791 8 -12391424.26747  21837661.902    21837671.9884
  24297794.590    -1677216.784 8  -1275122.47645  24297800.662    24297810.4814
  20675450.009   -22270715.012 9 -17335970.12548  20675451.644    20675459.4624
  20836540.885   -19120533.763 9 -14875649.21248  20836541.640    20836549.8654
  21941561.852   -15160741.393 8 -11800937.03347  21941563.654    21941572.9924
 00  4 23  2 36 30.0000000  0  7 21 15 17 26 23 09 29
  22157975.632   -15132499.968 8 -11782436.03447  22157977.104    22157986.3344
  23578862.307    -4782700.959 8  -3702144.34245  23578860.554    23578872.7414
  21856404.505   -15829284.398 8 -12314663.00847  21856407.815    21856418.3364
  24315710.185    -1583061.938 8  -1201755.11745  24315717.798    24315728.5104
  20673197.133   -22282553.014 9 -17345194.50548  20673198.621    20673206.9264
  20841529.622   -19094302.872 9 -14855209.54748  20841533.197    20841541.3064
  21930642.593   -15218117.888 8 -11845645.90947  21930644.181    21930653.5184
 00  4 23  2 37  0.0000000  0  7 21 15 17 26 23 09 29
  22143688.489   -15207564.531 8 -11840927.83447  22143692.453    22143702.3104
  23560377.746    -4879801.442 8  -3777806.86745  23560383.029    23560395.9454
  21875220.265   -15730406.632 8 -12237615.45747  21875223.718    21875233.5054
  24333626.738    -1488932.506 8  -1128407.59045  24333630.299    24333640.2654
  20670990.282   -22294142.247 9 -17354225.05248  20670993.373    20671001.7324
  20846639.689   -19067450.502 9 -14834285.60648  20846642.877    20846651.3944
  21919768.020   -15275276.068 8 -11890184.68847  21919767.940    21919776.9304
 00  4 23  2 37 30.0000000  0  7 21 15 17 26 23 09 29
  22129428.673   -15282511.195 8 -11899327.79947  22129430.115    22129440.3664
  23541964.027    -4976600.299 8  -3853234.34245  23541963.861    23541975.0144
  21894109.925   -15631151.679 8 -12160273.99247  21894110.932    21894121.1124
  24351534.448    -1394827.766 8  -1055079.29845  24351537.979    24351548.5544
  20668832.090   -22305487.356 9 -17363065.36548  20668834.354    20668842.6074
  20851869.609   -19039964.317 9 -14812867.79548  20851873.421    20851881.6524
  21908928.811   -15332225.762 8 -11934561.01147  21908931.064    21908939.0874
 00  4 23  2 38  0.0000000  0  7 21 15 17 26 23 09 29
  22115189.028   -15357343.302 8 -11957638.50147  22115190.221    22115200.0944
  23523597.861    -5073094.671 8  -3928424.60945  23523600.530    23523612.1294
  21913068.718   -15531526.616 8 -12082644.13347  21913069.264    21913079.6804
  24369441.997    -1300753.867 8   -981775.00945  24369439.137    24369450.9184
  20666720.465   -22316576.103 9 -17371705.92848  20666724.121    20666732.4604
  20857221.296   -19011843.681 9 -14790955.59548  20857224.350    20857232.7334
  21898135.650   -15388949.055 8 -11978760.91147  21898136.947    21898144.8724
 00  4 23  2 38 30.0000000  0  7 21 15 17 26 23 09 29
  22100969.675   -15432068.333 8 -12015865.76147  22100970.879    22100979.8194
  23505291.632    -5169281.369 8  -4003375.13745  23505296.478    23505309.0524
  21932097.493   -15431525.901 8 -12004721.57946  21932098.810    21932109.6774
  24387331.098    -1206704.916 8   -908490.16145  24387336.022    24387347.1564
  20664663.994   -22327399.409 9 -17380139.65048  20664664.737    20664672.7854
  20862690.910   -18983095.448 9 -14768554.36548  20862694.868    20862703.2324
  21887387.864   -15445423.282 8 -12022766.73947  21887389.879    21887398.0914
 00  4 23  2 39  0.0000000  0  7 21 15 17 26 23 09 29
  22086767.877   -15506679.955 8 -12074004.62247  22086772.164    22086780.8994
  23487056.782    -5265157.764 8  -4078083.78845  23487051.754    23487065.5884
  21951198.632   -15331147.992 8 -11926505.09947  21951200.631    21951210.8124
  24405224.948    -1112678.377 7   -835222.80045  24405228.366    24405239.5724
  20662656.156   -22337940.019 9 -17388353.10048  20662658.860    20662667.1774
  20868280.768   -18953728.431 9 -14745670.97048  20868283.556    20868291.9854
  21876691.165   -15501647.205 8 -12066577.51847  21876691.039    21876699.0504
 00  4 23  2 39 30.0000000  0  7 21 15 17 26 23 09 29
  22072589.593   -15581185.307 8 -12132060.67147  22072593.763    22072603.4184
  23468863.545    -5360720.782 8  -4152548.34645  23468867.558    23468879.2404
  21970365.131   -15230415.920 8 -11848012.62347  21970368.701    21970379.8914
  24423112.953    -1018683.820 7   -761980.37845  24423114.956    24423125.1774
  20660706.193   -22348189.712 9 -17396339.86348  20660708.405    20660716.8064
  20873983.326   -18923750.382 9 -14722311.44348  20873988.223    20873996.1444
  21866036.339   -15557617.160 8 -12110190.40247  21866040.059    21866048.3144
 00  4 23  2 40  0.0000000  0  7 21 15 17 26 23 09 29
  22058432.762   -15655584.860 8 -12190034.27547  22058436.279    22058445.9894
  23450735.755    -5455967.611 8  -4226766.52245  23450740.979    23450752.9674
  21989601.889   -15129331.061 8 -11769245.28247  21989604.695    21989616.0454
  24440997.182     -924717.321 7   -688759.80745  24440995.216    24441006.6244
  20658812.284   -22358142.920 9 -17404095.59348  20658814.189    20658822.8024
  20879805.220   -18893169.087 9 -14698481.85448  20879807.558    20879815.3034
  21855435.725   -15613333.455 8 -12153605.62847  21855437.353    21855445.5514
 00  4 23  2 40 30.0000000  0  7 21 15 17 26 23 09 29
  22044299.311   -15729867.062 8 -12247916.41247  22044301.107    22044310.3804
  23432676.429    -5550895.218 8  -4300735.95345  23432677.121    23432688.9434
  22008907.367   -15027885.352 8 -11690196.73747  22008909.161    22008920.0214
  24458869.734     -830782.652 7   -615564.02245  24458870.795    24458882.8464
  20656975.632   -22367794.981 9 -17411616.66348  20656977.674    20656985.8794
  20885736.924   -18861987.440 9 -14674184.46448  20885741.029    20885749.1874
  21844874.785   -15668825.266 8 -12196845.92347  21844877.607    21844886.5364
 00  4 23  2 41  0.0000000  0  7 21 15 17 26 23 09 29
  22030186.850   -15804031.089 8 -12305706.48147  22030188.534    22030197.9524
  23414669.145    -5645500.746 8  -4374454.39645  23414674.529    23414685.4174
  22028277.924   -14926082.563 8 -11610869.96946  22028281.573    22028292.9214
  24476735.169     -736894.657 7   -542404.59645  24476737.223    24476748.4304
  20655195.290   -22377146.910 9 -17418903.86348  20655197.912    20655206.1524
  20891782.928   -18830202.633 9 -14649417.06648  20891789.285    20891797.9354
  21834357.120   -15724098.260 8 -12239915.69547  21834359.530    21834368.0264
 00  4 23  2 41 30.0000000  0  7 21 15 17 26 23 09 29
  22016093.322   -15878086.104 8 -12363411.61447  22016095.009    22016105.1474
  23396731.599    -5739781.571 8  -4447919.86845  23396734.665    23396744.7364
  22047721.445   -14823920.709 8 -11531263.39546  22047722.517    22047732.9054
  24494592.233     -643064.459 7   -469290.24045  24494593.973    24494604.9334
  20653470.045   -22386213.472 9 -17425968.68448  20653472.558    20653480.8454
  20897952.259   -18797815.008 9 -14624179.95348  20897952.572    20897960.7844
  21823879.828   -15779155.155 8 -12282817.10347  21823883.121    21823891.0394
 00  4 23  2 42  0.0000000  0  7 21 15 17 26 23 09 29
  22002021.372   -15952032.622 8 -12421032.21047  22002023.950    22002033.4134
  23378858.346    -5833734.541 8  -4521129.85546  23378855.943    23378867.0164
  22067232.000   -14721392.097 8 -11451371.04146  22067232.413    22067243.8574
  24512432.712     -549293.307 7   -396221.88345  24512436.507    24512448.7964
  20651801.422   -22394983.330 9 -17432802.30448  20651803.821    20651811.7264
  20904227.208   -18764824.229 9 -14598472.85047  20904230.160    20904238.6834
  21813445.357   -15833993.940 8 -12325548.55847  21813448.049    21813455.4574
 00  4 23  2 42 30.0000000  0  7 21 15 17 26 23 09 29
  21987972.652   -16025865.035 9 -12478563.90947  21987974.369    21987983.7424
  23361029.967    -5927356.988 8  -4594082.26245  23361037.885    23361049.7114
  22086809.173   -14618508.499 8 -11371202.08746  22086811.106    22086821.7524
  24530266.509     -455587.509 7   -323204.43545  24530269.641    24530280.6574
  20650190.754   -22403454.926 9 -17439403.50148  20650191.712    20650199.7724
  20910620.472   -18731227.537 9 -14572293.60147  20910623.711    20910631.9084
  21803051.910   -15888598.060 8 -12368097.17147  21803056.744    21803064.2964
 00  4 23  2 43  0.0000000  0  7 21 15 17 26 23 09 29
  21973942.306   -16099592.900 8 -12536014.14347  21973944.050    21973954.0994
  23343285.991    -6020645.815 8  -4666774.78445  23343285.819    23343297.1724
  22106448.674   -14515289.467 8 -11290771.73846  22106453.170    22106463.4814
  24548088.853     -361939.895 7   -250232.31545  24548090.634    24548100.9414
  20648632.476   -22411643.781 9 -17445784.39648  20648633.529    20648641.6734
  20917128.695   -18697023.061 9 -14545640.75147  20917132.335    20917141.0714
  21792710.720   -15942949.147 8 -12410448.60647  21792713.694    21792721.3784
 00  4 23  2 43 30.0000000  0  7 21 15 17 26 23 09 29
  21959933.418   -16173217.821 8 -12593384.15147  21959933.849    21959943.5674
  23325595.574    -6113598.180 8  -4739205.13045  23325598.737    23325609.7074
  22126155.808   -14411738.361 8 -11210082.64346  22126158.265    22126169.1904
  24565893.734     -268343.952 7   -177300.47545  24565901.068    24565911.6114
  20647127.793   -22419549.251 9 -17451944.45848  20647128.515    20647137.3154
  20923752.847   -18662212.367 9 -14518515.53047  20923756.734    20923765.1604
  21782416.603   -15997046.942 8 -12452602.67047  21782418.825    21782427.4104
 00  4 23  2 44  0.0000000  0  7 21 15 17 26 23 09 29
  21945945.104   -16246730.636 8 -12650666.79447  21945944.580    21945954.9384
  23307972.694    -6206211.263 8  -4811371.07045  23307973.695    23307985.9944
  22145926.248   -14307867.375 8 -11129144.30046  22145924.815    22145934.9364
  24583697.834     -174802.502 7   -104411.06045  24583701.103    24583712.5984
  20645679.388   -22427154.087 9 -17457870.27348  20645681.285    20645689.7084
  20930494.906   -18626792.023 9 -14490915.25547  20930496.975    20930505.1344
  21772169.928   -16050884.694 8 -12494554.07947  21772173.775    21772182.1324
 00  4 23  2 44 30.0000000  0  7 21 15 17 26 23 09 29
  21931976.048   -16320120.035 8 -12707853.27347  21931979.488    21931989.1774
  23290408.372    -6298482.200 8  -4883270.37745  23290414.661    23290426.1524
  22165750.441   -14203675.827 8 -11047956.15746  22165751.209    22165761.9384
  24601484.964      -81310.371 7    -31560.10645  24601491.498    24601503.4404
  20644285.989   -22434473.995 9 -17463574.07548  20644288.625    20644296.6954
  20937348.615   -18590767.486 9 -14462844.18947  20937352.357    20937360.4944
  21761975.382   -16104463.193 8 -12536303.50047  21761978.327    21761986.6214
 00  4 23  2 45  0.0000000  0  7 21 15 17 26 23 09 29
  21918035.670   -16393387.775 9 -12764944.94147  21918037.664    21918046.2574
  23272920.500    -6390408.024 8  -4954900.79945  23272921.247    23272933.7884
  22185634.292   -14099158.579 8 -10966514.22546  22185640.403    22185651.2804
  24619265.659       12136.016 7     41255.20445  24619274.252    24619285.6994
  20642949.099   -22441505.777 9 -17469053.37248  20642950.841    20642958.7404
  20944314.613   -18554154.282 9 -14434314.41647  20944319.477    20944328.0874
  21751826.157   -16157799.777 8 -12577864.41647  21751829.406    21751836.4304
 00  4 23  2 45 30.0000000  0  8 21 15 17 26 23 09 29 05
  21904119.725   -16466518.511 9 -12821929.88747  21904120.995    21904129.5564
  23255495.455    -6481985.889 8  -5026260.11346  23255496.664    23255506.5864
  22205589.816   -13994307.570 8 -10884812.22946  22205593.302    22205603.7104
  24637044.824      105529.261 7    114029.07745  24637046.033    24637057.8444
  20641665.471   -22448236.196 9 -17474297.83948  20641669.912    20641678.1164
  20951395.004   -18516957.006 9 -14405329.52747  20951397.486    20951406.1744
  21741720.829   -16210908.639 8 -12619247.89047  21741722.880    21741729.8914
  24376828.406      -57144.67217
 00  4 23  2 46  0.0000000  0  8 21 15 17 26 23 09 29 05
  21890230.418   -16539498.873 9 -12878797.66847  21890232.503    21890241.9074
  23238127.895    -6573213.038 8  -5097346.09445  23238134.212    23238146.0714
  22225605.338   -13889130.825 8 -10802856.40146  22225607.484    22225617.8794
  24654808.012      198874.078 7    186765.24945  24654809.784    24654821.4114
  20640443.069   -22454677.846 9 -17479317.28448  20640444.134    20640452.2594
  20958584.229   -18479179.774 9 -14375892.72147  20958587.094    20958594.8864
  21731654.456   -16263794.082 8 -12660457.27447  21731658.105    21731666.5714
  24361659.381     -136916.674 8    -91761.63055                  24361672.9154
 00  4 23  2 46 30.0000000  0  8 21 15 17 26 23 09 29 05
  21876369.991   -16612327.842 9 -12935547.49947  21876374.132    21876383.0884
  23220841.708    -6664086.618 8  -5168156.57745  23220841.673    23220855.7174
  22245679.819   -13783633.531 8 -10720650.79346  22245683.427    22245693.6544
  24672559.341      292174.302 7    259466.66245  24672564.231    24672574.8324
  20639270.359   -22460846.840 9 -17484124.27348  20639270.354    20639278.4574
  20965880.104   -18440836.867 9 -14346015.12647  20965883.067    20965891.4094
  21721634.292   -16316465.019 8 -12701499.50847  21721635.075    21721643.3414
  24346488.565     -216598.027 7   -153850.86445  24346495.180    24346509.8194
 00  4 23  2 47  0.0000000  0  8 21 15 17 26 23 09 29 05
  21862539.987   -16685012.803 9 -12992185.09047  21862542.973    21862551.7894
  23203618.291    -6754603.470 8  -5238689.04846  23203619.094    23203629.5824
  22265816.360   -13677828.567 8 -10638205.46846  22265817.690    22265828.3684
  24690309.799      385418.335 7    332124.28945  24690307.831    24690318.7484
  20638150.101   -22466730.941 9 -17488709.25548  20638150.347    20638158.7804
  20973286.070   -18401920.973 9 -14315691.05847  20973288.747    20973296.7074
  21711647.516   -16368930.108 8 -12742381.31947  21711651.585    21711659.6664
  24331337.247     -296179.956 7   -215862.57345  24331352.035    24331366.6644
 00  4 23  2 47 30.0000000  0  8 21 15 17 26 23 09 29 05
  21848733.317   -16757547.810 9 -13048705.81647  21848739.621    21848748.7284
  23186460.848    -6844760.986 8  -5308941.61145  23186460.681    23186470.6394
  22286009.242   -13571724.496 8 -10555527.06646  22286009.088    22286019.0304
  24708040.235      478602.830 7    404735.51445  24708040.901    24708051.3174
  20637083.790   -22472329.541 9 -17493071.78248  20637085.174    20637093.4064
  20980801.421   -18362432.818 9 -14284921.06847  20980803.312    20980811.0124
  21701710.020   -16421171.613 8 -12783088.94547  21701710.575    21701718.2814
  24316216.176     -375650.544 7   -277787.53445  24316227.979    24316243.6214
 00  4 23  2 48  0.0000000  0  8 21 15 17 26 23 09 29 05
  21834958.835      -54276.95319    -26858.52957                  21834973.5384
  23169371.517    -6934556.344 8  -5378911.89546  23169374.274    23169386.3104
  22306254.458   -13465326.012 8 -10472619.25746  22306255.022    22306266.2734
  24725754.874      571735.057 7    477306.00745  24725763.720    24725773.3424
  20636072.216   -22477639.051 9 -17497209.03648  20636074.623    20636082.7464
  20988421.316   -18322378.208 9 -14253709.67847  20988424.756    20988433.2214
  21691813.660   -16473167.504 8 -12823605.19347  21691816.193    21691823.7084
  24301137.038     -455017.285 7   -339631.50345  24301126.134    24301138.9494
 00  4 23  2 48 30.0000000  0  8 21 15 17 26 23 09 29 05
  21821208.423     -126542.751 9    -83169.51547  21821211.845    21821221.1484
  23152355.985    -7023986.545 8  -5448597.58846  23152355.580    23152366.9014
  22326556.938   -13358626.948 8 -10389477.22246  22326559.621    22326570.6504
  24743470.411      664811.059 7    549832.69945  24743474.124    24743484.4514
  20635120.907   -22482641.223 9 -17501106.80448  20635122.748    20635131.1024
  20996152.237   -18281756.841 9 -14222056.66147  20996154.903    20996163.4504
  21681967.053   -16524913.220 8 -12863926.48247  21681969.120    21681977.1824
  24286045.197     -534271.924 7   -401388.15545  24286043.479    24286057.5424
 00  4 23  2 49  0.0000000  0  8 21 15 17 26 23 09 29 05
  21807482.276     -198683.674 9   -139383.15547  21807483.971    21807492.2664
  23135406.108    -7113048.639 8  -5517996.54945  23135408.972    23135417.0254
  22346922.453   -13251611.323 8 -10306088.52546  22346923.892    22346934.5244
  24761169.392      757837.561 7    622320.83545  24761176.873    24761189.1864
  20634230.005   -22487327.271 9 -17504758.24948  20634231.079    20634239.1364
  21003994.487   -18240551.315 9 -14189948.46247  21003996.376    21004004.7054
  21672166.412   -16576405.336 8 -12904050.17547  21672169.908    21672178.5574
  24270972.220     -613399.411 7   -463045.74745  24270984.167    24271000.9134
 00  4 23  2 49 30.0000000  0  8 21 15 17 26 23 09 29 05
  21793779.707     -270687.249 9   -195489.77247  21793782.069    21793791.0404
  23118529.732    -7201739.792 8  -5587106.43746  23118530.958    23118542.0154
  22367348.667   -13144267.773 8 -10222444.28446  22367351.175    22367361.6574
  24778883.295      850831.642 7    694783.71845  24778873.050    24778883.1884
  20633394.984   -22491705.775 9 -17508170.05648  20633397.867    20633405.7474
  21011944.732   -18198770.275 9 -14157391.80347  21011946.980    21011955.3844
  21662418.190   -16627639.535 8 -12943972.89647  21662420.462    21662429.1674
  24255944.467     -692406.129 7   -524609.21345  24255950.763    24255965.1114
 00  4 23  2 50  0.0000000  0  8 21 15 17 26 23 09 29 05
  21780104.581     -342558.001 9   -251492.90847  21780105.000    21780114.2394
  23101721.824    -7290057.144 8  -5655924.96746  23101724.192    23101737.2074
  22387837.479   -13036601.287 8 -10138548.39946  22387839.179    22387850.5154
  24796554.200      943795.287 7    767222.89645  24796562.925    24796574.5264
  20632620.704   -22495776.628 9 -17511342.13648  20632623.175    20632630.8904
  21020005.955   -18156403.972 9 -14124379.09647  21020009.129    21020017.3694
  21652715.646   -16678636.684 8 -12983710.88647  21652716.365    21652724.2174
  24240936.946     -771298.174 8   -586083.29745  24240939.771    24240954.1174
 00  4 23  2 50 30.0000000  0  7 21 15 17 23 09 29 05
  21766454.434     -414278.382 9   -307378.88447  21766456.992    21766466.0324
  23084987.028    -7377998.141 8  -5724450.25546  23084989.380    23085000.6214
  22408383.774   -12928624.768 8 -10054410.95846  22408386.858    22408397.8274
  20631903.645   -22499538.520 9 -17514273.47148  20631907.115    20631915.1834
  21028180.978   -18113448.735 9 -14090907.49047  21028183.466    21028191.7504
  21643052.047   -16729409.394 9 -13023274.00647  21643054.844    21643063.4624
  24225939.872     -850073.018 7   -647466.09745  24225948.739    24225961.5494
 00  4 23  2 51  0.0000000  0  7 21 15 17 23 09 29 05
  21752836.108     -485847.099 9   -363146.66547  21752837.370    21752847.1674
  23068331.646    -7465559.837 8  -5792680.01446  23068326.363    23068338.4604
  22428988.498   -12820350.957 8  -9970041.86346  22428989.989    22429001.1104
  20631247.121   -22502991.832 9 -17516964.35248  20631249.953    20631257.9254
  21036464.742   -18069905.026 9 -14056977.33347  21036469.702    21036477.4824
  21633432.998   -16779956.227 9 -13062661.11447  21633436.017    21633444.4554
  24210969.286     -928745.588 7   -708769.20445  24210975.686    24210990.7154
 00  4 23  2 51 30.0000000  0  7 21 15 17 23 09 29 05
  21739244.621     -557256.557 9   -418790.34847  21739248.754    21739258.5654
  23051732.797    -7552739.259 8  -5860611.90046  23051738.025    23051749.4354
  22449647.041   -12711810.980 8  -9885465.33446  22449645.550    22449655.2974
  20630651.241   -22506135.530 9 -17519413.97548  20630651.914    20630659.8754
  21044863.102   -18025784.214 9 -14022597.47847  21044865.630    21044873.9024
  21623860.671   -16830268.593 8 -13101865.52047  21623861.872    21623870.0944
  24196018.662    -1007338.228 7   -770010.06645  24196020.902    24196032.8264
 00  4 23  2 52  0.0000000  0  7 21 15 17 23 09 29 05
  21725685.290     -628515.752 9   -474316.94547  21725688.650    21725698.3574
  23035220.696    -7639533.732 8  -5928243.81246  23035222.016    23035232.0954
  22470346.419   -12603018.156 8  -9800691.81746  22470347.886    22470358.7554
  20630113.179   -22508955.479 9 -17521611.32248  20630115.062    20630123.2204
  21053369.928   -17981083.540 9 -13987765.77847  21053371.550    21053379.6484
  21614330.651   -16880337.490 8 -13140880.19547  21614333.570    21614342.3844
  24181077.297    -1085852.590 8   -831189.93645  24181081.168    24181095.0384
 00  4 23  2 52 30.0000000  0  7 21 15 17 23 09 29 05
  21712153.295     -699627.904 9   -529728.95847  21712156.346    21712166.0204
  23018777.643    -7725940.479 8  -5995573.57546  23018777.394    23018789.2094
  22491095.635   -12493965.487 8  -9715715.80846  22491099.776    22491111.2864
  20629636.514   -22511454.561 9 -17523558.64248  20629639.535    20629647.5704
  21061983.284   -17935811.650 9 -13952488.97947  21061986.845    21061994.8124
  21604852.934   -16930155.284 9 -13179699.19547  21604853.578    21604862.3784
  24166155.084    -1164288.126 7   -892308.32345  24166154.677    24166168.8694
 00  4 23  2 53  0.0000000  0  7 21 15 17 23 09 29 05
  21698648.062     -770598.045 9   -585030.29147  21698650.765    21698660.7914
  23002409.236    -7811956.690 8  -6062598.98646  23002410.567    23002421.8404
  22511902.387   -12384644.024 8  -9630530.34246  22511902.851    22511913.9424
  20629220.483   -22513642.660 9 -17525263.64448  20629222.882    20629231.3034
  21070705.054   -17889975.065 9 -13916772.15547  21070709.047    21070716.8654
  21595417.336   -16979725.696 8 -13218325.43847  21595420.414    21595429.4644
  24151243.633    -1242635.988 7   -953358.43545  24151244.804    24151259.7784
 00  4 23  2 53 30.0000000  0  7 21 15 17 23 09 29 05
  21685170.234     -841418.498 9   -640214.95847  21685173.782    21685183.7114
  22986111.422    -7897579.469 8  -6129317.91646  22986116.251    22986127.2024
  22532752.754   -12275049.707 8  -9545132.26646  22532758.388    22532768.9784
  20628863.255   -22515523.381 9 -17526729.13048  20628865.187    20628873.3394
  21079534.725   -17843582.965 9 -13880622.46647  21079536.953    21079545.0034
  21586031.795   -17029056.639 9 -13256765.08347  21586033.494    21586042.0844
  24136360.452    -1320873.249 8  -1014322.40145  24136357.137    24136370.6754
 00  4 23  2 54  0.0000000  0  7 21 15 17 23 09 29 05
  21671722.834     -912081.782 9   -695277.17847  21671727.250    21671736.8054
  22969898.333    -7982806.127 8  -6195728.16946  22969897.111    22969908.8924
  22553667.502   -12165167.423 8  -9459509.81046  22553667.597    22553679.6714
  20628561.849   -22517097.808 9 -17527955.93548  20628565.401    20628573.6954
  21088469.562   -17796635.089 9 -13844039.71647  21088471.366    21088479.2474
  21576684.685   -17078166.454 9 -13295032.42647  21576688.261    21576696.7714
  24121495.438    -1398971.261 8  -1075177.80245  24121495.616    24121508.4544
 00  4 23  2 54 30.0000000  0  7 21 15 17 23 09 29 05
  21658309.331     -982573.824 9   -750206.00247  21658312.983    21658322.7064
  22953751.610    -8067633.652 8  -6261827.34346  22953754.875    22953766.2034
  22574630.619   -12054992.244 8  -9373659.12646  22574634.946    22574644.6164
  20628318.874   -22518379.653 9 -17528954.75848  20628321.771    20628329.9644
  21097505.459   -17749134.583 9 -13807026.33147  21097510.063    21097518.0184
  21567380.549   -17127072.240 9 -13333140.78447  21567381.697    21567389.9364
  24106655.039    -1476917.278 8  -1135914.79145  24106663.273    24106677.0734
 00  4 23  2 55  0.0000000  0  7 21 15 17 23 09 29 05
  21644931.644    -1052884.920 9   -804993.81747  21644933.440    21644942.3224
  22937687.248    -8152059.299 8  -6327613.40846  22937688.942    22937700.8604
  22595653.577   -11944530.819 8  -9287585.36646  22595655.038    22595665.1634
  20628131.177   -22519365.242 9 -17529722.73648  20628134.028    20628142.5294
  21106655.123   -17701068.909 9 -13769572.56147  21106656.602    21106664.3914
  21558113.510   -17175768.697 9 -13371086.03447  21558115.486    21558123.0624
  24091858.133    -1554706.116 7  -1196529.25845  24091860.187    24091874.4064
 00  4 23  2 55 30.0000000  0  7 21 15 17 23 09 29 05
  21631583.008    -1123023.708 9   -859647.39347  21631586.284    21631595.4034
  22921699.364    -8236080.295 8  -6393084.14646  22921700.736    22921711.6104
  22616726.468   -11833794.330 8  -9201297.29346  22616727.690    22616737.5154
  20628004.298   -22520041.652 9 -17530249.80548  20628005.344    20628013.7404
  21115908.034   -17652433.124 9 -13731674.54047  21115911.497    21115919.5744
  21548884.052   -17224255.394 9 -13408867.84047  21548888.425    21548896.1474
  24077082.225    -1632339.106 7  -1257022.29145  24077086.198    24077100.4554
 00  4 23  2 56  0.0000000  0  6 15 17 23 09 29 05
  22905787.082    -8319693.852 8  -6458237.43446  22905788.920    22905799.3934
  22637848.518   -11722795.925 8  -9114805.13646  22637849.350    22637860.9524
  20627933.683   -22520401.699 9 -17530530.35148  20627936.913    20627945.1914
  21125273.113   -17603226.045 9 -13693331.35747  21125275.096    21125283.1414
  21539701.171   -17272520.905 9 -13446477.26847  21539703.758    21539711.3474
  24062337.081    -1709825.741 7  -1317401.32745  24062340.305    24062355.0364
 00  4 23  2 56 30.0000000  0  7 21 15 17 23 09 29 05
  21604975.182      -66278.32219    -36772.87957  21604990.130    21604998.7664
  22889951.520    -8402897.067 8  -6523070.94046  22889955.649    22889966.8744
  22659013.983   -11611547.383 8  -9028118.07646  22659018.689    22659030.7684
  20627925.744   -22520448.769 9 -17530567.01248  20627928.054    20627936.0524
  21134744.942   -17553453.182 9 -13654547.30247  21134746.726    21134755.3214
  21530562.492   -17320546.155 9 -13483899.47147  21530564.902    21530572.9204
  24047617.738    -1787171.626 8  -1377670.65045  24047622.157    24047635.6234
 00  4 23  2 57  0.0000000  0  7 21 15 17 23 09 29 05
  21591733.667     -135924.147 9    -91042.25747  21591736.007    21591745.7434
  22874200.422    -8485687.334 8  -6587582.69646  22874202.128    22874212.8554
  22680229.554   -11500062.792 8  -8941247.09146  22680233.809    22680245.6154
  20627979.394   -22520170.449 9 -17530350.12248  20627981.522    20627989.2644
  21144320.563   -17503122.715 9 -13615328.76447  21144324.384    21144332.5614
  21521471.511   -17368321.977 9 -13521127.33347  21521473.527    21521481.1914
  24032931.282    -1864368.404 8  -1437823.81945  24032933.099    24032945.5004
 00  4 23  2 57 30.0000000  0  7 21 15 17 23 09 29 05
  21578512.451     -205409.728 9   -145186.77647  21578513.659    21578522.4294
  22858520.849    -8568062.102 8  -6651770.66946  22858524.948    22858536.2184
  22701491.243   -11388348.776 8  -8854197.32046  22701492.827    22701503.8204
  20628092.172   -22519569.279 9 -17529881.65948  20628095.219    20628103.3504
  21154001.856   -17452262.074 9 -13575697.09247  21154002.970    21154011.0774
  21512423.971   -17415852.934 9 -13558164.38747  21512428.663    21512435.8744
  24018272.120    -1941412.219 8  -1497857.76345  24018271.984    24018284.4034
 00  4 23  2 58  0.0000000  0  7 21 15 17 23 09 29 05
  21565321.401     -274716.206 9   -199191.75047  21565324.949    21565334.3474
  22842919.077    -8650018.554 8  -6715632.71946  22842929.946    22842939.0774
  22722788.738   -11276401.102 8  -8766965.48446  22722795.527    22722806.8474
  20628268.687   -22518651.486 9 -17529166.47648  20628269.867    20628277.8544
  21163773.090   -17400888.851 9 -13535666.00747  21163778.740    21163787.0574
  21503429.152   -17463132.102 9 -13595005.24747  21503431.377    21503438.5444
  24003638.367    -2018300.673 8  -1557770.68945  24003639.923    24003652.2204
 00  4 23  2 58 30.0000000  0  7 21 15 17 23 09 29 05
  21552166.434     -343851.240 9   -253063.12847  21552168.668    21552177.7384
  22827412.246    -8731553.855 8  -6779166.61946  22827414.400    22827424.5844
  22744144.905   -11164202.439 8  -8679538.05546  22744145.890    22744158.4424
  20628502.173   -22517415.670 9 -17528203.49248  20628504.942    20628512.9954
  21173647.166   -17349011.049 9 -13495241.75047  21173650.821    21173659.3464
  21494477.363   -17510168.435 9 -13631656.89347  21494480.520    21494487.5024
  23989037.545    -2095025.475 8  -1617556.04045  23989039.462    23989053.2744
 00  4 23  2 59  0.0000000  0  7 21 15 17 23 09 29 05
  21539045.006     -412808.972 9   -306796.37247  21539046.380    21539055.1994
  22811977.031    -8812665.166 8  -6842370.04946  22811979.540    22811988.0904
  22765538.936   -11051750.310 8  -8591913.15546  22765544.738    22765555.7114
  20628801.208   -22515846.195 9 -17526980.50048  20628803.483    20628811.9334
  21183616.055   -17296631.868 9 -13454426.81547  21183618.125    21183626.0964
  21485569.361   -17556976.451 9 -13668130.61947  21485573.013    21485580.5794
  23974467.212    -2171585.577 8  -1677213.10845  23974471.139    23974483.4774
 00  4 23  2 59 30.0000000  0  7 21 15 17 23 09 29 05
  21525953.753     -481592.728 9   -360394.07947  21525957.512    21525966.2354
  22796624.367    -8893349.909 8  -6905241.14546  22796624.394    22796635.3144
  22786989.769   -10939040.966 8  -8504087.77946  22786993.272    22787004.1404
  20629163.697   -22513941.374 9 -17525496.21048  20629166.131    20629174.3074
  21193677.354   -17243744.866 9 -13413216.16247  21193681.457    21193690.1314
  21476708.430   -17603549.543 9 -13704421.31547  21476710.817    21476718.9854
  23959930.052    -2247992.046 8  -1736750.44745  23959931.265    23959944.2934
 00  4 23  3  0  0.0000000  0  7 21 15 17 23 09 29 05
  21512897.235     -550210.621 9   -413862.53547  21512900.118    21512908.5924
  22781349.849    -8973605.205 8  -6967777.56846  22781353.117    22781363.2234
  22808485.599   -10826072.163 8  -8416060.26146  22808490.410    22808502.1934
  20629591.402   -22511690.771 9 -17523742.47348  20629593.997    20629602.4904
  21203841.194   -17190326.523 9 -13371591.48147  21203846.536    21203855.5474
  21467889.965   -17649892.254 9 -13740532.47147  21467891.917    21467899.7294
  23945422.284    -2324236.294 8  -1796161.32345  23945421.519    23945435.7024
 00  4 23  3  0 30.0000000  0  7 21 15 17 23 09 29 05
  21499868.072     -618674.997 9   -467211.33847  21499871.683    21499880.7334
  22766161.970    -9053428.258 8  -7029977.24746  22766163.692    22766172.2964
  22830039.299   -10712840.963 8  -8327828.26246  22830037.429    22830049.1514
  20630086.947   -22509088.811 9 -17521714.95148  20630089.144    20630097.7054
  21214115.790   -17136357.298 9 -13329537.55147  21214117.696    21214126.0094
  21459113.615   -17696015.376 9 -13776472.51447  21459115.181    21459122.7754
  23930941.727    -2400308.612 8  -1855438.25445  23930945.456    23930958.4854
 00  4 23  3  1  0.0000000  0  7 21 15 17 23 09 29 05
  21486872.936     -686975.216 9   -520432.22047  21486874.051    21486882.7724
  22751051.505    -9132816.705 8  -7091838.27746  22751055.177    22751065.4864
  22851623.967   -10599369.732 8  -8239409.25546  22851631.015    22851642.8034
  20630648.800   -22506136.320 9 -17519414.28748  20630651.187    20630659.6184
  21224493.290   -17081819.937 9 -13287040.89847  21224495.376    21224503.4694
  21450376.710   -17741920.446 9 -13812242.64447  21450379.155    21450386.6854
  23916498.334    -2476217.252 8  -1914587.62745  23916500.390    23916513.1144
 00  4 23  3  1 30.0000000  0  7 21 15 17 23 09 29 05
  21473907.225     -755094.486 9   -573512.10347  21473911.520    21473920.6004
  22736033.419    -9211767.730 8  -7153358.39546  22736032.706    22736042.9634
  22873268.054   -10485655.736 8  -8150801.07246  22873269.615    22873281.0074
  20631275.801   -22502846.220 9 -17516850.55448  20631277.549    20631285.7344
  21234979.452   -17026713.427 9 -13244100.77347  21234981.850    21234990.1614
  21441683.961   -17787594.997 8 -13847833.17347  21441687.701    21441695.4154
  23902089.041    -2551955.803 8  -1973604.47145  23902087.255    23902100.2554
 00  4 23  3  2  0.0000000  0  7 21 15 17 23 09 29 05
  21460985.672     -823008.586 9   -626432.11347  21460987.896    21460996.6754
  22721090.259    -9290278.749 8  -7214535.68546  22721092.062    22721099.8924
  22894956.210   -10371703.413 8  -8062007.17946  22894955.068    22894966.0154
  20631965.113   -22499227.156 9 -17514030.49048  20631966.184    20631974.2194
  21245572.841   -16971047.249 9 -13200724.53347  21245574.518    21245583.2444
  21433036.608   -17833043.942 9 -13883247.89647  21433038.899    21433046.8624
  23887699.971    -2627513.705 8  -2032480.58145  23887708.952    23887722.7724
 00  4 23  3  2 30.0000000  0  7 21 15 17 23 09 29 05
  21448101.905     -890703.260 9   -679181.12747  21448105.798    21448114.5754
  22706233.494    -9368347.019 8  -7275368.01746  22706236.083    22706244.9754
  22916678.537   -10257526.559 8  -7973038.31546  22916682.312    22916694.0494
  20632712.192   -22495288.688 9 -17510961.53648  20632715.684    20632723.6824
  21256269.904   -16914834.972 9 -13156922.76047  21256271.207    21256280.1984
  21424432.989   -17878262.433 9 -13918483.05847  21424433.786    21424441.9724
  23873366.420    -2702891.648 8  -2091216.41945  23873365.945    23873377.7514
 00  4 23  3  3  0.0000000  0  7 21 15 17 23 09 29 05
  21435267.820     -958163.341 9   -731747.35847  21435268.639    21435277.4444
  22691461.023    -9445969.794 8  -7335853.21846  22691464.434    22691475.6354
  22938447.972   -10143140.924 8  -7883906.75946  22938448.682    22938459.7774
  20633521.762   -22491037.098 9 -17507648.59248  20633524.623    20633532.8454
  21267065.904   -16858094.536 9 -13112709.43647  21267068.981    21267077.4514
  21415870.998   -17923235.460 9 -13953526.94447  21415875.452    21415883.7544
  23859050.328    -2778091.247 8  -2149813.30345  23859055.467    23859067.2844
 00  4 23  3  3 30.0000000  0  7 21 15 17 23 09 29 05
  21422471.882    -1025389.365 9   -784131.20847  21422475.548    21422484.9824
  22676776.146    -9523144.506 8  -7395989.21346  22676778.997    22676788.2134
  22960259.362   -10028542.324 8  -7794609.26646  22960256.278    22960267.3334
  20634389.457   -22486474.596 9 -17504093.38148  20634392.632    20634400.9894
  21277960.521   -16800851.359 9 -13068104.37247  21277961.758    21277970.2784
  21407361.033   -17967963.574 8 -13988379.96247  21407363.959    21407372.5474
  23844782.385    -2853089.345 8  -2208253.20945  23844782.613    23844794.7624
 00  4 23  3  4  0.0000000  0  7 21 15 17 23 09 29 05
  21409720.805    -1092401.867 9   -836348.68647  21409723.653    21409732.6674
  22662176.771    -9599868.595 8  -7455774.12446  22662179.562    22662189.4024
  22982100.635    -9913746.695 8  -7705158.24346  22982101.481    22982112.3564
  20635320.709   -22481584.710 9 -17500283.06548  20635323.386    20635331.5554
  21288945.986   -16743105.296 9 -13023107.44547  21288950.414    21288959.0784
  21398896.355   -18012463.449 8 -14023055.15547  21398895.900    21398904.7684
  23830546.488    -2927879.326 8  -2266530.92845  23830550.146    23830563.2104
 00  4 23  3  4 30.0000000  0  7 21 15 17 23 09 29 05
  21397007.384    -1159217.225 9   -888412.56147  21397009.171    21397018.0264
  22647664.418    -9676139.294 8  -7515205.73046  22647665.197    22647674.7114
  23003975.503    -9798754.038 8  -7615553.70846  23003982.992    23003994.5264
  20636316.908   -22476355.810 9 -17496208.58948  20636318.288    20636326.3344
  21300031.597   -16684858.314 9 -12977720.18947  21300034.806    21300043.3104
  21390468.661   -18056736.635 9 -14057553.69347  21390471.814    21390479.5254
  23816356.615    -3002459.879 8  -2324645.45746  23816358.565    23816371.4454
 00  4 23  3  5  0.0000000  0  7 21 15 17 23 09 29 05
  21384326.803    -1225849.431 9   -940333.70947  21384329.658    21384337.9284
  22633233.119    -9751954.000 8  -7574282.03546  22633237.688    22633248.8004
  23025901.315    -9683551.981 8  -7525785.98746  23025905.355    23025918.0494
  20637376.282   -22470779.335 9 -17491863.26548  20637379.397    20637387.4184
  21311208.913   -16626115.378 9 -12931946.46947  21311213.225    21311221.9644
  21382087.694   -18100784.126 9 -14091876.36147  21382089.995    21382097.8154
  23802207.881    -3076835.882 8  -2382600.60346  23802205.553    23802218.2544
 00  4 23  3  5 30.0000000  0  7 21 15 17 23 09 29 05
  21371681.235    -1292303.198 9   -992115.81847  21371683.875    21371692.4824
  22618895.820    -9827310.450 8  -7633001.23646  22618897.651    22618907.1824
  23047863.155    -9568139.907 8  -7435854.63846  23047868.316    23047880.2174
  20638506.239   -22464849.782 9 -17487242.81948  20638508.208    20638515.9474
  21322484.136   -16566867.375 9 -12885779.21347  21322487.907    21322496.5924
  21373746.703   -18144622.192 9 -14126035.84047  21373747.708    21373755.7124
  23788087.723    -3151006.558 8  -2440395.74546  23788091.519    23788103.0774
 00  4 23  3  6  0.0000000  0  7 21 15 17 23 09 29 05
  21359069.341    -1358581.824 9  -1043761.43847  21359071.417    21359079.7014
  22604642.709    -9902205.727 8  -7691361.12146  22604646.324    22604655.2344
  23069868.932    -9452521.554 8  -7345762.54446  23069869.912    23069881.4344
  20639700.782   -22458565.992 9 -17482346.34448  20639703.955    20639711.6264
  21333861.762   -16507099.041 9 -12839206.49047  21333861.836    21333869.9194
  21365442.398   -18188243.634 9 -14160026.53247  21365446.899    21365454.8014
  23774014.921    -3224987.022 8  -2498042.70046  23774012.406    23774025.1834
 00  4 23  3  6 30.0000000  0  7 21 15 17 23 09 29 05
  21346489.400    -1424678.643 9  -1095265.40647  21346493.466    21346501.8644
  22590482.325    -9976636.973 8  -7749359.43046  22590482.643    22590492.5134
  23091910.076    -9336698.537 8  -7255510.96946  23091910.565    23091922.7664
  20640961.314   -22451945.083 9 -17477187.17748  20640963.965    20640971.7214
  21345331.428   -16446813.305 9 -12792230.60347  21345333.560    21345341.4744
  21357188.703   -18231633.966 9 -14193837.13347  21357189.722    21357197.6514
  23759965.283    -3298778.377 8  -2555542.26846  23759970.819    23759982.0664
 00  4 23  3  7  0.0000000  0  7 21 15 17 23 09 29 05
  21333949.523    -1490582.234 9  -1146618.81047  21333952.960    21333960.8644
  22576405.058   -10050601.713 8  -7806994.20346  22576407.097    22576418.9684
  23113988.325    -9220686.806 8  -7165112.37146  23113986.492    23113999.0104
  20642286.327   -22444985.508 9 -17471764.12848  20642288.076    20642296.2834
  21356900.736   -16386002.275 9 -12744845.40147  21356905.532    21356913.4524
  21348972.076   -18274793.109 8 -14227467.59247  21348976.241    21348984.5864
  23745966.110    -3372375.656 8  -2612890.62146  23745965.292    23745977.0094
 00  4 23  3  7 30.0000000  0  7 21 15 17 23 09 29 05
  21321445.803    -1556288.840 9  -1197818.71947  21321449.056    21321457.3144
  22562416.663   -10124097.560 8  -7864263.64546  22562420.870    22562431.7954
  23136097.314    -9104503.563 8  -7074580.12546  23136096.028    23136107.7434
  20643675.726   -22437678.978 9 -17466070.72048  20643678.194    20643686.7994
  21368573.183   -16324665.058 9 -12697050.17547  21368577.029    21368584.9574
  21340803.343   -18317722.220 9 -14260918.79047  21340806.962    21340814.6714
  23731994.904    -3445765.657 8  -2670077.47646  23731999.711    23732012.6684
 00  4 23  3  8  0.0000000  0  7 21 15 17 23 09 29 05
  21308980.258    -1621803.275 9  -1248868.89747  21308982.076    21308990.1984
  22548523.333   -10197121.854 8  -7921165.62146  22548524.617    22548536.6854
  23158229.281    -8988148.707 8  -6983914.14746  23158236.816    23158248.5444
  20645134.429   -22430021.869 9 -17460104.13448  20645135.576    20645143.7574
  21380344.454   -16262815.271 9 -12648855.54147  21380346.963    21380354.9624
  21332680.209   -18360411.907 9 -14294183.42947  21332683.777    21332691.4264
  23718074.996    -3518942.854 8  -2727098.50146  23718074.915    23718088.3084
 00  4 23  3  8 30.0000000  0  7 21 15 17 23 09 29 05
  21296549.825    -1687119.926 9  -1299764.93447  21296552.595    21296561.3174
  22534718.066   -10269672.057 8  -7977698.16346  22534719.838    22534730.9234
  23180407.413    -8871621.048 8  -6893113.50145  23180411.877    23180423.5634
  20646656.248   -22422014.041 9 -17453864.26048  20646659.399    20646667.3814
  21392210.184   -16200468.353 9 -12600273.54347  21392210.676    21392219.4854
  21324601.056   -18402872.643 9 -14327269.67147  21324604.064    21324611.8994
  23704188.462    -3591900.953 8  -2783948.77546  23704189.950    23704202.2454
 00  4 23  3  9  0.0000000  0  7 21 15 17 23 09 29 05
  21284157.947    -1752238.304 9  -1350506.46547  21284160.943    21284169.7254
  22521005.030   -10341745.656 8  -8033859.40546  22521004.777    22521015.0304
  23202615.142    -8754910.744 8  -6802170.53646  23202621.067    23202632.6494
  20648250.659   -22413645.108 9 -17447343.01048  20648251.575    20648259.7414
  21404162.640   -16137633.666 9 -12551311.45047  21404167.606    21404176.5094
  21316562.645   -18445117.113 9 -14360187.38947  21316565.413    21316572.6004
  23690342.513    -3664647.732 8  -2840634.39746  23690346.729    23690359.7194
 00  4 23  3  9 30.0000000  0  7 21 15 17 23 09 29 05
  21271805.498    -1817160.271 9  -1401094.94047  21271807.001    21271815.2554
  22507377.766   -10413340.290 8  -8089647.32846  22507378.911    22507391.5434
  23224872.420    -8638001.284 8  -6711072.38346  23224868.195    23224879.6424
  20649909.517   -22404922.343 9 -17440546.05148  20649911.638    20649919.7454
  21416213.687   -16074328.863 9 -12501983.04547  21416214.860    21416223.7444
  21308564.589   -18487145.977 9 -14392937.06147  21308566.867    21308574.6864
  23676541.028    -3737174.018 8  -2897148.20446  23676545.576    23676556.8204
 00  4 23  3 10  0.0000000  0  7 21 15 17 23 09 29 05
  21259490.571    -1881864.049 9  -1451513.41847  21259493.909    21259502.2344
  22493846.399   -10484453.313 8  -8145060.01746  22493847.861    22493856.7024
  23247153.422    -8520886.506 8  -6619814.28145  23247154.104    23247166.9464
  20651635.859   -22395852.759 9 -17433478.84348  20651637.659    20651645.7214
  21428348.735   -16010558.488 9 -12452291.84747  21428349.634    21428357.9334
  21300605.745   -18528963.718 9 -14425522.25847  21300609.028    21300616.8474
  23662788.475    -3809477.740 8  -2953488.58146  23662786.453    23662798.6034
 00  4 23  3 10 30.0000000  0  7 21 15 17 23 09 29 05
  21247226.675    -1946328.114 9  -1501745.09247  21247226.976    21247234.7384
  22480405.036   -10555082.196 8  -8200095.45746  22480406.640    22480417.1784
  23269472.048    -8403582.533 8  -6528408.70645  23269476.941    23269488.2914
  20653428.639   -22386432.102 9 -17426138.06748  20653430.203    20653438.6004
  21440570.247   -15946315.367 9 -12402232.28647  21440575.243    21440583.5894
  21292690.136   -18570565.843 9 -14457939.43947  21292692.370    21292700.1354
  23649063.129    -3881557.342 8  -3009654.35146  23649070.240    23649082.6834
 00  4 23  3 11  0.0000000  0  7 21 15 17 23 09 29 05
  21235005.634    -2010537.817 9  -1551778.58547  21235008.480    21235016.3264
  22467058.442   -10625224.387 8  -8254751.63746  22467060.220    22467069.3374
  23291829.935    -8286100.070 8  -6436864.04745  23291832.857    23291844.5784
  20655289.093   -22376650.234 9 -17418515.82448  20655291.722    20655299.9554
  21452886.793   -15881601.495 9 -12351805.90547  21452890.002    21452897.6774
  21284816.384   -18611942.003 9 -14490180.53447  21284818.846    21284826.4814
  23635395.602    -3953399.346 8  -3065634.94546  23635398.446    23635411.4694
 00  4 23  3 11 30.0000000  0  7 21 15 17 23 09 29 05
  21222839.471    -2074474.773 9  -1601599.56647  21222841.693    21222849.7304
  22453802.439   -10694877.420 8  -8309026.64346  22453804.020    22453813.9244
  23314221.531    -8168455.895 8  -6345193.38045  23314219.582    23314232.4804
  20657222.413   -22366497.508 9 -17410604.60448  20657223.756    20657231.7434
  21465290.867   -15816420.000 9 -12301015.12847  21465292.938    21465301.6864
  21276985.015   -18653089.212 9 -14522243.25047  21276989.047    21276996.6104
  23621774.017    -4024990.956 8  -3121420.43946  23621776.105    23621787.8544
 00  4 23  3 12  0.0000000  0  7 21 15 17 23 09 29 05
  21210726.226    -2138133.866 9  -1651204.02347  21210727.455    21210736.3424
  22440643.727   -10764039.104 8  -8362918.78546  22440644.437    22440654.7094
  23336633.175    -8050661.634 8  -6253405.77646  23336636.238    23336648.4094
  20659223.717   -22355974.538 9 -17402404.88548  20659226.193    20659234.2664
  21477786.723   -15750762.663 9 -12249853.57247  21477787.474    21477795.4784
  21269201.975   -18694008.266 9 -14554128.21147  21269202.799    21269209.9624
  23608196.799    -4096343.544 8  -3177019.68046  23608197.550    23608209.1874
 00  4 23  3 12 30.0000000  0  7 21 15 17 23 09 29 05
  21198661.352    -2201530.953 9  -1700604.32347  21198663.337    21198671.5504
  22427574.898   -10832706.785 8  -8416425.98546  22427576.577    22427586.0784
  23359077.941    -7932717.385 8  -6161501.30445  23359079.866    23359091.8004
  20661294.204   -22345092.870 9 -17393925.65948  20661296.822    20661304.8304
  21490367.166   -15684629.272 8 -12198321.07047  21490371.481    21490380.8274
  21261457.691   -18734690.257 9 -14585828.43247  21261461.333    21261468.5804
  23594659.437    -4167455.417 8  -3232431.37146  23594664.783    23594677.3314
 00  4 23  3 13  0.0000000  0  7 21 15 17 23 09 29 05
  21186642.744    -2264682.743 9  -1749813.46947  21186645.770    21186653.9994
  22414599.268   -10900878.047 8  -8469546.37046  22414603.755    22414612.7524
  23381554.400    -7814603.304 8  -6069464.50745  23381557.107    23381568.7414
  20663430.589   -22333865.231 9 -17385176.84248  20663433.518    20663441.2974
  21503045.435   -15618025.257 9 -12146421.85547  21503046.762    21503054.4484
  21253759.853   -18775148.984 9 -14617354.68647  21253761.649    21253769.5064
  23581177.033    -4238317.901 8  -3287648.68246  23581179.401    23581192.6594
 00  4 23  3 13 30.0000000  0  7 21 15 17 23 09 29 05
  21174669.017    -2327597.209 9  -1798837.69347  21174673.108    21174681.7084
  22401728.951   -10968550.515 8  -8522278.10346  22401727.020    22401736.3534
  23404055.567    -7696316.587 8  -5977293.15845  23404066.611    23404077.5404
  20665628.312   -22322312.405 9 -17376174.63548  20665631.677    20665639.7854
  21515808.422   -15550939.639 9 -12094147.35547  21515812.707    21515821.0484
  21246102.208   -18815384.780 9 -14648707.25547  21246105.086    21246112.9864
  23567743.125    -4308932.189 8  -3342672.64446  23567743.348    23567754.2984
 00  4 23  3 14  0.0000000  0  7 21 15 17 23 09 29 05
  21162739.387    -2390289.990 9  -1847689.17047  21162742.633    21162751.8274
  22388941.749   -11035721.587 8  -8574619.06846  22388944.454    22388954.3704
  23426607.142    -7577864.503 8  -5884992.94645  23426607.320    23426618.4354
  20667887.410   -22310453.117 9 -17366933.63248  20667888.464    20667896.6204
  21528670.499   -15483362.991 9 -12041490.23847  21528671.421    21528680.1884
  21238491.512   -18855381.647 9 -14679873.62547  21238494.387    21238501.9374
  23554349.573    -4379297.084 8  -3397502.28646  23554353.037    23554364.4094
 00  4 23  3 14 30.0000000  0  7 21 15 17 23 09 29 05
  21150851.534    -2452764.734 9  -1896370.74347  21150854.462    21150863.2314
  22376256.001   -11102388.883 8  -8626567.55446  22376258.374    22376268.3194
  23449171.927    -7459256.573 8  -5792571.33045  23449176.848    23449189.7574
  20670203.704   -22298277.455 9 -17357446.10248  20670205.626    20670213.8614
  21541618.478   -15415307.670 9 -11988460.11747  21541622.327    21541631.2774
  21230926.152   -18895131.363 9 -14710847.41747  21230929.783    21230937.5744
  23541008.805    -4449403.888 8  -3452130.78346  23541011.401    23541023.5584
 00  4 23  3 15  0.0000000  0  7 21 15 17 23 09 29 05
  21139003.973    -2515016.401 9  -1944878.48547  21139008.550    21139017.0694
  22363663.105   -11168550.322 8  -8678121.80846  22363665.941    22363677.9354
  23471777.220    -7340510.408 8  -5700042.01545  23471773.945    23471785.8394
  20672586.067   -22285759.416 9 -17347691.78148  20672587.572    20672595.7334
  21554661.092   -15346780.989 9 -11935062.72147  21554662.382    21554671.4364
  21223411.705   -18934630.769 9 -14741626.15247  21223413.357    21223421.1594
  23527714.856    -4519251.922 8  -3506557.67746  23527719.328    23527732.1394
 00  4 23  3 15 30.0000000  0  7 21 15 17 23 09 29 05
  21127203.470    -2577039.747 9  -1993208.30347  21127205.718    21127214.2014
  22351174.529   -11234203.586 8  -8729280.11246  22351175.374    22351183.3804
  23494389.044    -7221643.065 8  -5607418.23645  23494394.319    23494406.3534
  20675036.751   -22272883.335 9 -17337658.46348  20675037.817    20675045.9574
  21567790.849   -15277793.264 9 -11881306.06047  21567790.439    21567798.9074
  21215944.498   -18973866.992 9 -14772199.80647  21215946.388    21215954.8184
  23514472.486    -4588854.021 8  -3560792.90246  23514474.656    23514487.5274
 00  4 23  3 16  0.0000000  0  7 21 15 17 23 09 29 05
  21115443.238    -2638840.789 9  -2041364.90347  21115445.345    21115453.7474
  22338771.905   -11299346.065 8  -8780040.42246  22338777.459    22338787.2384
  23517030.252    -7102649.042 8  -5514695.80245  23517036.724    23517049.8644
  20677557.569   -22259626.112 9 -17327328.15248  20677560.493    20677568.6394
  21580997.810   -15208352.823 8 -11827196.63347  21581004.204    21581013.0634
  21208525.304   -19012852.766 9 -14802578.28447  21208527.733    21208535.9474
  23501275.808    -4658207.384 8  -3614834.32646  23501277.690    23501287.6634
 00  4 23  3 16 30.0000000  0  7 21 15 17 23 09 29 05
  21103726.222    -2700406.329 9  -2089338.01547  21103729.907    21103738.3094
  22326476.624   -11363975.432 8  -8830400.86546  22326478.991    22326489.3914
  23539703.618    -6983509.787 8  -5421860.18145  23539708.618    23539722.0494
  20680157.109   -22245973.286 9 -17316689.57648  20680158.473    20680166.4664
  21594304.858   -15138459.320 9 -11772734.17847  21594305.355    21594313.6584
  21201149.736   -19051612.527 9 -14832780.67947  21201152.433    21201160.2804
  23488128.586    -4727303.774 8  -3668675.48146  23488129.079    23488140.8034
 00  4 23  3 17  0.0000000  0  7 21 15 17 23 09 29 05
  21092056.450    -2761733.823 9  -2137125.63547  21092059.768    21092067.9114
  22314271.977   -11428089.531 8  -8880359.79846  22314277.773    22314287.0454
  23562404.246    -6864224.953 8  -5328911.10145  23562409.036    23562420.6554
  20682828.640   -22231932.092 9 -17305748.37848  20682830.300    20682838.5624
  21607690.565   -15068104.342 9 -11717912.12147  21607693.014    21607701.0934
  21193814.612   -19090171.335 9 -14862826.48847  21193814.806    21193822.0784
  23475025.024    -4796143.819 8  -3722316.93946  23475028.800    23475039.6594
 00  4 23  3 17 30.0000000  0  7 21 15 17 23 09 29 05
  21080432.752    -2822822.207 9  -2184726.97347  21080435.024    21080443.1294
  22302171.453   -11491685.867 8  -8929915.29746  22302175.861    22302185.8524
  23585137.467    -6744788.842 7  -5235844.17545  23585135.532    23585148.6664
  20685568.950   -22217528.464 9 -17294524.77148  20685571.414    20685579.8054
  21621164.267   -14997280.560 9 -11662724.76647  21621170.702    21621179.2234
  21186509.509   -19128541.176 9 -14892725.01647  21186513.269    21186520.4674
  23461979.358    -4864714.230 8  -3775748.27746  23461980.078    23461991.7674
 00  4 23  3 18  0.0000000  0  7 21 15 17 23 09 29 05
  21068852.859    -2883669.237 9  -2232140.23747  21068855.582    21068864.6244
  22290167.854   -11554762.511 8  -8979065.84446  22290172.530    22290181.4974
  23607883.048    -6625208.076 7  -5142664.51445  23607891.039    23607904.2704
  20688378.547   -22202766.588 9 -17283022.00748  20688380.408    20688388.6184
  21634733.229   -14925985.008 9 -11607169.79347  21634737.904    21634746.0184
  21179242.321   -19166735.381 9 -14922486.71647  21179245.146    21179252.7964
  23448976.641    -4932995.947 8  -3828954.67046  23448985.188    23448998.0834
 00  4 23  3 18 30.0000000  0  7 21 15 17 23 09 29 05
  21057320.816    -2944270.087 9  -2279361.64247  21057324.104    21057332.6504
  22278269.954   -11617317.087 8  -9027809.53946  22278269.688    22278278.2654
  23630665.610    -6505506.741 8  -5049390.89345  23630671.128    23630683.5904
  20691254.799   -22187651.624 9 -17271244.10948  20691257.054    20691264.7794
  21648388.481   -14854231.141 9 -11551257.70047  21648391.928    21648400.5034
  21172009.343   -19204742.668 9 -14952102.72047  21172012.730    21172020.2644
  23436041.433    -5000993.737 8  -3881939.79146  23436045.666    23436058.4314
 00  4 23  3 19  0.0000000  0  7 21 15 17 23 09 29 05
  21045836.460    -3004632.098 9  -2326396.97547  21045837.804    21045845.9854
  22266462.043   -11679346.946 8  -9076144.44346  22266465.450    22266474.6134
  23653468.423    -6385708.776 8  -4956042.00445  23653467.487    23653480.8444
  20694196.531   -22172187.101 9 -17259193.82148  20694199.554    20694207.3954
  21662126.890   -14782043.314 8 -11495007.47047  21662128.576    21662137.1084
  21164818.437   -19242539.876 9 -14981555.06647  21164820.355    21164827.3144
  23423161.936    -5068702.165 8  -3934699.47146  23423162.763    23423173.6214
 00  4 23  3 19 30.0000000  0  7 21 15 17 23 09 29 05
  21034394.712    -3064744.880 9  -2373238.10047  21034398.514    21034406.6494
  22254755.923   -11740850.173 8  -9124068.90646  22254761.255    22254772.1854
  23676279.527    -6265807.554 8  -4862612.62945  23676284.505    23676296.8814
  20697208.818   -22156361.138 9 -17246861.89148  20697211.263    20697219.1744
  21675943.469   -14709431.255 9 -11438426.65947  21675946.610    21675954.3784
  21157670.096   -19280102.808 9 -15010824.85247  21157671.951    21157679.3164
  23410329.796    -5136116.707 8  -3987230.15746  23410333.969    23410345.3644
 00  4 23  3 20  0.0000000  0  7 21 15 17 23 09 29 05
  21023006.545    -3124592.366 9  -2419872.45947  21023009.438    21023018.0454
  22243156.944   -11801824.570 8  -9171581.31946  22243158.826    22243169.3504
  23699120.314    -6145800.020 8  -4769100.39945  23699120.753    23699133.3424
  20700292.331   -22140152.600 9 -17234231.85748  20700295.662    20700303.3414
  21689841.633   -14636403.893 9 -11381522.22147  21689843.163    21689851.0484
  21150565.266   -19317426.048 9 -15039907.87847  21150569.453    21150576.9854
  23397553.074    -5203246.027 8  -4039538.56446  23397558.661    23397571.0344
 00  4 23  3 20 30.0000000  0  7 21 15 17 23 09 29 05
  21011672.227    -3184161.370 9  -2466289.79447  21011674.465    21011682.6434
  22231652.389   -11862267.800 8  -9218679.85146  22231655.742    22231665.7614
  23721973.361    -6025682.026 8  -4675502.11545  23721979.251    23721990.8594
  20703449.966   -22123561.295 9 -17221303.56248  20703452.900    20703460.6134
  21703815.754   -14562960.843 9 -11324293.88947  21703818.676    21703827.1734
  21143510.384   -19354503.782 9 -15068799.58847  21143513.401    21143521.0484
  23384841.775    -5270087.283 8  -4091622.53046  23384840.081    23384851.6504
 00  4 23  3 21  0.0000000  0  7 21 15 17 23 09 29 05
  21000391.703    -3243439.330 9  -2512480.37147  21000393.998    21000402.6944
  22220256.105   -11922177.716 8  -9265362.82546  22220255.809    22220265.4424
  23744855.707    -5905440.176 8  -4581807.31945  23744859.744    23744872.1374
  20706680.142   -22106593.124 9 -17208081.60448  20706681.992    20706689.8474
  21717879.224   -14489094.264 9 -11266735.52447  21717875.553    21717882.8014
  21136500.530   -19391340.348 9 -15097503.38547  21136503.618    21136512.0794
  23372174.485    -5336633.069 8  -4143476.24346  23372176.056    23372187.7624
 00  4 23  3 21 30.0000000  0  7 21 15 17 23 09 29 05
  20989167.860    -3302411.853 9  -2558432.92947  20989171.825    20989180.0044
  22208954.470   -11981552.155 8  -9311628.53046  22208956.217    22208967.0864
  23767753.611    -5785059.782 8  -4488004.57045  23767766.931    23767780.7234
  20709978.621   -22089251.391 9 -17194568.56048  20709981.619    20709989.6484
  21732012.167   -14414788.408 8 -11208834.86047  21732014.962    21732022.9864
  21129532.061   -19427952.582 9 -15126032.36847  21129536.566    21129544.8954
  23359567.251    -5402888.935 8  -4195104.07146  23359568.694    23359579.6454
 00  4 23  3 22  0.0000000  0  7 21 15 17 23 09 29 05
  20978003.790    -3361091.138 9  -2604157.02147  20978005.768    20978013.8444
  22197754.873   -12040389.163 8  -9357475.46746  22197760.000    22197771.4154
  23790690.369    -5664558.647 8  -4394107.73845  23790698.046    23790711.6674
  20713350.558   -22071549.687 9 -17180775.02248  20713349.946    20713358.2264
  21746237.439   -14340050.197 8 -11150597.30447  21746237.366    21746245.5794
  21122607.247   -19464352.356 9 -15154395.78047  21122609.945    21122618.0464
  23347015.868    -5468840.526 8  -4246494.76946  23347017.782    23347029.3854
 00  4 23  3 22 30.0000000  0  7 21 15 17 23 09 29 05
  20966890.583    -3419487.685 9  -2649660.80047  20966893.608    20966901.4544
  22186664.064   -12098686.407 8  -9402901.78846  22186665.412    22186677.4214
  23813648.474    -5543953.283 8  -4300129.71246  23813648.903    23813662.9144
  20716784.585   -22053493.894 9 -17166705.57148  20716786.175    20716794.1684
  21760535.504   -14264882.061 8 -11092024.75147  21760541.051    21760549.8064
  21115723.398   -19500532.979 9 -15182588.42847  21115725.068    21115733.0704
  23334525.765    -5534488.168 8  -4297648.65646  23334525.363    23334536.0284
 00  4 23  3 23  0.0000000  0  7 21 15 17 23 09 29 05
  20955832.042    -3477604.421 9  -2694946.52247  20955834.254    20955841.9454
  22175677.806   -12156441.717 8  -9447905.84946  22175676.550    22175685.7364
  23836615.261    -5423244.142 8  -4206070.81146  23836618.483    23836632.7254
  20720287.920   -22035081.804 9 -17152358.48348  20720289.841    20720297.9884
  21774922.117   -14189290.166 8 -11033121.99847  21774925.908    21774934.5654
  21108880.024   -19536492.911 9 -15210609.10947  21108882.573    21108889.8234
  23322086.397    -5599837.394 8  -4348569.98746  23322088.880    23322101.0644
 00  4 23  3 23 30.0000000  0  7 21 15 17 23 09 29 05
  20944825.253    -3535447.243 9  -2740018.81647  20944827.454    20944834.6484
  22164787.133   -12213653.192 8  -9492486.14446  22164789.397    22164798.3104
  23859610.525    -5302448.346 8  -4111944.41346  23859605.728    23859619.2304
  20723863.033   -22016300.109 9 -17137723.40048  20723863.705    20723871.9514
  21789387.824   -14113284.539 8 -10973896.83647  21789389.109    21789397.9164
  21102079.469   -19572231.849 9 -15238457.62647  21102081.498    21102088.5064
  23309710.176    -5664883.693 8  -4399255.27546  23309712.041    23309722.6724
 00  4 23  3 24  0.0000000  0  7 21 15 17 23 09 29 05
  20933866.280    -3593030.001 9  -2784888.45547  20933869.051    20933876.8334
  22154007.700   -12270318.737 8  -9536641.01246  22154005.870    22154015.9844
  23882607.865    -5181588.099 8  -4017767.76946  23882604.937    23882618.8974
  20727509.268   -21997132.307 9 -17122787.45948  20727511.234    20727519.5234
  21803926.255   -14036870.555 8 -10914353.48647  21803930.706    21803939.1684
  21095321.607   -19607745.350 9 -15266130.45047  21095323.295    21095330.5494
  23297392.085    -5729628.196 8  -4449705.40146  23297391.158    23297401.4524
 00  4 23  3 24 30.0000000  0  7 21 15 17 23 09 29 05
  20922961.807    -3650337.723 9  -2829543.78347  20922963.764    20922971.4684
  22143324.678   -12326436.050 8  -9580368.71646  22143327.345    22143336.3694
  23905604.523    -5060656.829 8  -3923535.79745  23905617.178    23905631.3834
  20731233.690   -21977561.779 9 -17107537.69848  20731235.221    20731243.5694
  21818546.988   -13960045.877 8 -10854490.10247  21818549.685    21818558.7214
  21088606.480   -19643032.771 9 -15293627.11747  21088608.399    21088616.0324
  23285125.878    -5794078.970 8  -4499926.64246  23285125.793    23285137.1494
 00  4 23  3 25  0.0000000  0  7 21 15 17 23 09 29 05
  20912107.923    -3707373.845 9  -2873987.47647  20912110.106    20912118.1824
  22132746.952   -12382003.134 8  -9623667.64046  22132753.126    22132763.1534
  23928641.624    -4939652.202 8  -3829246.66445  23928644.776    23928657.3384
  20735031.932   -21957596.532 9 -17091980.35948  20735034.537    20735042.8334
  21833243.108   -13882814.759 8 -10794310.03247  21833245.847    21833254.5724
  21081931.744   -19678110.196 9 -15320960.16947  21081933.700    21081941.3174
  23272913.720    -5858225.501 8  -4549910.81946  23272919.820    23272931.3734
 00  4 23  3 25 30.0000000  0  7 21 15 17 23 09 29 05
  20901306.100    -3764138.294 9  -2918219.47747  20901308.382    20901316.2874
  22122284.110   -12437018.238 8  -9666536.46346  22122284.401    22122294.0184
  23951683.084    -4818592.970 8  -3734914.95945  23951681.645    23951695.0254
  20738905.564   -21937240.615 9 -17076118.60648  20738908.192    20738916.6444
  21848015.549   -13805179.531 8 -10733815.05647  21848019.776    21848027.3684
  21075293.845   -19712981.266 9 -15348132.42047  21075297.557    21075305.5194
  23260769.164    -5922067.652 8  -4599657.82646  23260771.073    23260781.9344
 00  4 23  3 26  0.0000000  0  7 21 15 17 23 09 29 05
  20890558.744    -3820621.211 9  -2962232.12447  20890559.719    20890567.9964
  22111916.789   -12491479.281 8  -9708973.55446  22111919.772    22111930.0294
  23974726.723    -4697464.571 8  -3640529.36245  23974731.612    23974744.7794
  20742852.775   -21916505.309 9 -17059961.23148  20742854.176    20742862.5694
  21862868.994   -13727136.504 8 -10673002.31347  21862870.733    21862879.2064
  21068699.077   -19747642.620 9 -15375141.24947  21068702.269    21068709.6014
  23248680.550    -5985598.378 8  -4649162.13946  23248681.308    23248692.2144
 00  4 23  3 26 30.0000000  0  7 21 15 17 23 09 29 05
  20879863.866    -3876812.581 9  -3006017.61547  20879866.486    20879875.0794
  22101662.894   -12545384.146 8  -9750977.28046  22101662.777    22101672.6154
  23997804.046    -4576251.138 8  -3546077.53445  23997798.319    23997810.7974
  20746865.620   -21895411.183 9 -17043524.25848  20746867.875    20746876.3884
  21877800.718   -13648686.492 9 -10611872.46047  21877800.391    21877808.0734
  21062143.028   -19782094.150 9 -15401986.56747  21062145.713    21062153.4614
  23236650.836    -6048802.587 8  -4698412.03546  23236652.565    23236663.7794
 00  4 23  3 27  0.0000000  0  7 21 15 17 23 09 29 05
  20869227.546    -3932715.222 9  -3049578.13847  20869228.791    20869237.2634
  22091509.320   -12598731.041 8  -9792546.21146  22091511.251    22091521.3764
  24020884.166    -4454954.509 8  -3451560.88845  24020880.015    24020893.2034
  20750943.946   -21873973.163 9 -17026819.31548  20750947.610    20750955.7144
  21892799.473   -13569832.938 8 -10550428.14947  21892804.571    21892813.1484
  21055628.340   -19816329.493 9 -15428663.44147  21055630.840    21055638.4974
  23224690.132    -6111674.465 8  -4747402.98446  23224688.705    23224700.0724
 00  4 23  3 27 30.0000000  0  7 21 15 17 23 09 29 05
  20858645.134    -3988323.508 9  -3092909.25047  20858646.645    20858655.4134
  22081461.587   -12651517.850 8  -9833678.71746  22081465.636    22081476.0364
  24043982.627    -4333567.024 8  -3356973.40545  24043979.943    24043991.9954
  20755093.177   -21852172.534 9 -17009831.82648  20755096.309    20755104.4204
  21907887.146   -13490573.316 8 -10488667.41747  21907888.306    21907895.7074
  21049156.227   -19850334.433 9 -15455160.76847  21049160.214    21049167.6114
  23212790.445    -6174200.573 8  -4796124.49146  23212791.826    23212801.0934
 00  4 23  3 28  0.0000000  0  7 21 15 17 23 09 29 05
  20848117.834    -4043638.670 9  -3136011.95347  20848120.630    20848129.4674
  22071523.504   -12703742.624 8  -9874373.25046  22071528.527    22071537.0624
  24067094.461    -4212073.054 8  -3262302.98145  24067098.623    24067111.2674
  20759312.115   -21830012.204 9 -16992564.04048  20759313.248    20759321.2584
  21923044.775   -13410896.946 8 -10426581.95447  21923049.923    21923057.9294
  21042731.527   -19884107.504 9 -15481477.38547  21042733.256    21042740.4284
  23200959.496    -6236358.905 8  -4844559.44846  23200963.238    23200974.0944
 00  4 23  3 28 30.0000000  0  7 21 15 17 23 09 29 05
  20837648.416    -4098663.146 9  -3178888.17947  20837650.217    20837658.3684
  22061694.651   -12755403.598 8  -9914628.47746  22061697.173    22061706.2234
  24090231.219    -4090487.160 8  -3167560.89945  24090236.665    24090248.8334
  20763596.847   -21807487.631 9 -16975012.43748  20763599.799    20763607.7434
  21938291.948   -13330807.639 8 -10364174.72347  21938290.382    21938298.8984
  21036347.664   -19917655.262 9 -15507618.46147  21036349.433    21036356.6404
  23189205.839    -6298151.929 8  -4892709.71046  23189203.988    23189214.4834
 00  4 23  3 29  0.0000000  0  7 21 15 17 23 09 29 05
  20827234.013    -4153388.633 9  -3221531.39847  20827236.349    20827244.2794
  22051972.977   -12806499.145 8  -9954443.09346  22051974.867    22051983.2284
  24113391.070    -3968824.178 7  -3072758.76245  24113387.445    24113400.0504
  20767957.231   -21784574.172 9 -16957157.80448  20767959.624    20767967.9484
  21953605.987   -13250315.712 8 -10301453.77147  21953606.801    21953614.6024
  21030004.958   -19950976.175 9 -15533582.81347  21030008.734    21030015.5754
  23177509.468    -6359579.349 8  -4940575.11146  23177513.515    23177523.9454
 00  4 23  3 29 30.0000000  0  7 21 15 17 23 09 29 05
  20816875.629    -4207810.304 9  -3263937.87948  20816879.969    20816888.5044
  22042356.572   -12857027.172 8  -9993815.52646  22042358.967    22042368.3204
  24136550.644    -3847091.754 7  -2977902.54045  24136554.585    24136565.3164
  20772393.155   -21761256.423 9 -16938988.14548  20772396.755    20772405.2314
  21968997.332   -13169421.924 8 -10238419.65947  21969000.960    21969008.2654
  21023707.233   -19984080.266 9 -15559378.17547  21023709.455    21023716.3804
  23165893.841    -6420638.252 8  -4988153.34646  23165895.151    23165905.7554
 00  4 23  3 30  0.0000000  0  7 21 15 17 23 09 29 05
  20806581.036    -4261925.560 9  -3306105.63847  20806582.508    20806590.4384
  22032849.364   -12906985.822 8 -10032744.27546  22032851.516    22032861.2414
  24159724.851    -3725304.293 7  -2883003.41145  24159727.743    24159742.0114
  20776907.401   -21737546.905 9 -16920513.20348  20776908.763    20776916.8504
  21984468.602   -13088140.355 8 -10175083.39347  21984468.511    21984476.1844
  21017447.889   -20016971.783 9 -15585007.85247  21017450.161    21017457.3214
  23154343.305    -6481347.890 8  -5035459.42746  23154341.647    23154352.3914
 00  4 23  3 30 30.0000000  0  8 21 15 17 23 09 29 05 30
  20796339.122    -4315735.755 9  -3348035.66647  20796342.682    20796350.6824
  22023451.595   -12956373.026 8 -10071227.72746  22023453.553    22023462.9404
  24182900.331    -3603468.936 7  -2788066.98945  24182911.794    24182926.3134
  20781496.411   -21713426.367 9 -16901717.99147  20781499.051    20781506.6204
  21999998.954   -13006499.133 8 -10111466.87247  22000003.761    22000011.2314
  21011230.315   -20049651.354 9 -15610472.38847  21011231.130    21011238.9274
  23142844.128    -6541720.283 8  -5082502.72246  23142853.479    23142864.5714
  24375179.025      -43897.48617
 00  4 23  3 31  0.0000000  0  8 21 15 17 23 09 29 05 30
  20786157.262    -4369245.738 9  -3389731.75147  20786159.697    20786168.2204
  22014161.461   -13005186.923 8 -10109264.48846  22014163.770    22014174.3614
  24206109.713    -3481589.662 7  -2693096.35445  24206107.106    24206119.7894
  20786165.879   -21688895.315 9 -16882602.89148  20786167.188    20786175.2144
  22015598.920   -12924510.307 8 -10047579.47947  22015605.353    22015614.4464
  21005051.824   -20082114.124 9 -15635768.02547  21005053.847    21005061.3924
  23131431.343    -6601758.453 8  -5129285.57446  23131428.617    23131439.6824
  24357210.758     -138330.070 7    -93869.74355  24357219.594    24357227.4504
 00  4 23  3 31 30.0000000  0  8 21 15 17 23 09 29 05 30
  20776030.626    -4422459.442 9  -3431196.94247  20776033.664    20776042.0264
  22004982.170   -13053425.829 8 -10146853.20546  22004985.228    22004994.6494
  24229311.403    -3359671.801 7  -2598095.65344  24229305.374    24229320.0864
  20790907.257   -21663975.903 9 -16863185.17247  20790908.737    20790917.2464
  22031274.813   -12842170.526 8  -9983418.65247  22031274.781    22031283.2144
  20998913.814   -20114358.403 9 -15660893.43047  20998918.103    20998925.4064
  23120067.005    -6661467.865 8  -5175812.27046  23120066.644    23120077.6384
  24339250.550     -232742.370 7   -167437.43545  24339255.065    24339267.1474
 00  4 23  3 32  0.0000000  0  8 21 15 17 23 09 29 05 30
  20765961.831    -4475369.476 9  -3472425.47247  20765965.114    20765973.2764
  21995916.097   -13101088.289 8 -10183992.74146  21995916.037    21995925.0464
  24252511.003    -3237718.361 7  -2503067.21244  24252514.422    24252527.5964
  20795723.330   -21638673.799 9 -16843469.25847  20795723.624    20795732.0124
  22047010.768   -12759484.209 8  -9918987.77447  22047009.446    22047018.1094
  20992823.383   -20146377.697 9 -15685843.49047  20992825.076    20992832.3044
  23108765.002    -6720849.954 8  -5222083.87346  23108766.319    23108777.0434
  24321284.033     -327137.217 7   -240991.66345  24321290.376    24321304.6814
 00  4 23  3 32 30.0000000  0  8 21 15 17 23 09 29 05 30
  20755957.410    -4527954.266 9  -3513400.56347  20755958.699    20755966.5584
  21986951.364   -13148172.364 8 -10220681.58246  21986955.566    21986964.5774
  24275726.332    -3115740.044 7  -2408019.37744  24275726.446    24275740.7384
  20800609.960   -21612977.058 9 -16823445.83747  20800613.608    20800621.9824
  22062805.992   -12676441.920 8  -9854279.52847  22062811.360    22062820.1474
  20986771.931   -20178164.526 9 -15710612.41547  20986775.971    20986783.4924
  23097527.624    -6779891.881 8  -5268090.45246  23097530.364    23097541.0034
  24303323.933     -421515.004 7   -314532.54145  24303331.903    24303344.2604
 00  4 23  3 33  0.0000000  0  8 21 15 17 23 09 29 05 30
  20746016.125    -4580195.037 9  -3554107.55347  20746017.272    20746025.0664
  21978102.180   -13194676.388 8 -10256918.39447  21978106.758    21978115.0784
  24298944.610    -2993745.146 7  -2312958.63644  24298940.788    24298954.8544
  20805576.598   -21586887.498 9 -16803116.32147  20805578.116    20805586.3404
  22078683.431   -12593020.834 8  -9789276.10047  22078685.712    22078694.3954
  20980770.146   -20209715.794 9 -15735197.76947  20980771.668    20980779.2224
  23086359.779    -6838592.643 8  -5313831.18846  23086360.622    23086369.9954
  24285367.704     -515865.695 7   -388052.29445  24285377.543    24285390.8254
 00  4 23  3 33 30.0000000  0  8 21 15 17 23 09 29 05 30
  20736141.057    -4632084.635 9  -3594540.90847  20736143.011    20736150.3734
  21969365.847   -13240598.806 8 -10292702.03446  21969367.121    21969375.8234
  24322151.872    -2871730.657 7  -2217882.66644  24322159.909    24322174.5344
  20810616.084   -21560397.198 9 -16782474.54047  20810619.212    20810627.2964
  22094634.463   -12509210.403 8  -9723969.27647  22094634.670    22094643.4964
  20974807.484   -20241042.043 9 -15759607.79547  20974810.266    20974817.9984
  23075254.732    -6896943.523 8  -5359299.29646  23075256.296    23075266.7894
  24267432.518     -610205.160 7   -461563.36145  24267425.076    24267437.7354
 00  4 23  3 34  0.0000000  0  9 21 15 17 23 09 29 05 30 25
  20726334.197    -4683620.044 9  -3634698.29447  20726336.188    20726343.5224
  21960736.435   -13285937.858 8 -10328031.11746  21960739.038    21960747.8644
  24345378.460    -2749691.879 7  -2122787.72044  24345386.526    24345396.4874
  20815735.885   -21533495.760 9 -16761512.38847  20815738.519    20815746.5754
  22110648.888   -12425019.851 8  -9658366.27347  22110655.894    22110664.4654
  20968887.951   -20272154.179 9 -15783850.98347  20968890.067    20968897.3824
  23064216.745    -6954943.820 8  -5404494.22646  23064219.539    23064229.9204
  24249467.812     -704558.640 8   -535085.28445  24249470.446    24249482.0794
  24715553.743    -2862791.08317  -2220389.63055  24715560.569    24715570.6774
 00  4 23  3 34 30.0000000  0  9 21 15 17 23 09 29 05 30 25
  20716591.604    -4734814.974 9  -3674590.37847  20716594.277    20716601.7684
  21952219.599   -13330691.832 8 -10362904.29546  21952222.616    21952231.0744
  24368613.506    -2627622.831 7  -2027669.18544  24368611.549    24368625.8384
  20820932.961   -21506188.565 9 -16740234.07147  20820934.894    20820943.2804
  22126750.217   -12340453.022 8  -9592470.07647  22126748.707    22126756.5484
  20963006.028   -20303059.852 9 -15807933.31747  20963009.062    20963016.2454
  23053242.671    -7012588.602 8  -5449412.10746  23053249.996    23053260.6424
  24231514.630     -798917.828 8   -608611.70245  24231514.128    24231526.1174
  24695735.554    -2966941.351 7  -2301545.51545  24695739.778    24695751.1624
 00  4 23  3 35  0.0000000  0  9 21 15 17 23 09 29 05 30 25
  20706909.609    -4785690.656 9  -3714233.72047  20706912.615    20706920.4654
  21943814.653   -13374859.082 8 -10397320.29246  21943817.866    21943827.0974
  24391850.989    -2505507.649 7  -1932514.74444  24391848.411    24391864.5974
  20826203.791   -21478494.290 9 -16718654.13147  20826205.018    20826213.0304
  22142908.781   -12255514.586 8  -9526284.28447  22142911.014    22142919.6204
  20957160.705   -20333786.705 9 -15831876.29747  20957161.873    20957169.4554
  23042351.642    -7069876.154 8  -5494051.65846  23042348.591    23042358.7964
  24213564.777     -893270.591 8   -682133.11745  24213559.260    24213570.4054
  24675942.061    -3071009.049 7  -2382637.02445  24675934.865    24675948.2034
 00  4 23  3 35 30.0000000  0  8 21 15 23 09 29 05 30 25
  20697288.206    -4836252.023 9  -3753632.13148  20697290.979    20697299.0444
  21935524.692   -13418437.976 8 -10431277.82846  21935525.506    21935532.8614
  20831541.403   -21450435.891 9 -16696790.45447  20831544.502    20831552.6354
  22159135.222   -12170224.990 8  -9459824.89847  22159141.725    22159150.5784
  20951345.794   -20364339.946 9 -15855683.99947  20951347.827    20951355.2484
  23031513.674    -7126803.003 8  -5538410.11146  23031515.661    23031525.5794
  24195593.532     -987615.944 8   -755648.79545  24195605.884    24195616.6114
  24656140.085    -3174989.535 7  -2463660.58945  24656148.072    24656160.4784
 00  4 23  3 36  0.0000000  0  8 21 15 23 09 29 05 30 25
  20687727.458    -4886499.331 9  -3792785.83648  20687729.281    20687737.3134
  21927344.196   -13461426.938 8 -10464775.67446  21927345.518    21927353.5374
  20836949.059   -21422020.834 9 -16674648.86047  20836951.782    20836959.5234
  22175434.677   -12084594.053 8  -9393099.52347  22175437.309    22175445.3614
  20945568.353   -20394699.739 9 -15879340.93147  20945570.479    20945577.7644
  23020746.734    -7183358.117 8  -5582478.92246  23020753.697    23020762.8314
  24177663.161    -1081929.258 8   -829139.52445  24177658.658    24177669.4804
  24636369.471    -3278873.067 7  -2544608.65745  24636379.401    24636391.4194
 00  4 23  3 36 30.0000000  0  8 21 15 23 09 29 05 30 25
  20678224.381    -4936431.638 9  -3831694.09748  20678227.242    20678235.7064
  21919277.346   -13503824.518 8 -10497812.70547  21919277.124    21919286.5174
  20842425.099   -21393245.494 9 -16652226.53247  20842427.727    20842435.5524
  22191796.019   -11998618.511 8  -9326105.62247  22191797.481    22191805.3934
  20939830.254   -20424846.959 9 -15902832.23247  20939833.716    20939840.6404
  23010068.440    -7239522.208 8  -5626243.02546  23010065.539    23010075.0634
  24159726.773    -1176175.227 8   -902577.76545  24159723.511    24159735.5944
  24616635.149    -3382657.136 7  -2625479.19245  24616628.924    24616640.9434
 00  4 23  3 37  0.0000000  0  8 21 15 23 09 29 05 30 25
  20668785.660    -4986042.917 9  -3870352.19748  20668786.798    20668794.7874
  21911319.058   -13545629.095 8 -10530387.66447  21911322.037    21911331.4424
  20847970.223   -21364102.003 9 -16629517.32247  20847973.495    20847981.4734
  22208220.687   -11912299.878 8  -9258844.38347  22208223.097    22208231.7144
  20934137.123   -20454771.731 9 -15926150.18647  20934139.374    20934146.1244
  22999450.543    -7295292.989 8  -5669700.67246  22999452.737    22999462.6964
  24141804.974    -1270349.289 8   -975959.94645  24141802.375    24141814.7254
  24596898.396    -3486328.951 7  -2706262.25445  24596901.243    24596914.1754
 00  4 23  3 37 30.0000000  0  8 21 15 23 09 29 05 30 25
  20659406.909    -5035330.025 9  -3908757.71548  20659408.041    20659415.7654
  21903477.312   -13586839.189 8 -10562499.37547  21903478.883    21903489.5854
  20853589.087   -21334574.299 9 -16606508.73947  20853592.052    20853600.3374
  22224710.049   -11825653.379 8  -9191327.67046  22224711.631    22224719.6144
  20928491.194   -20484446.674 9 -15949273.52947  20928492.354    20928499.4374
  22988912.686    -7350659.853 8  -5712843.55646  22988916.214    22988927.1644
  24123889.277    -1364452.089 8  -1049286.59345  24123895.611    24123907.4744
  24577188.848    -3589881.101 7  -2786952.07045  24577197.377    24577208.3244
 00  4 23  3 38  0.0000000  0  8 21 15 23 09 29 05 30 25
  20650084.905    -5084304.601 9  -3946919.69148  20650088.390    20650096.1274
  21895748.567   -13627453.235 8 -10594146.64947  21895750.118    21895760.5944
  20859287.522   -21304639.144 9 -16583182.65947  20859288.608    20859296.9724
  22241260.717   -11738677.709 8  -9123554.42946  22241263.237    22241269.8184
  20922891.755   -20513868.495 9 -15972199.62547  20922893.044    20922900.2924
  22978455.446    -7405619.474 8  -5755669.11046  22978457.995    22978468.2594
  24106004.644    -1458466.063 8  -1122544.02945  24106004.709    24106016.8094
  24557521.221    -3693315.655 8  -2867550.24945  24557513.489    24557526.1834
 00  4 23  3 38 30.0000000  0  8 21 15 23 09 29 05 30 25
  20640826.216    -5132959.788 9  -3984832.80648  20640829.198    20640837.2464
  21888133.810   -13667469.882 8 -10625328.40246  21888135.750    21888144.8234
  20865060.925   -21274295.773 9 -16559538.49547  20865063.004    20865071.1964
  22257875.251   -11651369.903 8  -9055522.39046  22257876.777    22257884.9114
  20917337.271   -20543060.558 9 -15994946.65447  20917338.219    20917345.2694
  22968078.894    -7460182.357 8  -5798185.52146  22968075.156    22968086.2054
  24088123.986    -1552399.559 8  -1195738.77045  24088129.310    24088142.5664
  24537855.895    -3796629.114 8  -2948054.07645  24537855.190    24537865.8084
 00  4 23  3 39  0.0000000  0  8 21 15 23 09 29 05 30 25
  20631631.476    -5181284.478 9  -4022488.38548  20631632.971    20631641.3984
  21880631.043   -13706887.719 8 -10656043.56947  21880634.347    21880644.0474
  20870913.377   -21243552.174 9 -16535582.46247  20870913.396    20870921.2084
  22274545.900   -11563737.499 8  -8987237.44746  22274552.168    22274560.8464
  20911821.259   -20572037.470 9 -16017525.99347  20911823.991    20911831.1774
  22957766.317    -7514347.829 8  -5840392.26846  22957767.990    22957778.5254
  24070268.749    -1646264.447 8  -1268880.03245  24070267.466    24070279.2924
  24518210.629    -3899826.133 8  -3028467.19545  24518216.616    24518227.5204
 00  4 23  3 39 30.0000000  0  8 21 15 23 09 29 05 30 25
  20622498.980    -5229262.563 9  -4059873.88348  20622503.524    20622511.4484
  21873245.823   -13745705.282 8 -10686290.98247  21873247.895    21873257.2284
  20876838.332   -21212413.896 9 -16511318.88747  20876838.651    20876846.7734
  22291290.901   -11475781.552 8  -8918700.36346  22291289.981    22291298.2764
  20906347.259   -20600802.225 9 -16039940.03847  20906350.479    20906357.7264
  22947530.856    -7568106.509 8  -5882282.04646  22947537.821    22947547.3074
  24052419.657    -1740057.501 8  -1341965.32645  24052419.383    24052431.9144
  24498591.267    -4002910.438 8  -3108792.48445  24498599.216    24498610.6694
 00  4 23  3 40  0.0000000  0  8 21 15 23 09 29 05 30 25
  20613440.966    -5276867.682 9  -4096968.76048  20613444.227    20613452.7984
  21865975.483   -13783921.137 8 -10716069.54447  21865976.876    21865984.2804
  20882833.544   -21180887.760 9 -16486753.08147  20882837.850    20882846.0544
  22308085.867   -11387486.397 8  -8849898.98546  22308091.848    22308100.8774
  20900910.662   -20629364.378 9 -16062196.27747  20900915.233    20900922.6474
  22937381.518    -7621465.712 8  -5923860.54546  22937382.757    22937392.5504
  24034580.871    -1833786.354 8  -1415000.60745  24034584.010    24034595.5654
  24479004.604    -4105874.981 8  -3189024.45145  24479006.562    24479017.8404
 00  4 23  3 40 30.0000000  0  8 21 15 23 09 29 05 30 25
  20604458.967    -5324081.621 9  -4133758.84748  20604460.066    20604468.1944
  21858815.920   -13821533.973 8 -10745378.19547  21858818.110    21858828.1864
  20888906.381   -21148983.717 9 -16461892.79847  20888908.951    20888917.3804
  22324956.697   -11298849.720 8  -8780831.46646  22324959.136    22324967.9364
  20895516.941   -20657720.188 9 -16084291.77047  20895519.130    20895526.3864
  22927303.884    -7674414.387 8  -5965119.14246  22927306.965    22927316.5974
  24016757.338    -1927469.290 8  -1488000.11445  24016757.194    24016767.5144
  24459438.657    -4208708.224 8  -3269154.10645  24459438.167    24459449.1004
 00  4 23  3 41  0.0000000  0  8 21 15 23 09 29 05 30 25
  20595547.421    -5370912.101 9  -4170250.12148  20595548.933    20595556.6674
  21851769.893   -13858542.529 8 -10774215.98347  21851775.132    21851784.8334
  20895052.088   -21116693.361 9 -16436731.49547  20895053.318    20895061.7134
  22341885.585   -11209881.749 8  -8711505.80646  22341888.550    22341898.4304
  20890159.715   -20685860.830 9 -16106219.55647  20890163.383    20890171.8354
  22917305.415    -7726950.569 8  -6006056.33146  22917309.506    22917319.8304
  23998935.470    -2021102.677 8  -1560961.00945  23998938.026    23998949.3344
  24439887.673    -4311408.803 7  -3349180.37745  24439893.350    24439904.2654
 00  4 23  3 41 30.0000000  0  8 21 15 23 09 29 05 30 25
  20586707.980    -5417366.009 9  -4206447.96348  20586709.183    20586716.8334
  21844843.598   -13894945.325 8 -10802581.78547  21844848.350    21844858.2444
  20901273.623   -21084006.854 9 -16411261.50747  20901273.978    20901281.8844
  22358882.681   -11120576.910 8  -8641917.65746  22358883.686    22358891.3524
  20884846.245   -20713786.499 9 -16127979.81347  20884849.932    20884858.2134
  22907384.996    -7779094.689 8  -6046688.02046  22907386.632    22907397.5104
  23981129.958    -2114687.831 8  -1633884.32345  23981128.174    23981140.4944
  24420379.100    -4413973.895 8  -3429101.12745  24420376.243    24420389.2754
 00  4 23  3 42  0.0000000  0  8 21 15 23 09 29 05 30 25
  20577934.568    -5463457.840 9  -4242363.66748  20577937.778    20577945.9034
  21838031.362   -13930740.985 8 -10830474.48347  21838035.546    21838046.3404
  20907568.484   -21050917.123 9 -16385477.32647  20907570.312    20907578.6694
  22375937.761   -11030942.915 8  -8572072.98446  22375940.488    22375947.9654
  20879575.693   -20741498.459 9 -16149573.55347  20879577.145    20879584.0104
  22897531.392    -7830848.326 8  -6087015.42146  22897538.959    22897549.5024
  23963333.511    -2208231.936 8  -1706775.66645  23963327.565    23963339.6554
  24400884.632    -4516404.965 7  -3508917.39345  24400885.235    24400895.5234
 00  4 23  3 42 30.0000000  0  8 21 15 23 09 29 05 30 25
  20569228.310    -5509213.660 9  -4278017.54648  20569230.630    20569238.7834
  21831336.619   -13965928.224 8 -10857893.05347  21831340.354    21831349.7224
  20913941.415   -21017419.716 9 -16359375.47447  20913944.628    20913953.1654
  22393059.067   -10940995.878 8  -8501984.42246  22393056.537    22393064.9794
  20874338.868   -20769005.030 9 -16171007.24047  20874342.314    20874349.4204
  22887765.052    -7882198.389 8  -6127028.36246  22887767.606    22887777.5604
  23945535.747    -2301719.053 8  -1779622.59746  23945538.392    23945549.6454
  24381409.383    -4618718.543 8  -3588642.10645  24381415.974    24381425.6994
 00  4 23  3 43  0.0000000  0  8 21 15 23 09 29 05 30 25
  20560585.789    -5554629.948 9  -4313406.85748  20560588.523    20560595.9804
  21824762.278   -14000505.748 8 -10884836.53247  21824761.330    21824769.5344
  20920394.963   -20983513.399 9 -16332954.99147  20920396.790    20920405.4974
  22410220.825   -10850748.152 8  -8431661.53546  22410230.227    22410238.8844
  20869143.741   -20796313.255 9 -16192286.36047  20869145.827    20869152.7824
  22878072.757    -7933146.869 8  -6166728.37346  22878073.003    22878082.0524
  23927762.851    -2395134.669 8  -1852413.82346  23927761.153    23927773.0134
  24361960.773    -4720929.766 8  -3668287.09045  24361965.446    24361975.5454
 00  4 23  3 43 30.0000000  0  8 21 15 23 09 29 05 30 25
  20552009.240    -5599699.204 9  -4348525.75048  20552011.750    20552019.4774
  21818294.885   -14034472.355 8 -10911303.99047  21818297.107    21818305.9174
  20926923.716   -20949209.434 9 -16306224.64947  20926924.769    20926933.3604
  22427458.217   -10760207.535 8  -8361110.43546  22427460.094    22427468.5624
  20863987.273   -20823415.580 9 -16213404.99747  20863988.501    20863995.3844
  22868456.590    -7983679.284 8  -6206104.18946  22868456.108    22868466.1544
  23909999.060    -2488484.553 8  -1925153.81946  23909997.551    23910009.2664
  24342527.924    -4823042.077 7  -3747854.97045  24342532.732    24342545.3374
 00  4 23  3 44  0.0000000  0  8 21 15 23 09 29 05 30 25
  20543499.585    -5644410.951 9  -4383366.04748  20543503.261    20543511.3974
  21811946.637   -14067827.137 8 -10937294.69747  21811949.871    21811958.2844
  20933525.406   -20914514.584 9 -16279189.73047  20933527.444    20933535.5874
  22444737.420   -10669387.039 8  -8290341.25246  22444741.411    22444750.7374
  20858869.104   -20850313.059 9 -16234364.01047  20858870.072    20858877.1844
  22858927.458    -8033770.503 8  -6245136.22046  22858923.338    22858933.1744
  23892251.264    -2581754.018 8  -1997831.16846  23892248.965    23892259.9304
  24323119.653    -4925049.644 7  -3827341.23745  24323120.926    24323133.3644
 00  4 23  3 44 30.0000000  0  8 21 15 23 09 29 05 30 25
  20535062.894    -5688757.298 9  -4417921.62248  20535064.431    20535072.4774
  21805718.933   -14100568.780 8 -10962807.64047  21805720.042    21805728.1114
  20940200.921   -20879430.587 9 -16251851.57547  20940203.466    20940211.6064
  22462070.093   -10578280.955 8  -8219349.53146  22462077.812    22462087.6524
  20853787.745   -20877007.415 9 -16255164.78547  20853790.175    20853797.4254
  22849469.926    -8083425.176 8  -6283828.07346  22849474.660    22849485.0814
  23874519.555    -2674923.738 8  -2070430.79646  23874519.670    23874530.3234
  24303733.884    -5026945.416 8  -3906740.38345  24303732.005    24303742.8274
 00  4 23  3 45  0.0000000  0  8 21 15 23 09 29 05 30 25
  20526697.270    -5732719.743 9  -4452178.06748  20526699.205    20526706.4814
  21799601.930   -14132696.057 8 -10987841.82247  21799605.346    21799614.3334
  20946950.221   -20843961.095 9 -16224213.03147  20946953.150    20946961.4474
  22479469.075   -10486882.603 8  -8148130.08946  22479471.055    22479479.9194
  20848747.937   -20903489.684 9 -16275800.29447  20848750.387    20848757.8044
  22840103.326    -8132657.100 8  -6322190.52646  22840106.130    22840116.0044
  23856803.322    -2767992.464 8  -2142951.70646  23856809.084    23856820.0944
  24284368.660    -5128711.357 8  -3986038.37845  24284366.656    24284377.1874
 00  4 23  3 45 30.0000000  0  8 21 15 23 09 29 05 30 25
  20518405.196    -5776296.599 9  -4486134.06948  20518406.481    20518413.9974
  21793606.925   -14164208.197 8 -11012396.71447  21793608.499    21793618.2544
  20953774.949   -20808097.047 9 -16196267.03847  20953777.716    20953786.1714
  22496923.724   -10395176.654 8  -8076670.91246  22496922.998    22496931.0474
  20843749.998   -20929755.255 9 -16296266.95147  20843752.404    20843759.7264
  22830817.189    -8181476.717 8  -6360231.68446  22830816.317    22830826.0404
  23839119.545    -2860944.385 8  -2215381.61546  23839120.615    23839131.7314
  24265029.754    -5230328.672 8  -4065220.59845  24265029.137    24265039.4804
 00  4 23  3 46  0.0000000  0  8 21 15 23 09 29 05 30 25
  20510185.916    -5819484.688 9  -4519787.12748  20510188.041    20510195.5574
  21787729.598   -14195103.714 8 -11036471.10747  21787729.879    21787739.2224
  20960676.402   -20771828.376 9 -16168005.76947  20960679.329    20960687.5234
  22514425.260   -10303150.709 8  -8004962.42146  22514433.635    22514443.3454
  20838793.156   -20955808.640 9 -16316568.23247  20838795.005    20838801.9724
  22821595.842    -8229890.558 8  -6397956.66246  22821602.750    22821613.3274
  23821452.625    -2953759.802 8  -2287705.14346  23821457.807    23821469.2094
  24245715.594    -5331788.503 8  -4144280.08945  24245722.218    24245732.5344
 00  4 23  3 46 30.0000000  0  8 21 15 23 09 29 05 30 25
  20502041.811    -5862290.668 9  -4553142.41048  20502042.615    20502050.3444
  21781967.504   -14225381.648 8 -11060064.26747  21781968.827    21781977.7684
  20967656.414   -20735153.655 9 -16139428.09047  20967658.522    20967666.3954
  22532006.105   -10210800.328 8  -7933001.09646  22532007.571    22532016.4404
  20833876.194   -20981644.694 9 -16336700.15947  20833878.032    20833885.3714
  22812464.849    -8277907.688 8  -6435372.51546  22812465.013    22812474.9434
  23803822.690    -3046447.939 8  -2359929.51046  23803820.374    23803831.8804
  24226436.608    -5433097.775 7  -4223222.27345  24226440.913    24226452.5614
 00  4 23  3 47  0.0000000  0  8 21 15 23 09 29 05 30 25
  20493969.238    -5904704.093 9  -4586191.81948  20493971.687    20493979.3114
  21776321.837   -14255040.929 8 -11083175.35747  21776324.308    21776333.2594
  20974714.582   -20698071.142 9 -16110532.64647  20974715.393    20974723.2784
  22549637.592   -10118139.647 8  -7860798.00846  22549640.746    22549650.7784
  20829001.690   -21007260.477 9 -16356660.47748  20829003.862    20829010.7524
  22803403.145    -8325514.167 8  -6472468.36246  22803405.665    22803416.6354
  23786202.728    -3139022.148 8  -2432065.09546  23786203.551    23786215.5804
  24207189.463    -5534258.304 7  -4302048.47645  24207191.648    24207204.2814
 00  4 23  3 47 30.0000000  0  8 21 15 23 09 29 05 30 25
  20485969.263    -5946741.220 9  -4618947.99248  20485971.624    20485979.5944
  21770799.324   -14284080.552 8 -11105803.59847  21770799.369    21770806.2764
  20981847.146   -20660576.965 9 -16081316.42547  20981850.030    20981858.2374
  22567325.374   -10025184.334 8  -7788365.34746  22567329.321    22567338.1914
  20824167.420   -21032662.948 9 -16376454.58748  20824169.605    20824177.4164
  22794428.916    -8372687.474 8  -6509226.71746  22794429.591    22794438.8844
  23768603.071    -3231489.690 8  -2504117.57546  23768607.299    23768617.8304
  24187963.554    -5635269.465 7  -4380758.33445  24187969.011    24187981.5664
 00  4 23  3 48  0.0000000  0  8 21 15 23 09 29 05 30 25
  20478040.160    -5988413.365 9  -4651419.78748  20478041.809    20478049.6744
  21765386.957   -14312499.527 8 -11127948.21947  21765390.078    21765397.8474
  20989058.750   -20622687.558 9 -16051792.24047  20989059.875    20989068.4574
  22585063.863    -9931954.184 8  -7715718.50846  22585070.064    22585079.8484
  20819373.104   -21057856.144 9 -16396085.61848  20819375.585    20819382.5314
  22785533.415    -8419401.226 8  -6545626.94546  22785539.072    22785549.4114
  23751018.897    -3323875.063 8  -2576105.99945  23751026.799    23751037.1084
  24168780.640    -5736142.956 8  -4459360.92445  24168773.844    24168786.9584
 00  4 23  3 48 30.0000000  0  8 21 15 23 09 29 05 30 25
  20470180.451    -6029715.175 9  -4683603.00148  20470182.378    20470190.2394
  21760098.027   -14340296.950 8 -11149608.52247  21760100.603    21760109.0314
  20996342.191   -20584403.935 9 -16021960.87547  20996345.021    20996353.6884
  22602857.962    -9838464.946 8  -7642869.79146  22602861.472    22602870.9394
  20814618.121   -21082847.427 9 -16415559.33448  20814620.328    20814627.3174
  22776735.475    -8465640.907 8  -6581657.78846  22776740.585    22776750.4434
  23733455.881    -3416182.098 8  -2648033.40946  23733461.444    23733472.3254
  24149603.444    -5836880.680 8  -4537857.74545  24149605.695    24149616.4724
 00  4 23  3 49  0.0000000  0  8 21 15 23 09 29 05 30 25
  20462389.873    -6070646.285 9  -4715497.35748  20462393.141    20462401.2704
  21754926.948   -14367471.677 8 -11170783.61047  21754929.991    21754937.9914
  21003706.160   -20545721.775 9 -15991818.95347  21003706.209    21003714.2944
  22620695.676    -9744722.807 8  -7569823.98746  22620699.751    22620707.9704
  20809899.304   -21107638.909 9 -16434877.32748  20809902.308    20809909.7554
  22768029.670    -8511401.152 8  -6617315.04146  22768032.914    22768043.1574
  23715907.284    -3508396.576 8  -2719888.70246  23715913.680    23715924.4724
  24130462.327    -5937475.909 8  -4616243.50945  24130461.547    24130472.5914
 00  4 23  3 49 30.0000000  0  8 21 15 23 09 29 05 30 25
  20454673.053    -6111215.904 9  -4747110.03648  20454673.450    20454681.1634
  21749876.771   -14394022.866 8 -11191472.82447  21749877.472    21749885.6964
  21011140.177   -20506648.628 9 -15961372.36847  21011141.452    21011149.8704
  22638585.371    -9650724.644 8  -7496578.67746  22638587.004    22638595.6874
  20805219.499   -21132235.777 9 -16454043.67948  20805221.909    20805229.0094
  22759414.749    -8556688.096 8  -6652603.47746  22759415.107    22759425.5244
  23698383.147    -3600504.138 8  -2791660.65446  23698386.024    23698396.6714
  24111346.034    -6037928.304 8  -4694517.98045  24111347.053    24111357.7344
 00  4 23  3 50  0.0000000  0  8 21 15 23 09 29 05 30 25
  20447024.811    -6151399.067 9  -4778421.58548  20447026.766    20447034.8264
  21744940.609   -14419949.946 8 -11211675.71647  21744943.114    21744952.3004
  21018649.392   -20467181.902 9 -15930619.10247  21018651.442    21018660.0374
  22656522.155    -9556464.494 8  -7423129.26546  22656524.450    22656533.1104
  20800577.490   -21156636.615 9 -16473057.33348  20800578.604    20800585.3344
  22750879.552    -8601519.606 8  -6687537.02046  22750883.448    22750893.9034
  23680884.401    -3692498.740 8  -2863344.60046  23680879.676    23680890.5894
  24092256.082    -6138241.172 7  -4772683.70845  24092256.041    24092266.8564
 00  4 23  3 50 30.0000000  0  8 21 15 23 09 29 05 30 25
  20439453.412    -6191186.120 9  -4809424.48048  20439455.313    20439463.8824
  21740127.555   -14445251.805 8 -11231391.44547  21740128.804    21740137.8744
  21026237.425   -20427307.269 9 -15899547.98447  21026239.779    21026247.7064
  22674513.360    -9461934.518 8  -7349469.57346  22674513.536    22674522.2784
  20795972.875   -21180830.160 9 -16491909.46548  20795974.600    20795981.4354
  22742433.718    -8645915.845 8  -6722131.41946  22742435.925    22742445.5674
  23663397.107    -3784365.499 8  -2934928.92146  23663397.737    23663409.6634
  24073193.946    -6238402.903 7  -4850731.60645  24073195.817    24073207.0384
 00  4 23  3 51  0.0000000  0  8 21 15 23 09 29 05 30 25
  20431958.259    -6230577.447 9  -4840119.01548  20431959.859    20431967.5564
  21735429.084   -14469927.609 8 -11250619.34247  21735432.241    21735441.3024
  21033903.795   -20387029.938 9 -15868163.07647  21033904.451    21033912.2764
  22692554.207    -9367128.532 8  -7275594.84446  22692554.096    22692563.1194
  20791409.304   -21204807.237 9 -16510592.88648  20791411.685    20791418.8164
  22734068.818    -8689886.545 8  -6756394.23146  22734068.376    22734077.7604
  23645938.531    -3876106.563 8  -3006415.30846  23645940.219    23645950.7154
  24054156.400    -6338410.749 8  -4928659.63445  24054165.954    24054177.7284
 00  4 23  3 51 30.0000000  0  8 21 15 23 09 29 05 30 25
  20424538.886    -6269567.520 9  -4870500.87648  20424540.081    20424548.0284
  21730853.289   -14493976.568 8 -11269358.76447  21730855.949    21730864.7084
  21041641.950   -20346350.747 9 -15836465.02747  21041645.571    21041653.1734
  22710638.229    -9272040.236 8  -7201500.09646  22710648.732    22710656.5954
  20786889.102   -21228562.268 9 -16529103.27848  20786891.048    20786898.4334
  22725777.967    -8733435.034 8  -6790328.03946  22725782.060    22725790.4994
  23628496.119    -3967719.332 8  -3077801.72046  23628505.792    23628517.3174
  24035166.311    -6438261.173 8  -5006465.00246  24035165.691    24035176.8794
 00  4 23  3 52  0.0000000  0  8 21 15 23 09 29 05 30 25
  20417194.069    -6308148.281 9  -4900563.81148  20417198.033    20417206.3064
  21726399.196   -14517397.799 8 -11287609.03147  21726399.326    21726407.8184
  21049462.865   -20305256.477 9 -15804443.54747  21049465.665    21049473.3144
  22728792.574    -9176665.980 8  -7127182.51546  22728798.016    22728806.0714
  20782412.565   -21252082.711 9 -16547430.85548  20782415.524    20782422.8924
  22717569.873    -8776558.411 8  -6823930.58946  22717574.799    22717585.0664
  23611102.609    -4059203.346 8  -3149087.78046  23611097.755    23611108.6134
  24016184.387    -6537954.270 8  -5084147.77546  24016194.009    24016206.3684
 00  4 23  3 52 30.0000000  0  8 21 15 23 09 29 05 30 25
  20409929.073    -6346333.294 9  -4930318.37148  20409931.757    20409940.0624
  21722056.273   -14540190.725 8 -11305369.73447  21722061.514    21722070.0064
  21057361.285   -20263755.709 9 -15772105.29847  21057362.851    21057370.9554
  22746997.436    -9081013.576 8  -7052648.20846  22746999.820    22747007.5834
  20777982.225   -21275366.744 9 -16565574.21848  20777984.888    20777991.9004
  22709446.580    -8819243.867 8  -6857191.90546  22709452.766    22709460.9684
  23593713.958    -4150542.089 8  -3220260.67146  23593716.013    23593726.5774
  23997254.826    -6637492.264 8  -5161709.68846  23997252.858    23997263.7174
 00  4 23  3 53  0.0000000  0  8 21 15 23 09 29 05 30 25
  20402737.442    -6384120.075 9  -4959762.62448  20402741.287    20402749.1944
  21717843.510   -14562354.817 8 -11322640.44147  21717844.501    21717852.3064
  21065335.808   -20221853.418 9 -15739454.19047  21065336.243    21065344.6814
  22765248.503    -8985097.101 8  -6977908.11846  22765251.940    22765260.5484
  20773592.372   -21298431.819 9 -16583547.00248  20773595.659    20773602.6714
  22701412.009    -8861478.868 8  -6890102.22246  22701414.846    22701424.3894
  23576355.161    -4241723.598 8  -3291311.05646  23576364.366    23576375.3684
  23978341.762    -6736873.745 8  -5239149.68945  23978339.883    23978350.6544
 00  4 23  3 53 30.0000000  0  8 21 15 23 09 29 05 30 25
  20395626.578    -6421502.467 9  -4988891.76648  20395627.602    20395635.5824
  21713744.139   -14583889.223 8 -11339420.48647  21713747.326    21713754.2454
  21073387.532   -20179537.261 9 -15706480.58947  21073388.930    21073397.4224
  22783549.802    -8888918.746 8  -6902963.99846  22783554.824    22783563.3024
  20769241.520   -21321289.542 9 -16601358.23248  20769245.603    20769252.6544
  22693461.827    -8903256.823 8  -6922656.38546  22693463.852    22693473.9454
  23559039.400    -4332744.938 8  -3362236.58746  23559043.580    23559055.0194
  23959452.932    -6836091.928 7  -5316462.38145  23959458.213    23959470.2074
 00  4 23  3 54  0.0000000  0  8 21 15 23 09 29 05 30 25
  20388590.222    -6458476.410 9  -5017702.65748  20388591.675    20388599.9514
  21709768.862   -14604793.157 8 -11355709.24047  21709768.582    21709776.6644
  21081517.386   -20136810.350 9 -15673186.91647  21081519.964    21081528.2634
  22801904.319    -8792487.204 8  -6827822.57546  22801904.257    22801912.7364
  20764932.447   -21343952.868 9 -16619018.08748  20764933.537    20764940.3184
  22685604.678    -8944555.750 8  -6954837.29946  22685606.019    22685615.7994
  23541750.824    -4423612.369 8  -3433042.22546  23541752.372    23541762.6214
  23940608.810    -6935138.520 8  -5393641.40345  23940612.638    23940622.0074
 00  4 23  3 54 30.0000000  0  8 21 15 23 09 29 05 30 25
  20381630.820    -6495042.533 9  -5046195.75748  20381633.473    20381641.5264
  21705909.618   -14625066.123 8 -11371506.34647  21705910.857    21705918.6144
  21089722.918   -20093689.823 9 -15639586.53647  21089725.120    21089733.6284
  22820298.273    -8695809.441 8  -6752489.28146  22820301.573    22820310.3634
  20760652.630   -21366432.741 9 -16636534.88948  20760655.333    20760662.6694
  22677838.308    -8985368.856 8  -6986639.64446  22677839.007    22677848.8144
  23524494.258    -4514325.462 8  -3503727.61046  23524490.240    23524500.4334
  23921795.209    -7034005.588 8  -5470680.55345  23921797.202    23921808.0024
 00  4 23  3 55  0.0000000  0  8 21 15 23 09 29 05 30 25
  20374753.384    -6531191.579 9  -5074363.87748  20374754.601    20374762.3474
  21702169.753   -14644707.394 8 -11386811.22747  21702172.972    21702180.5614
  21098008.311   -20050160.521 9 -15605667.62547  21098008.133    21098016.6884
  22838746.578    -8598872.039 8  -6676953.67846  22838748.350    22838757.5294
  20756409.045   -21388733.873 9 -16653912.40848  20756411.412    20756418.8854
  22670162.516    -9025696.114 8  -7018063.41646  22670165.569    22670174.5894
  23507249.967    -4604894.338 8  -3574300.60646  23507255.873    23507265.1894
  23903013.951    -7132684.126 8  -5547572.75946  23903020.883    23903030.7114
 00  4 23  3 55 30.0000000  0  8 21 15 23 09 29 05 30 25
  20367949.569    -6566925.826 9  -5102208.78248  20367954.183    20367962.5874
  21698552.934   -14663716.460 8 -11401623.45547  21698555.052    21698562.9114
  21106368.500   -20006216.545 9 -15571425.59247  21106370.441    21106379.1544
  22857241.347    -8501672.194 8  -6601213.57146  22857244.574    22857253.7694
  20752200.979   -21410844.327 9 -16671141.29947  20752203.857    20752211.0674
  22662585.632    -9065534.945 8  -7049106.58446  22662584.146    22662593.4364
  23490044.135    -4695320.542 8  -3644762.41445  23490046.386    23490057.6404
  23884276.535    -7231184.857 8  -5624326.39446  23884276.597    23884285.7434
 00  4 23  3 56  0.0000000  0  8 21 15 23 09 29 05 30 25
  20361232.600    -6602241.145 9  -5129727.25348  20361234.385    20361242.4804
  21695057.777   -14682092.623 8 -11415942.50047  21695058.840    21695067.1094
  21114805.080   -19961878.657 9 -15536876.62347  21114808.103    21114816.2084
  22875785.149    -8404232.945 8  -6525286.90546  22875786.873    22875796.2594
  20748034.455   -21432748.494 9 -16688209.43248  20748035.741    20748043.0884
  22655094.704    -9104889.317 8  -7079772.25146  22655095.504    22655104.3474
  23472868.365    -4785597.371 8  -3715107.86946  23472868.398    23472878.2664
  23865561.988    -7329517.825 8  -5700949.34445  23865563.884    23865573.8474
 00  4 23  3 56 30.0000000  0  8 21 15 23 09 29 05 30 25
  20354589.078    -6637138.493 9  -5156920.01848  20354593.424    20354601.5364
  21691679.792   -14699835.583 8 -11429768.14447  21691682.225    21691690.6524
  21123320.300   -19917142.428 9 -15502017.25647  21123321.380    21123329.1734
  22894372.977    -8306568.393 8  -6449184.70546  22894372.011    22894381.6724
  20743905.892   -21454444.562 9 -16705115.51247  20743907.148    20743914.3884
  22647694.062    -9143772.578 8  -7110070.83646  22647696.135    22647705.4044
  23455721.631    -4875708.720 8  -3785324.33345  23455720.480    23455731.1164
  23846878.807    -7427687.105 8  -5777444.71345  23846881.749    23846892.9374
 00  4 23  3 57  0.0000000  0  8 21 15 23 09 29 05 30 25
  20348031.880    -6671608.213 9  -5183779.55048  20348034.013    20348042.1054
  21688424.835   -14716944.816 8 -11443099.95347  21688426.360    21688434.8724
  21131910.402   -19871999.400 9 -15466840.89747  21131911.306    21131919.7684
  22912998.380    -8208684.020 8  -6372911.18846  22912998.926    22913007.5814
  20739817.228   -21475928.182 9 -16721855.95948  20739818.769    20739825.8964
  22640382.989    -9182185.409 8  -7140002.83746  22640386.119    22640395.3924
  23438606.124    -4965649.208 8  -3855407.70645  23438604.379    23438615.3934
  23828234.989    -7525688.588 8  -5853809.33745  23828233.996    23828242.9234
 00  4 23  3 57 30.0000000  0  8 21 15 23 09 29 05 30 25
  20341555.255    -6705644.999 9  -5210301.72548  20341557.472    20341565.2304
  21685290.407   -14733419.830 8 -11455937.60147  21685291.711    21685300.1124
  21140572.520   -19826474.805 9 -15431367.22047  21140574.435    21140583.4234
  22931664.933    -8110601.139 8  -6296482.96946  22931663.592    22931672.4274
  20735769.984   -21497192.141 9 -16738425.19447  20735772.197    20735779.6944
  22633166.476    -9220124.878 8  -7169565.98946  22633166.460    22633175.2774
  23421516.880    -5055407.683 8  -3925349.22645  23421524.091    23421534.0024
  23809615.455    -7623518.479 8  -5930040.26245  23809616.395    23809626.4164
 00  4 23  3 58  0.0000000  0  8 21 15 23 09 29 05 30 25
  20335160.378    -6739245.794 9  -5236484.16148  20335163.027    20335171.1404
  21682274.322   -14749260.054 8 -11468280.60847  21682277.406    21682286.2004
  21149306.109   -19780580.473 9 -15395605.44447  21149308.266    21149316.4694
  22950361.334    -8012320.420 8  -6219900.60546  22950365.658    22950374.5314
  20731765.098   -21518242.240 9 -16754827.74747  20731766.581    20731773.7654
  22626035.781    -9257586.569 8  -7198756.84046  22626037.381    22626046.8274
  23404477.383    -5144976.098 8  -3995142.63545  23404480.443    23404490.1064
  23791038.078    -7721164.228 8  -6006127.72346  23791035.034    23791045.7134
 00  4 23  3 58 30.0000000  0  8 21 15 23 09 29 05 30 25
  20328847.276    -6772415.224 9  -5262330.45348  20328850.978    20328859.3294
  21679380.015   -14764465.197 8 -11480128.74347  21679383.418    21679392.6414
  21158115.109   -19734302.083 9 -15359544.39247  21158115.365    21158122.8444
  22969109.065    -7913823.972 8  -6143150.15846  22969108.078    22969118.0374
  20727797.682   -21539084.468 9 -16771068.36148  20727800.685    20727807.6114
  22618999.812    -9294565.167 8  -7227571.26246  22619000.747    22619010.1554
  23387472.715    -5234345.768 8  -4064781.18946  23387474.140    23387485.0704
  23772480.232    -7818613.533 8  -6082062.07746  23772490.654    23772501.9754
 00  4 23  3 59  0.0000000  0  8 21 15 23 09 29 05 30 25
  20322622.891    -6805138.646 9  -5287829.20448  20322624.299    20322632.2594
  21676609.211   -14779034.825 8 -11491481.69247  21676611.002    21676619.6084
  21166992.818   -19687635.991 9 -15323181.23047  21166994.624    21167003.2184
  22987890.602    -7815102.521 8  -6066224.38246  22987894.298    22987904.4124
  20723872.450   -21559711.089 9 -16787141.01448  20723875.338    20723882.7454
  22612057.459    -9331059.571 8  -7256008.39246  22612055.859    22612064.8534
  23370498.854    -5323526.890 8  -4134272.82646  23370503.602    23370513.5524
  23753988.348    -7915878.074 8  -6157852.49646  23753982.977    23753992.7524
 00  4 23  3 59 30.0000000  0  8 21 15 23 09 29 05 30 25
  20316478.369    -6837424.751 9  -5312987.18748  20316480.395    20316488.2554
  21673957.256   -14792968.624 8 -11502339.15947  21673959.981    21673968.6304
  21175946.526   -19640571.702 9 -15286507.79247  21175950.658    21175959.3644
  23006722.089    -7716163.493 8  -5989129.06446  23006721.450    23006731.3724
  20719987.420   -21580122.178 9 -16803045.69448  20719991.249    20719998.5484
  22605196.392    -9367070.787 8  -7284068.99546  22605202.591    22605212.7014
  23353569.304    -5412514.218 8  -4203613.49846  23353570.038    23353578.9254
  23735502.313    -8012968.694 8  -6233507.40246  23735506.915    23735516.9394
 00  4 23  4  0  0.0000000  0  8 21 15 23 09 29 05 30 25
  20310415.952    -6869280.605 9  -5337809.92148  20310418.597    20310426.3544
  21671429.425   -14806266.158 8 -11512700.85447  21671429.609    21671437.2444
  21184986.658   -19593083.190 9 -15249503.78447  21184987.886    21184996.1024
  23025583.549    -7617004.276 8  -5911862.15246  23025591.481    23025600.5444
  20716144.300   -21600323.313 9 -16818786.78448  20716147.340    20716154.1494
  22598439.253    -9402600.797 8  -7311754.63946  22598441.192    22598451.6694
  23336667.637    -5501311.053 8  -4272805.71546  23336671.272    23336681.9274
  23717062.408    -8109891.372 8  -6309031.38246  23717062.947    23717073.4334
 00  4 23  4  0 30.0000000  0  8 21 15 23 09 29 05 30 25
  20304435.718    -6900706.965 9  -5362297.99548  20304438.158    20304446.0484
  21669017.545   -14818927.216 8 -11522566.60547  21669019.385    21669028.3974
  21194107.349   -19545159.587 9 -15212160.75247  21194107.569    21194115.6844
  23044503.296    -7517623.887 8  -5834422.89646  23044503.068    23044512.4494
  20712337.732   -21620320.580 9 -16834369.03448  20712341.587    20712348.6344
  22591772.341    -9437650.304 8  -7339065.86646  22591771.786    22591782.4654
  23319795.610    -5589935.763 8  -4341863.80046  23319806.359    23319817.6664
  23698648.588    -8206649.741 8  -6384427.33746  23698649.919    23698660.3414
 00  4 23  4  1  0.0000000  0  8 21 15 23 09 29 05 30 25
  20298538.222    -6931700.664 9  -5386448.94148  20298540.258    20298547.8374
  21666731.513   -14830951.428 8 -11531936.09547  21666731.233    21666740.9824
  21203307.395   -19496810.850 9 -15174486.44447  21203308.217    21203316.2544
  23063455.671    -7418027.965 8  -5756815.70146  23063455.018    23063464.5934
  20708572.604   -21640115.992 9 -16849794.03848  20708574.932    20708582.0594
  22585190.625    -9472218.218 8  -7366001.82746  22585194.346    22585203.5574
  23302974.297    -5678393.178 8  -4410791.51946  23302974.600    23302984.4864
  23680266.746    -8303248.770 8  -6459699.16446  23680268.779    23680278.7234
 00  4 23  4  1 30.0000000  0  8 21 15 23 09 29 05 30 25
  20292719.828    -6962272.958 9  -5410271.53548  20292722.321    20292730.4544
  21664562.657   -14842338.598 8 -11540809.18447  21664564.880    21664573.7944
  21212584.830   -19448050.014 9 -15136491.01247  21212586.795    21212595.4554
  23082438.621    -7318223.780 8  -5679046.23646  23082447.152    23082456.8264
  20704843.795   -21659713.467 9 -16865064.78048  20704845.613    20704852.4994
  22578707.308    -9506291.930 8  -7392552.70446  22578710.348    22578719.7864
  23286178.781    -5766672.701 8  -4479580.65046  23286174.792    23286185.1694
  23661922.499    -8399665.916 8  -6534829.25346  23661920.692    23661930.9194
 00  4 23  4  2  0.0000000  0  8 21 15 23 09 29 05 30 25
  20286984.296    -6992415.846 9  -5433759.50948  20286986.418    20286994.5514
  21662518.199   -14853088.545 8 -11549185.76947  21662519.199    21662528.5284
  21221936.784   -19398898.598 9 -15098191.23047  21221939.706    21221948.4294
  23101480.588    -7218207.889 8  -5601111.79146  23101480.400    23101489.9114
  20701151.023   -21679114.208 9 -16880182.27848  20701153.546    20701160.9774
  22572317.758    -9539868.194 8  -7418715.96746  22572321.000    22572329.8754
  23269402.069    -5854780.150 8  -4548235.65146  23269407.389    23269419.3294
  23643608.412    -8495891.514 8  -6609810.10246  23643609.297    23643619.2524
 00  4 23  4  2 30.0000000  0  8 21 15 23 09 29 05 30 25
  20281333.898    -7022112.473 9  -5456899.74148  20281335.529    20281343.3644
  21660594.235   -14863201.151 8 -11557065.69447  21660595.594    21660603.3174
  21231361.800   -19349375.707 9 -15059602.01147  21231363.732    21231372.5304
  23120546.221    -7117982.707 8  -5523014.27646  23120552.476    23120561.9134
  20697499.778   -21698311.946 9 -16895141.54348  20697500.359    20697507.7484
  22566026.954    -9572943.747 8  -7444489.04546  22566026.846    22566035.5844
  23252674.585    -5942708.423 8  -4616751.05446  23252676.163    23252686.7204
  23625332.120    -8591918.628 8  -6684636.28045  23625334.470    23625345.3414
 00  4 23  4  3  0.0000000  0  8 21 15 23 09 29 05 30 25
  20275770.605    -7051351.442 9  -5479683.34348  20275771.677    20275779.4884
  21658788.461   -14872676.209 8 -11564448.81347  21658791.258    21658801.3074
  21240859.976   -19299474.144 9 -15020717.71647  21240859.761    21240868.3054
  23139660.445    -7017563.998 8  -5444765.93446  23139660.815    23139670.0584
  20693885.234   -21717291.466 9 -16909930.81048  20693889.010    20693896.1114
  22559826.371    -9605523.698 8  -7469875.96146  22559827.052    22559835.8314
  23235983.024    -6030428.972 8  -4685104.60446  23235983.293    23235993.8034
  23607099.818    -8687745.755 8  -6759306.63446  23607099.461    23607110.1994
 00  4 23  4  3 30.0000000  0  8 21 15 23 09 29 05 30 25
  20270291.082    -7080142.735 9  -5502118.09648  20270292.737    20270300.5894
  21657108.362   -14881513.590 8 -11571335.06047  21657110.389    21657118.8024
  21250428.265   -19249176.704 9 -14981524.93847  21250431.069    21250439.4684
  23158803.709    -6916955.981 8  -5366370.10746  23158805.786    23158815.3334
  20690315.059   -21736059.376 9 -16924555.19848  20690317.449    20690324.4334
  22553720.662    -9637606.729 8  -7494875.64146  22553721.488    22553730.8004
  23219327.497    -6117930.133 8  -4753287.20946  23219331.504    23219342.0834
  23588908.045    -8783372.271 8  -6833820.61646  23588902.512    23588913.0274
 00  4 23  4  4  0.0000000  0  8 21 15 23 09 29 05 30 25
  20264897.120    -7108483.292 9  -5524201.62148  20264899.726    20264907.7824
  21655548.763   -14889713.310 8 -11577724.44347  21655549.442    21655559.1134
  21260078.273   -19198476.590 9 -14942018.39047  21260078.973    21260087.5234
  23177984.142    -6816156.145 8  -5287824.81346  23177988.503    23177997.0874
  20686783.248   -21754618.431 9 -16939016.78448  20686786.083    20686792.6264
  22547708.627    -9669195.126 8  -7519489.93146  22547710.521    22547719.5534
  23202719.358    -6205207.310 8  -4821295.27646  23202724.581    23202733.7934
  23570737.256    -8878816.662 8  -6908192.66846  23570740.334    23570750.7414
 00  4 23  4  4 30.0000000  0  8 21 15 23 09 29 05 30 25
  20259590.121    -7136371.672 9  -5545932.82048  20259592.559    20259600.5534
  21654110.653   -14897275.357 9 -11583616.90447  21654111.032    21654120.1024
  21269802.164   -19147356.461 9 -14902184.56147  21269806.866    21269815.3804
  23197203.509    -6715163.309 8  -5209129.13746  23197206.591    23197215.9644
  20683292.020   -21772963.512 9 -16953311.65948  20683294.951    20683302.0274
  22541792.670    -9700285.979 8  -7543716.49546  22541793.562    22541803.1514
  23186159.588    -6292246.213 8  -4889117.66646  23186160.156    23186171.2814
  23552607.207    -8974080.518 8  -6982424.10046  23552612.046    23552621.6464
 00  4 23  4  5  0.0000000  0  8 21 15 23 09 29 05 30 25
  20254366.415    -7163831.251 9  -5567329.87248  20254367.184    20254375.2004
  21652791.632   -14904199.428 8 -11589012.26447  21652793.352    21652802.5804
  21279612.279   -19095811.251 9 -14862019.50247  21279615.704    21279624.2464
  23216463.188    -6613969.360 8  -5130276.70446  23216463.056    23216472.0444
  20679841.045   -21791100.617 9 -16967444.50948  20679843.552    20679850.5254
  22535970.924    -9730877.932 8  -7567554.33146  22535972.179    22535981.5884
  23169643.401    -6379038.593 8  -4956747.95046  23169642.942    23169655.1914
  23534518.672    -9069162.181 8  -7056513.57246  23534518.293    23534527.3814
 00  4 23  4  5 30.0000000  0  8 21 15 23 09 29 05 30 25
  20249218.039    -7190875.662 9  -5588403.42548  20249220.743    20249228.8854
  21651595.347   -14910485.788 8 -11593910.70647  21651597.180    21651606.6474
  21289496.905   -19043866.385 9 -14821543.02047  21289500.702    21289509.0254
  23235757.509    -6512559.177 8  -5051255.79846  23235760.474    23235770.6404
  20676427.154   -21809038.008 9 -16981421.72048  20676430.185    20676437.2034
  22530244.057    -9760959.548 8  -7590994.47646  22530247.535    22530257.7324
  23153170.363    -6465596.401 8  -5024195.48246  23153172.714    23153181.8924
  23516448.482    -9164054.592 8  -7130455.59746  23516459.453    23516469.9624
